[[{"header":{"parameterUnit":"m.s-1","parameterCategory":1,"la1":31.0,"la2":29.5877,"lo1":-88.7671,"lo2":-86.6584,"dy":0.0162,"dx":0.0185,"nx":115,"ny":88,"refTime":"2023-11-15T00:00:00:Z","depth":0,"parameterNumber":2,"parameterNumberName":"U-component_of_WINDS"},"data":[0.0,0.0,0.0,0.0,0.0,0.0,0.0,0.0,0.0,0.0,0.0,0.0,0.0,0.0,0.0,0.0,0.0,0.0,0.0,0.0,0.0,0.0,0.0,0.0,0.0,0.0,0.0,0.0,0.0,0.0,0.0,0.0,0.0,0.0,0.0,0.0,0.0,0.0,0.0,0.0,0.0,0.0,0.0,0.0,0.0,0.0,0.0,0.0,0.0,0.0,0.0,0.0,0.0,0.0,0.0,0.0,0.0,0.0,0.0,0.0,0.0,0.0,0.0,0.0,0.0,0.0,0.0,0.0,0.0,0.0,0.0,0.0,0.0,0.0,0.0,0.0,0.0,0.0,0.0,0.0,0.0,0.0,0.0,0.0,0.0,0.0,0.0,0.0,0.0,0.0,0.0,0.0,0.0,0.0,0.0,0.0,0.0,0.0,0.0,0.0,0.0,0.0,0.0,0.0,0.0,0.0,0.0,0.0,0.0,0.0,0.0,0.0,0.0,0.0,0.0,0.0,0.0,0.0,0.0,0.0,0.0,0.0,0.0,0.0,0.0,0.0,0.0,0.0,0.0,0.0,0.0,0.0,0.0,0.0,0.0,0.0,0.0,0.0,0.0,0.0,0.0,0.0,0.0,0.0,0.0,0.0,0.0,0.0,0.0,0.0,0.0,0.0,0.0,0.0,0.0,0.0,0.0,0.0,0.0,0.0,0.0,0.0,0.0,0.0,0.0,0.0,0.0,0.0,0.0,0.0,0.0,0.0,0.0,0.0,0.0,0.0,0.0,0.0,0.0,0.0,0.0,0.0,0.0,0.0,0.0,0.0,0.0,0.0,0.0,0.0,0.0,0.0,0.0,0.0,0.0,0.0,0.0,0.0,0.0,0.0,0.0,0.0,0.0,0.0,0.0,0.0,0.0,0.0,0.0,0.0,0.0,0.0,0.0,0.0,0.0,0.0,0.0,0.0,0.0,0.0,0.0,0.0,0.0,0.0,0.0,0.0,0.0,0.0,0.0,0.0,0.0,0.0,0.0,0.0,0.0,0.0,0.0,0.0,0.0,0.0,0.0,0.0,0.0,0.0,0.0,0.0,0.0,0.0,0.0,0.0,0.0,0.0,0.0,0.0,0.0,0.0,0.0,0.0,0.0,0.0,0.0,0.0,0.0,0.0,0.0,0.0,0.0,0.0,0.0,0.0,0.0,0.0,0.0,0.0,0.0,0.0,0.0,0.0,0.0,0.0,0.0,0.0,0.0,0.0,0.0,0.0,0.0,0.0,0.0,0.0,0.0,0.0,0.0,0.0,0.0,0.0,0.0,0.0,0.0,0.0,0.0,0.0,0.0,0.0,0.0,0.0,0.0,0.0,0.0,0.0,0.0,0.0,0.0,0.0,0.0,0.0,0.0,0.0,0.0,0.0,0.0,0.0,0.0,0.0,0.0,0.0,0.0,0.0,0.0,0.0,0.0,0.0,0.0,0.0,0.0,0.0,0.0,0.0,0.0,0.0,0.0,0.0,0.0,0.0,0.0,0.0,0.0,0.0,0.0,0.0,0.0,0.0,0.0,0.0,0.0,0.0,0.0,0.0,0.0,0.0,0.0,0.0,0.0,0.0,0.0,0.0,0.0,0.0,0.0,0.0,0.0,0.0,0.0,0.0,0.0,0.0,0.0,0.0,0.0,0.0,0.0,0.0,0.0,0.0,0.0,0.0,0.0,0.0,0.0,0.0,0.0,0.0,0.0,0.0,0.0,0.0,0.0,0.0,0.0,0.0,0.0,0.0,0.0,0.0,0.0,0.0,0.0,0.0,0.0,0.0,0.0,0.0,0.0,0.0,0.0,0.0,0.0,0.0,0.0,0.0,0.0,0.0,0.0,0.0,0.0,0.0,0.0,0.0,0.0,0.0,0.0,0.0,0.0,0.0,0.0,0.0,0.0,0.0,0.0,0.0,0.0,0.0,0.0,0.0,0.0,0.0,0.0,0.0,0.0,0.0,0.0,0.0,0.0,0.0,0.0,0.0,0.0,0.0,0.0,0.0,0.0,0.0,0.0,0.0,0.0,0.0,0.0,0.0,0.0,0.0,0.0,0.0,0.0,0.0,0.0,0.0,0.0,0.0,0.0,0.0,0.0,0.0,0.0,0.0,0.0,0.0,0.0,0.0,0.0,0.0,0.0,0.0,0.0,0.0,0.0,0.0,0.0,0.0,0.0,0.0,0.0,0.0,0.0,0.0,0.0,0.0,0.0,0.0,0.0,0.0,0.0,0.0,0.0,0.0,0.0,0.0,0.0,0.0,0.0,0.0,0.0,0.0,0.0,0.0,0.0,0.0,0.0,0.0,0.0,0.0,0.0,0.0,0.0,0.0,0.0,0.0,0.0,0.0,0.0,0.0,0.0,0.0,0.0,0.0,0.0,0.0,0.0,0.0,0.0,0.0,0.0,0.0,0.0,0.0,0.0,0.0,0.0,0.0,0.0,0.0,0.0,0.0,0.0,0.0,0.0,0.0,0.0,0.0,0.0,0.0,0.0,0.0,0.0,0.0,0.0,0.0,0.0,0.0,0.0,0.0,0.0,0.0,0.0,0.0,0.0,0.0,0.0,0.0,0.0,0.0,0.0,0.0,0.0,0.0,0.0,0.0,0.0,0.0,0.0,0.0,0.0,0.0,0.0,0.0,0.0,0.0,0.0,0.0,0.0,0.0,0.0,0.0,0.0,0.0,0.0,0.0,0.0,0.0,0.0,0.0,0.0,0.0,0.0,0.0,0.0,0.0,0.0,0.0,0.0,0.0,0.0,0.0,0.0,0.0,0.0,0.0,0.0,0.0,0.0,0.0,0.0,0.0,0.0,0.0,0.0,0.0,0.0,0.0,0.0,0.0,0.0,0.0,0.0,0.0,0.0,0.0,0.0,0.0,0.0,0.0,0.0,0.0,0.0,0.0,0.0,0.0,0.0,0.0,0.0,0.0,0.0,0.0,0.0,0.0,0.0,0.0,0.0,0.0,0.0,0.0,0.0,0.0,0.0,0.0,0.0,0.0,0.0,0.0,0.0,0.0,0.0,0.0,0.0,0.0,0.0,0.0,0.0,0.0,0.0,0.0,0.0,0.0,0.0,0.0,0.0,0.0,0.0,0.0,0.0,0.0,0.0,0.0,0.0,0.0,0.0,0.0,0.0,0.0,0.0,0.0,0.0,0.0,0.0,0.0,0.0,0.0,0.0,0.0,0.0,0.0,0.0,0.0,0.0,0.0,0.0,0.0,0.0,0.0,0.0,0.0,0.0,0.0,0.0,0.0,0.0,0.0,0.0,0.0,0.0,0.0,0.0,0.0,0.0,0.0,0.0,0.0,0.0,0.0,0.0,0.0,0.0,0.0,0.0,0.0,0.0,0.0,0.0,0.0,0.0,0.0,0.0,0.0,0.0,0.0,0.0,0.0,0.0,0.0,0.0,0.0,0.0,0.0,0.0,0.0,0.0,0.0,0.0,0.0,0.0,0.0,0.0,0.0,0.0,0.0,0.0,0.0,0.0,0.0,0.0,0.0,0.0,0.0,0.0,0.0,0.0,0.0,0.0,0.0,0.0,0.0,0.0,0.0,0.0,0.0,0.0,0.0,0.0,0.0,0.0,0.0,0.0,0.0,0.0,0.0,0.0,0.0,0.0,0.0,0.0,0.0,0.0,0.0,0.0,0.0,0.0,0.0,0.0,0.0,0.0,0.0,0.0,0.0,0.0,0.0,0.0,0.0,0.0,0.0,0.0,0.0,0.0,0.0,0.0,0.0,0.0,0.0,0.0,0.0,0.0,0.0,0.0,0.0,0.0,0.0,0.0,0.0,0.0,0.0,0.0,0.0,0.0,0.0,0.0,0.0,0.0,0.0,0.0,0.0,0.0,0.0,0.0,0.0,0.0,0.0,0.0,0.0,0.0,0.0,0.0,0.0,0.0,0.0,0.0,0.0,0.0,0.0,0.0,0.0,0.0,0.0,0.0,0.0,0.0,0.0,0.0,0.0,0.0,0.0,0.0,0.0,0.0,0.0,0.0,0.0,0.0,0.0,0.0,0.0,0.0,0.0,0.0,0.0,0.0,0.0,0.0,0.0,0.0,0.0,0.0,0.0,0.0,0.0,0.0,0.0,0.0,0.0,0.0,0.0,0.0,0.0,0.0,0.0,0.0,0.0,0.0,0.0,0.0,0.0,0.0,0.0,0.0,0.0,0.0,0.0,0.0,0.0,0.0,0.0,0.0,0.0,0.0,0.0,0.0,0.0,0.0,0.0,3.3157,0.0,0.0,0.0,0.0,0.0,0.0,0.0,0.0,0.0,0.0,0.0,0.0,0.0,0.0,0.0,0.0,0.0,0.0,0.0,0.0,0.0,0.0,0.0,0.0,0.0,0.0,0.0,0.0,0.0,0.0,0.0,0.0,0.0,0.0,0.0,0.0,0.0,0.0,0.0,0.0,0.0,0.0,0.0,0.0,0.0,0.0,0.0,0.0,0.0,0.0,0.0,0.0,0.0,0.0,0.0,0.0,0.0,0.0,0.0,0.0,0.0,0.0,0.0,0.0,0.0,0.0,0.0,0.0,0.0,0.0,0.0,0.0,0.0,0.0,0.0,0.0,0.0,0.0,0.0,0.0,0.0,0.0,0.0,0.0,0.0,0.0,0.0,0.0,0.0,0.0,0.0,0.0,0.0,0.0,0.0,0.0,0.0,0.0,0.0,0.0,0.0,0.0,0.0,0.0,0.0,0.0,0.0,0.0,0.0,0.0,3.4847,3.473,3.4311,3.3849,3.3271,0.0,0.0,0.0,0.0,0.0,0.0,0.0,0.0,0.0,0.0,0.0,0.0,0.0,0.0,0.0,0.0,0.0,0.0,0.0,0.0,0.0,0.0,0.0,0.0,0.0,0.0,0.0,0.0,0.0,0.0,0.0,0.0,0.0,0.0,0.0,0.0,0.0,0.0,0.0,0.0,0.0,0.0,0.0,0.0,0.0,0.0,0.0,0.0,0.0,0.0,0.0,0.0,0.0,0.0,0.0,0.0,0.0,0.0,0.0,0.0,0.0,0.0,0.0,0.0,0.0,0.0,0.0,0.0,0.0,0.0,0.0,0.0,0.0,0.0,0.0,0.0,0.0,0.0,0.0,0.0,0.0,0.0,0.0,0.0,0.0,0.0,0.0,0.0,0.0,0.0,0.0,0.0,0.0,0.0,0.0,0.0,0.0,0.0,0.0,0.0,0.0,0.0,0.0,0.0,0.0,0.0,0.0,0.0,0.0,0.0,0.0,0.0,3.4624,3.3989,3.294,0.0,0.0,0.0,0.0,0.0,0.0,0.0,0.0,0.0,0.0,0.0,0.0,0.0,0.0,0.0,0.0,0.0,0.0,0.0,0.0,0.0,0.0,0.0,0.0,0.0,0.0,0.0,0.0,0.0,0.0,0.0,0.0,0.0,0.0,0.0,0.0,0.0,0.0,0.0,0.0,0.0,0.0,0.0,0.0,0.0,0.0,0.0,0.0,0.0,0.0,0.0,0.0,0.0,0.0,0.0,0.0,0.0,0.0,0.0,0.0,0.0,0.0,0.0,0.0,0.0,0.0,0.0,0.0,0.0,0.0,0.0,0.0,0.0,0.0,0.0,0.0,0.0,0.0,0.0,0.0,0.0,0.0,0.0,0.0,0.0,0.0,0.0,0.0,0.0,0.0,0.0,0.0,0.0,0.0,0.0,0.0,0.0,0.0,0.0,0.0,0.0,0.0,0.0,0.0,0.0,0.0,0.0,0.0,0.0,0.0,3.6141,3.6141,3.5813,0.0,3.1995,0.0,0.0,0.0,0.0,0.0,0.0,0.0,0.0,0.0,0.0,0.0,0.0,0.0,0.0,0.0,0.0,0.0,0.0,0.0,0.0,0.0,0.0,0.0,0.0,0.0,0.0,0.0,0.0,0.0,0.0,0.0,0.0,0.0,0.0,0.0,0.0,0.0,0.0,0.0,0.0,0.0,0.0,0.0,0.0,0.0,0.0,0.0,0.0,0.0,0.0,0.0,0.0,0.0,0.0,0.0,0.0,0.0,0.0,0.0,0.0,0.0,0.0,0.0,0.0,0.0,0.0,0.0,0.0,0.0,0.0,0.0,0.0,0.0,0.0,0.0,0.0,0.0,0.0,0.0,0.0,0.0,0.0,0.0,0.0,0.0,0.0,0.0,0.0,0.0,0.0,0.0,0.0,0.0,0.0,0.0,0.0,0.0,0.0,0.0,0.0,0.0,0.0,0.0,0.0,0.0,0.0,0.0,0.0,0.0,0.0,3.6795,3.6332,3.5813,3.4952,0.0,0.0,0.0,0.0,0.0,0.0,0.0,0.0,0.0,0.0,0.0,0.0,0.0,0.0,0.0,0.0,0.0,0.0,0.0,0.0,0.0,0.0,0.0,0.0,0.0,0.0,0.0,0.0,0.0,0.0,0.0,0.0,0.0,0.0,0.0,0.0,0.0,0.0,0.0,0.0,0.0,0.0,0.0,0.0,0.0,0.0,0.0,0.0,0.0,0.0,0.0,0.0,0.0,0.0,0.0,0.0,0.0,0.0,0.0,0.0,0.0,0.0,0.0,0.0,0.0,0.0,0.0,0.0,0.0,0.0,0.0,0.0,0.0,0.0,0.0,0.0,0.0,0.0,0.0,0.0,0.0,0.0,0.0,0.0,0.0,0.0,0.0,0.0,0.0,0.0,0.0,0.0,0.0,0.0,0.0,0.0,0.0,0.0,0.0,0.0,0.0,0.0,0.0,0.0,0.0,0.0,0.0,0.0,0.0,0.0,3.706,3.6974,3.6327,3.5868,3.5345,3.4736,0.0,0.0,0.0,0.0,0.0,0.0,0.0,0.0,0.0,0.0,0.0,0.0,0.0,0.0,0.0,0.0,0.0,0.0,0.0,0.0,0.0,0.0,0.0,0.0,0.0,0.0,0.0,0.0,0.0,0.0,0.0,0.0,0.0,0.0,0.0,0.0,0.0,0.0,0.0,0.0,0.0,0.0,0.0,0.0,0.0,0.0,0.0,0.0,0.0,0.0,0.0,0.0,0.0,0.0,0.0,0.0,0.0,0.0,0.0,0.0,0.0,0.0,0.0,0.0,0.0,0.0,0.0,0.0,0.0,0.0,0.0,0.0,0.0,0.0,0.0,0.0,0.0,0.0,0.0,0.0,0.0,0.0,0.0,0.0,0.0,0.0,0.0,0.0,0.0,0.0,0.0,0.0,0.0,0.0,0.0,0.0,0.0,0.0,0.0,0.0,0.0,0.0,0.0,0.0,0.0,0.0,0.0,0.0,3.6762,3.6762,3.6626,3.6332,3.6277,3.5571,0.0,0.0,0.0,0.0,0.0,0.0,0.0,0.0,0.0,0.0,0.0,0.0,0.0,0.0,0.0,0.0,0.0,0.0,0.0,0.0,0.0,0.0,0.0,0.0,0.0,0.0,0.0,0.0,0.0,0.0,0.0,0.0,0.0,0.0,0.0,0.0,0.0,0.0,0.0,0.0,0.0,0.0,0.0,0.0,0.0,0.0,0.0,0.0,0.0,0.0,0.0,0.0,0.0,0.0,0.0,0.0,0.0,0.0,0.0,0.0,0.0,0.0,0.0,0.0,0.0,0.0,0.0,0.0,0.0,0.0,0.0,0.0,0.0,0.0,0.0,0.0,0.0,0.0,0.0,0.0,0.0,0.0,0.0,0.0,0.0,0.0,0.0,0.0,0.0,0.0,0.0,0.0,0.0,0.0,0.0,0.0,0.0,0.0,0.0,0.0,0.0,0.0,0.0,0.0,0.0,0.0,0.0,0.0,0.0,3.7773,3.7466,3.7308,3.729,3.6983,3.6282,0.0,0.0,0.0,0.0,0.0,0.0,0.0,0.0,0.0,0.0,0.0,0.0,0.0,0.0,0.0,0.0,0.0,0.0,0.0,0.0,0.0,0.0,0.0,0.0,0.0,0.0,0.0,0.0,0.0,0.0,0.0,0.0,0.0,0.0,0.0,0.0,0.0,0.0,0.0,0.0,0.0,0.0,0.0,0.0,0.0,0.0,0.0,0.0,0.0,0.0,0.0,0.0,0.0,0.0,0.0,0.0,0.0,0.0,0.0,0.0,0.0,0.0,0.0,0.0,0.0,0.0,0.0,0.0,0.0,0.0,0.0,0.0,0.0,0.0,0.0,0.0,0.0,0.0,0.0,0.0,0.0,0.0,0.0,0.0,0.0,0.0,0.0,0.0,0.0,0.0,0.0,0.0,0.0,0.0,0.0,0.0,0.0,0.0,0.0,0.0,0.0,0.0,0.0,0.0,0.0,0.0,0.0,0.0,0.0,3.8281,0.0,3.7628,0.0,3.7223,3.663,0.0,0.0,0.0,0.0,0.0,0.0,0.0,0.0,0.0,0.0,0.0,0.0,0.0,0.0,0.0,0.0,0.0,0.0,0.0,0.0,0.0,0.0,0.0,0.0,0.0,0.0,0.0,0.0,0.0,0.0,0.0,0.0,0.0,0.0,0.0,0.0,0.0,0.0,0.0,0.0,0.0,0.0,0.0,0.0,0.0,0.0,0.0,0.0,0.0,0.0,0.0,0.0,0.0,0.0,0.0,0.0,0.0,0.0,0.0,0.0,0.0,0.0,0.0,0.0,0.0,0.0,0.0,0.0,0.0,0.0,0.0,0.0,0.0,0.0,0.0,0.0,0.0,0.0,0.0,0.0,0.0,0.0,0.0,0.0,0.0,0.0,0.0,0.0,0.0,0.0,0.0,0.0,0.0,0.0,0.0,0.0,0.0,0.0,0.0,0.0,0.0,0.0,0.0,0.0,0.0,0.0,0.0,0.0,3.9355,3.8072,3.7756,3.7462,3.7116,3.6901,3.6445,0.0,0.0,0.0,0.0,0.0,0.0,0.0,0.0,0.0,0.0,0.0,0.0,0.0,0.0,0.0,0.0,0.0,0.0,0.0,0.0,0.0,0.0,0.0,0.0,0.0,0.0,0.0,0.0,0.0,0.0,0.0,0.0,0.0,0.0,0.0,0.0,0.0,0.0,0.0,0.0,0.0,0.0,0.0,0.0,0.0,0.0,0.0,0.0,0.0,0.0,0.0,0.0,0.0,0.0,0.0,0.0,0.0,0.0,0.0,0.0,0.0,0.0,0.0,0.0,0.0,0.0,0.0,0.0,0.0,0.0,0.0,0.0,0.0,0.0,0.0,0.0,0.0,0.0,0.0,0.0,0.0,0.0,0.0,0.0,0.0,0.0,0.0,0.0,0.0,0.0,0.0,0.0,0.0,0.0,0.0,0.0,0.0,0.0,0.0,0.0,0.0,0.0,0.0,0.0,0.0,0.0,0.0,0.0,0.0,3.8313,3.8024,3.7732,3.7438,3.7382,3.7059,0.0,0.0,0.0,0.0,0.0,0.0,0.0,0.0,0.0,0.0,0.0,0.0,0.0,0.0,0.0,0.0,0.0,0.0,0.0,0.0,0.0,0.0,0.0,0.0,0.0,0.0,0.0,0.0,0.0,0.0,0.0,0.0,0.0,0.0,0.0,0.0,0.0,0.0,0.0,0.0,0.0,0.0,0.0,0.0,0.0,0.0,0.0,0.0,0.0,0.0,0.0,0.0,0.0,0.0,0.0,0.0,0.0,0.0,0.0,0.0,0.0,0.0,0.0,0.0,0.0,0.0,0.0,0.0,0.0,0.0,0.0,0.0,0.0,0.0,0.0,0.0,0.0,0.0,0.0,0.0,0.0,0.0,0.0,0.0,0.0,0.0,0.0,0.0,0.0,0.0,0.0,0.0,0.0,0.0,0.0,0.0,0.0,0.0,0.0,0.0,0.0,0.0,0.0,0.0,0.0,0.0,0.0,0.0,0.0,3.8518,3.7712,3.7307,3.7274,3.7036,3.6874,3.6712,0.0,0.0,0.0,0.0,0.0,0.0,0.0,0.0,0.0,0.0,0.0,0.0,0.0,0.0,0.0,0.0,0.0,0.0,0.0,0.0,0.0,0.0,0.0,0.0,0.0,0.0,0.0,0.0,0.0,0.0,0.0,0.0,0.0,0.0,0.0,0.0,0.0,0.0,0.0,0.0,0.0,0.0,0.0,0.0,0.0,0.0,0.0,0.0,0.0,0.0,0.0,0.0,0.0,0.0,0.0,0.0,0.0,0.0,0.0,0.0,0.0,0.0,0.0,0.0,0.0,0.0,0.0,0.0,0.0,0.0,0.0,0.0,0.0,0.0,0.0,0.0,0.0,0.0,0.0,0.0,0.0,0.0,0.0,0.0,0.0,0.0,0.0,0.0,0.0,0.0,0.0,0.0,0.0,0.0,0.0,0.0,0.0,0.0,0.0,0.0,0.0,0.0,0.0,0.0,0.0,0.0,0.0,0.0,3.8583,3.6943,3.6292,3.6669,3.6159,3.6059,0.0,0.0,0.0,0.0,0.0,0.0,0.0,0.0,0.0,0.0,0.0,0.0,0.0,0.0,0.0,0.0,0.0,0.0,0.0,0.0,0.0,0.0,0.0,0.0,0.0,0.0,0.0,0.0,0.0,0.0,0.0,0.0,0.0,0.0,0.0,0.0,0.0,0.0,0.0,0.0,0.0,0.0,0.0,0.0,0.0,0.0,0.0,0.0,0.0,0.0,0.0,0.0,0.0,0.0,0.0,0.0,0.0,0.0,0.0,0.0,0.0,0.0,0.0,0.0,0.0,0.0,0.0,0.0,0.0,0.0,0.0,0.0,0.0,0.0,0.0,0.0,0.0,0.0,0.0,0.0,0.0,0.0,0.0,0.0,0.0,0.0,0.0,0.0,0.0,0.0,0.0,0.0,0.0,0.0,0.0,0.0,0.0,0.0,0.0,0.0,0.0,0.0,0.0,0.0,0.0,0.0,0.0,0.0,0.0,3.8073,3.5997,3.5345,3.6289,3.6269,3.6228,0.0,0.0,0.0,0.0,0.0,0.0,0.0,0.0,0.0,0.0,0.0,0.0,0.0,0.0,0.0,0.0,0.0,0.0,0.0,0.0,0.0,0.0,0.0,0.0,0.0,0.0,0.0,0.0,0.0,0.0,0.0,0.0,0.0,0.0,0.0,0.0,0.0,0.0,0.0,0.0,0.0,0.0,0.0,0.0,0.0,0.0,0.0,0.0,0.0,0.0,0.0,0.0,0.0,0.0,0.0,0.0,0.0,0.0,0.0,0.0,0.0,0.0,0.0,0.0,0.0,0.0,0.0,0.0,0.0,0.0,0.0,0.0,0.0,0.0,0.0,0.0,0.0,0.0,0.0,0.0,0.0,0.0,0.0,0.0,0.0,0.0,0.0,0.0,0.0,0.0,0.0,0.0,0.0,0.0,0.0,0.0,0.0,0.0,0.0,0.0,0.0,0.0,0.0,0.0,0.0,0.0,0.0,0.0,3.9325,3.8094,3.5861,3.4948,3.5431,3.5649,3.5764,0.0,0.0,0.0,0.0,0.0,0.0,0.0,0.0,0.0,0.0,0.0,0.0,0.0,0.0,0.0,0.0,0.0,0.0,0.0,0.0,0.0,0.0,0.0,0.0,0.0,0.0,0.0,0.0,0.0,0.0,0.0,0.0,0.0,0.0,0.0,0.0,0.0,0.0,0.0,0.0,0.0,0.0,0.0,0.0,0.0,0.0,0.0,0.0,0.0,0.0,0.0,0.0,0.0,0.0,0.0,0.0,0.0,0.0,0.0,0.0,0.0,0.0,0.0,0.0,0.0,0.0,0.0,0.0,0.0,0.0,0.0,0.0,0.0,0.0,0.0,0.0,0.0,0.0,0.0,0.0,0.0,0.0,0.0,0.0,0.0,0.0,0.0,0.0,0.0,0.0,0.0,0.0,0.0,0.0,0.0,0.0,0.0,0.0,0.0,0.0,0.0,0.0,0.0,0.0,0.0,0.0,0.0,0.0,3.925,3.8164,3.6102,3.4845,3.4515,3.4831,3.5199,0.0,0.0,0.0,0.0,0.0,0.0,0.0,0.0,0.0,0.0,0.0,0.0,0.0,0.0,0.0,0.0,0.0,0.0,0.0,0.0,0.0,0.0,0.0,0.0,0.0,0.0,0.0,0.0,0.0,0.0,0.0,0.0,0.0,0.0,0.0,0.0,0.0,0.0,0.0,0.0,0.0,0.0,0.0,0.0,0.0,0.0,0.0,0.0,0.0,0.0,0.0,0.0,0.0,0.0,0.0,0.0,0.0,0.0,0.0,0.0,0.0,0.0,0.0,0.0,0.0,0.0,0.0,0.0,0.0,0.0,0.0,0.0,0.0,0.0,0.0,0.0,0.0,0.0,0.0,0.0,0.0,0.0,0.0,0.0,0.0,0.0,0.0,0.0,0.0,0.0,0.0,0.0,0.0,0.0,0.0,0.0,0.0,0.0,0.0,0.0,0.0,0.0,0.0,0.0,0.0,0.0,0.0,0.0,3.8433,3.7201,3.5469,3.4685,3.4946,3.5482,3.5593,0.0,0.0,0.0,0.0,0.0,0.0,0.0,0.0,0.0,0.0,0.0,0.0,0.0,0.0,0.0,0.0,0.0,0.0,0.0,0.0,0.0,0.0,0.0,0.0,0.0,0.0,0.0,0.0,0.0,0.0,0.0,0.0,0.0,0.0,0.0,0.0,0.0,0.0,0.0,0.0,0.0,0.0,0.0,0.0,0.0,0.0,0.0,0.0,3.8822,0.0,0.0,0.0,0.0,0.0,0.0,0.0,0.0,0.0,0.0,0.0,0.0,0.0,0.0,0.0,0.0,0.0,0.0,0.0,0.0,0.0,0.0,0.0,0.0,0.0,0.0,0.0,0.0,0.0,0.0,0.0,0.0,0.0,0.0,0.0,0.0,0.0,0.0,0.0,0.0,0.0,0.0,0.0,0.0,0.0,0.0,0.0,0.0,0.0,0.0,0.0,0.0,0.0,0.0,0.0,0.0,0.0,0.0,0.0,3.8365,3.692,3.5656,3.4902,3.4797,3.5396,3.5468,0.0,0.0,0.0,0.0,0.0,0.0,0.0,0.0,0.0,0.0,0.0,0.0,0.0,0.0,0.0,0.0,0.0,0.0,0.0,0.0,0.0,0.0,0.0,0.0,0.0,0.0,0.0,0.0,0.0,0.0,0.0,0.0,0.0,0.0,0.0,0.0,0.0,0.0,0.0,0.0,0.0,0.0,0.0,0.0,0.0,0.0,0.0,0.0,0.0,0.0,0.0,0.0,0.0,0.0,0.0,0.0,0.0,0.0,0.0,0.0,0.0,0.0,0.0,0.0,0.0,0.0,0.0,0.0,0.0,0.0,0.0,0.0,0.0,0.0,0.0,0.0,0.0,0.0,0.0,0.0,0.0,0.0,0.0,0.0,0.0,0.0,0.0,0.0,0.0,0.0,0.0,0.0,0.0,0.0,0.0,0.0,0.0,0.0,0.0,0.0,0.0,0.0,0.0,0.0,0.0,0.0,0.0,3.9428,3.8347,3.6621,3.5873,3.5152,3.4423,3.5015,3.5139,3.4828,0.0,0.0,0.0,0.0,0.0,0.0,0.0,0.0,0.0,0.0,0.0,0.0,0.0,0.0,0.0,0.0,0.0,0.0,0.0,0.0,0.0,0.0,0.0,0.0,0.0,0.0,0.0,0.0,0.0,0.0,0.0,0.0,0.0,0.0,0.0,0.0,0.0,0.0,3.5442,3.6496,0.0,0.0,0.0,0.0,0.0,0.0,0.0,0.0,3.8618,0.0,0.0,0.0,0.0,0.0,0.0,0.0,0.0,0.0,0.0,0.0,0.0,0.0,0.0,0.0,0.0,0.0,0.0,0.0,0.0,0.0,0.0,0.0,0.0,0.0,0.0,0.0,0.0,0.0,0.0,0.0,0.0,0.0,0.0,0.0,0.0,0.0,0.0,0.0,0.0,0.0,0.0,0.0,0.0,0.0,0.0,0.0,0.0,0.0,0.0,0.0,0.0,0.0,0.0,0.0,0.0,3.8066,3.8305,3.7424,3.5214,3.5047,3.4796,3.4423,3.4766,3.5067,3.5314,0.0,0.0,0.0,0.0,0.0,0.0,0.0,0.0,0.0,0.0,0.0,0.0,0.0,0.0,0.0,0.0,0.0,0.0,0.0,0.0,0.0,0.0,0.0,0.0,0.0,0.0,0.0,0.0,0.0,0.0,0.0,0.0,0.0,0.0,0.0,0.0,0.0,0.0,0.0,3.7405,3.7995,0.0,0.0,0.0,0.0,0.0,0.0,0.0,0.0,3.8138,0.0,0.0,0.0,0.0,0.0,0.0,0.0,0.0,0.0,0.0,0.0,0.0,0.0,0.0,0.0,0.0,0.0,0.0,0.0,0.0,0.0,0.0,0.0,0.0,0.0,0.0,0.0,0.0,0.0,0.0,0.0,0.0,0.0,0.0,0.0,0.0,0.0,0.0,0.0,0.0,0.0,0.0,0.0,0.0,0.0,0.0,0.0,0.0,0.0,0.0,0.0,0.0,0.0,0.0,0.0,3.8455,3.8077,3.7148,3.5542,3.558,3.5457,3.5159,3.5425,3.5794,0.0,0.0,0.0,0.0,0.0,0.0,0.0,0.0,0.0,0.0,0.0,0.0,0.0,0.0,0.0,0.0,0.0,0.0,0.0,0.0,0.0,0.0,0.0,0.0,0.0,0.0,0.0,0.0,0.0,0.0,0.0,0.0,0.0,0.0,0.0,0.0,0.0,0.0,0.0,0.0,3.7684,3.796,3.7053,0.0,0.0,0.0,0.0,0.0,0.0,3.7849,3.8075,0.0,0.0,0.0,0.0,0.0,0.0,0.0,0.0,0.0,0.0,0.0,0.0,0.0,0.0,0.0,0.0,0.0,0.0,0.0,0.0,0.0,0.0,0.0,0.0,0.0,0.0,0.0,0.0,0.0,0.0,0.0,0.0,0.0,0.0,0.0,0.0,0.0,0.0,0.0,0.0,0.0,0.0,0.0,0.0,0.0,0.0,0.0,0.0,0.0,0.0,0.0,0.0,0.0,0.0,0.0,3.9156,3.8226,3.7252,3.6298,3.6298,3.6127,3.5816,3.6192,3.6483,0.0,0.0,0.0,0.0,0.0,0.0,0.0,0.0,0.0,0.0,0.0,0.0,0.0,0.0,0.0,0.0,0.0,0.0,0.0,0.0,0.0,0.0,0.0,0.0,0.0,0.0,0.0,0.0,0.0,0.0,0.0,0.0,0.0,0.0,0.0,0.0,0.0,0.0,0.0,0.0,0.0,3.7657,3.6429,3.7504,0.0,0.0,0.0,0.0,3.8232,3.8002,0.0,0.0,0.0,0.0,0.0,0.0,0.0,0.0,0.0,0.0,0.0,0.0,0.0,0.0,0.0,0.0,0.0,0.0,0.0,0.0,0.0,0.0,0.0,0.0,0.0,0.0,0.0,0.0,0.0,0.0,0.0,0.0,0.0,0.0,0.0,0.0,0.0,0.0,0.0,0.0,0.0,0.0,0.0,0.0,0.0,0.0,0.0,0.0,0.0,0.0,0.0,0.0,0.0,0.0,0.0,0.0,3.9268,3.8519,3.7689,3.6754,3.6462,3.6127,3.5836,3.6418,3.6612,0.0,0.0,0.0,0.0,0.0,0.0,0.0,0.0,0.0,0.0,0.0,0.0,0.0,0.0,0.0,0.0,0.0,0.0,0.0,0.0,0.0,0.0,0.0,0.0,0.0,0.0,0.0,0.0,0.0,0.0,0.0,0.0,0.0,0.0,0.0,0.0,0.0,0.0,0.0,0.0,0.0,3.7573,3.6749,3.7602,3.8202,0.0,0.0,3.8157,3.752,3.7656,0.0,0.0,0.0,0.0,0.0,0.0,0.0,0.0,0.0,0.0,0.0,0.0,0.0,0.0,0.0,0.0,0.0,0.0,0.0,0.0,0.0,0.0,0.0,0.0,0.0,0.0,0.0,0.0,0.0,0.0,0.0,0.0,0.0,0.0,0.0,0.0,0.0,0.0,0.0,0.0,0.0,0.0,0.0,0.0,0.0,0.0,0.0,0.0,0.0,0.0,0.0,0.0,0.0,0.0,0.0,4.0155,3.9737,3.8723,3.7772,3.6905,3.7034,3.6844,3.6197,3.6859,3.7176,0.0,0.0,0.0,0.0,0.0,0.0,0.0,0.0,0.0,0.0,0.0,0.0,0.0,0.0,0.0,0.0,0.0,0.0,0.0,0.0,0.0,0.0,0.0,0.0,0.0,0.0,0.0,0.0,0.0,0.0,0.0,0.0,0.0,0.0,0.0,0.0,0.0,0.0,0.0,0.0,0.0,0.0,3.7183,3.8034,0.0,0.0,0.0,3.8777,3.9601,0.0,0.0,0.0,0.0,0.0,0.0,0.0,0.0,0.0,0.0,0.0,0.0,0.0,0.0,0.0,0.0,0.0,0.0,0.0,0.0,0.0,0.0,0.0,0.0,0.0,0.0,0.0,0.0,0.0,0.0,0.0,0.0,0.0,0.0,0.0,0.0,0.0,0.0,0.0,0.0,0.0,0.0,0.0,0.0,0.0,0.0,0.0,0.0,0.0,0.0,0.0,0.0,0.0,0.0,0.0,0.0,0.0,4.0272,3.9012,3.8066,3.7439,3.7665,3.7445,3.6697,3.7206,0.0,0.0,0.0,0.0,0.0,0.0,0.0,0.0,0.0,0.0,0.0,0.0,0.0,0.0,0.0,0.0,0.0,0.0,0.0,0.0,0.0,0.0,0.0,0.0,0.0,0.0,0.0,3.4364,0.0,0.0,0.0,0.0,0.0,0.0,0.0,0.0,0.0,0.0,0.0,0.0,0.0,0.0,3.8865,3.7562,3.8506,3.909,0.0,0.0,3.9515,4.0383,3.8685,3.7783,0.0,0.0,0.0,0.0,0.0,0.0,0.0,0.0,0.0,0.0,0.0,0.0,0.0,0.0,0.0,0.0,0.0,0.0,0.0,0.0,0.0,0.0,0.0,0.0,0.0,0.0,0.0,0.0,0.0,0.0,0.0,0.0,0.0,0.0,0.0,0.0,0.0,0.0,0.0,0.0,0.0,0.0,0.0,0.0,0.0,0.0,0.0,0.0,0.0,0.0,0.0,0.0,0.0,0.0,0.0,4.077,3.9479,3.8794,3.882,3.8185,3.7571,3.7173,3.7208,3.718,0.0,0.0,0.0,0.0,0.0,0.0,0.0,0.0,0.0,0.0,0.0,0.0,0.0,0.0,0.0,0.0,0.0,0.0,0.0,0.0,0.0,0.0,0.0,0.0,0.0,0.0,0.0,0.0,0.0,0.0,0.0,0.0,0.0,0.0,0.0,0.0,0.0,0.0,0.0,0.0,0.0,3.8462,3.7932,3.893,3.9068,0.0,0.0,4.0081,3.7946,3.7183,3.7126,3.7934,0.0,0.0,0.0,0.0,0.0,0.0,0.0,0.0,0.0,0.0,0.0,0.0,0.0,0.0,0.0,0.0,0.0,0.0,0.0,0.0,0.0,0.0,0.0,0.0,0.0,0.0,0.0,0.0,0.0,0.0,0.0,0.0,0.0,0.0,0.0,0.0,0.0,0.0,0.0,0.0,0.0,0.0,0.0,0.0,0.0,0.0,0.0,0.0,0.0,0.0,0.0,0.0,0.0,4.0548,4.1012,3.986,3.9065,3.8636,3.8367,3.7922,3.7261,3.749,3.7565,0.0,0.0,0.0,0.0,0.0,0.0,0.0,0.0,0.0,0.0,0.0,0.0,0.0,0.0,0.0,0.0,0.0,0.0,0.0,0.0,0.0,0.0,0.0,0.0,0.0,0.0,0.0,0.0,3.3837,3.4002,3.4509,0.0,0.0,0.0,0.0,0.0,0.0,0.0,0.0,0.0,0.0,3.8235,3.7634,3.8177,0.0,0.0,3.8276,3.9065,3.8945,3.8141,3.7981,3.9236,3.9685,0.0,0.0,0.0,0.0,0.0,0.0,0.0,0.0,0.0,0.0,0.0,0.0,0.0,0.0,0.0,0.0,0.0,0.0,0.0,0.0,0.0,0.0,0.0,0.0,0.0,0.0,0.0,0.0,0.0,0.0,0.0,0.0,0.0,0.0,0.0,0.0,0.0,0.0,0.0,0.0,0.0,0.0,0.0,0.0,0.0,0.0,0.0,0.0,0.0,0.0,0.0,0.0,4.0675,4.1147,4.0034,3.9202,3.8668,3.8564,3.8114,3.7358,3.7551,3.7634,0.0,0.0,0.0,0.0,0.0,0.0,0.0,0.0,0.0,0.0,0.0,0.0,0.0,0.0,0.0,0.0,0.0,0.0,0.0,0.0,0.0,0.0,0.0,0.0,0.0,0.0,0.0,0.0,3.3852,3.4079,3.4533,0.0,0.0,0.0,0.0,0.0,0.0,0.0,0.0,0.0,0.0,3.7858,3.7212,3.7877,3.822,3.7532,3.822,3.9017,3.9434,3.8657,3.8383,3.9335,0.0,0.0,0.0,0.0,0.0,0.0,0.0,0.0,0.0,0.0,0.0,0.0,0.0,0.0,0.0,0.0,0.0,0.0,0.0,0.0,0.0,0.0,0.0,0.0,0.0,0.0,0.0,0.0,0.0,0.0,3.6519,0.0,0.0,0.0,0.0,0.0,0.0,0.0,0.0,0.0,0.0,0.0,0.0,0.0,0.0,0.0,0.0,0.0,0.0,0.0,0.0,0.0,0.0,4.0805,4.1183,3.9848,3.9149,3.9152,3.8739,3.8164,3.7427,3.7372,3.7179,3.6775,0.0,0.0,0.0,0.0,0.0,0.0,0.0,0.0,0.0,0.0,0.0,0.0,0.0,0.0,0.0,0.0,0.0,0.0,0.0,0.0,0.0,0.0,0.0,0.0,0.0,0.0,3.5237,3.4705,3.417,0.0,0.0,0.0,0.0,0.0,0.0,0.0,0.0,0.0,0.0,3.7888,3.7219,3.6713,3.837,3.904,3.757,3.9374,4.0432,3.888,3.837,3.7965,0.0,0.0,0.0,0.0,0.0,0.0,0.0,0.0,0.0,0.0,0.0,0.0,0.0,0.0,0.0,0.0,0.0,0.0,0.0,0.0,0.0,0.0,0.0,0.0,0.0,0.0,0.0,3.7026,3.635,0.0,0.0,0.0,0.0,0.0,0.0,0.0,0.0,0.0,0.0,0.0,3.8309,3.8698,0.0,0.0,0.0,0.0,0.0,0.0,0.0,0.0,0.0,0.0,0.0,0.0,4.1193,4.127,4.0155,3.9294,3.8812,3.8384,3.7943,3.7413,3.7377,3.7223,3.6787,0.0,0.0,0.0,0.0,0.0,0.0,0.0,0.0,0.0,0.0,0.0,0.0,0.0,0.0,0.0,0.0,0.0,0.0,0.0,0.0,0.0,0.0,0.0,0.0,0.0,3.5264,0.0,0.0,0.0,0.0,0.0,0.0,0.0,0.0,0.0,0.0,0.0,3.7,3.761,3.7048,3.6487,3.6272,3.6605,3.6689,0.0,0.0,0.0,0.0,0.0,0.0,0.0,0.0,0.0,0.0,0.0,0.0,0.0,0.0,4.111,4.1766,4.114,4.0658,4.1183,0.0,0.0,0.0,0.0,0.0,0.0,0.0,0.0,0.0,0.0,0.0,0.0,0.0,0.0,3.7262,0.0,3.659,0.0,0.0,0.0,0.0,0.0,0.0,0.0,0.0,3.8909,3.8936,3.8745,3.8926,3.9103,0.0,3.9231,3.9535,0.0,0.0,0.0,0.0,0.0,0.0,0.0,0.0,4.1193,4.1395,4.0201,3.9353,3.8821,3.8284,3.7726,3.7147,3.6606,3.6181,3.5925,3.5446,3.5284,0.0,0.0,0.0,0.0,0.0,0.0,0.0,0.0,0.0,0.0,0.0,0.0,0.0,0.0,0.0,0.0,0.0,0.0,0.0,0.0,0.0,0.0,0.0,3.5207,0.0,0.0,0.0,0.0,0.0,0.0,0.0,0.0,0.0,3.6968,3.6145,3.5761,3.6511,3.601,3.5702,3.5999,0.0,0.0,0.0,0.0,0.0,0.0,0.0,3.897,3.9101,3.8764,3.8343,3.7636,3.8417,3.9175,3.9312,0.0,0.0,4.0501,3.9934,3.9468,3.9966,4.0395,4.077,4.1036,4.1208,4.1383,0.0,0.0,0.0,0.0,0.0,0.0,0.0,0.0,3.7763,3.7317,0.0,3.6978,0.0,0.0,0.0,0.0,0.0,3.9592,0.0,0.0,3.9245,3.9254,3.9551,3.9222,3.9044,3.9064,3.9486,3.9681,3.9592,3.9478,0.0,0.0,0.0,0.0,0.0,0.0,4.0787,4.1394,3.9957,3.9183,3.9089,3.8329,3.7526,3.6644,3.5152,3.4385,3.4329,3.435,3.4046,3.3344,3.4293,0.0,0.0,0.0,0.0,0.0,0.0,0.0,0.0,0.0,0.0,0.0,0.0,0.0,0.0,0.0,0.0,0.0,0.0,0.0,0.0,3.4721,0.0,0.0,0.0,0.0,0.0,0.0,0.0,0.0,0.0,0.0,3.5422,3.5445,3.535,3.5359,0.0,0.0,0.0,0.0,3.6801,3.8088,3.8683,3.8994,3.9463,3.8848,3.7959,3.6789,0.0,0.0,3.565,3.7437,3.8935,3.9409,3.8892,3.8599,3.9012,3.9298,3.9468,3.9563,3.9944,4.0262,4.032,4.065,4.1111,3.947,0.0,0.0,0.0,0.0,3.8721,3.8815,3.8641,3.8586,3.8274,3.778,3.7557,0.0,0.0,0.0,0.0,0.0,0.0,4.0738,4.018,4.0375,4.0233,3.9745,3.9934,4.0,4.002,3.9899,3.9657,3.9334,3.9271,3.9885,4.108,0.0,0.0,0.0,0.0,4.051,3.9826,3.9109,3.8322,3.7431,3.7219,3.668,3.5867,3.512,3.4718,3.4718,3.3918,3.391,3.4728,3.3291,0.0,0.0,0.0,0.0,0.0,0.0,0.0,0.0,0.0,0.0,0.0,0.0,0.0,0.0,0.0,0.0,0.0,0.0,0.0,3.4726,3.4845,3.4925,0.0,0.0,0.0,0.0,0.0,0.0,0.0,0.0,0.0,3.4743,3.4851,3.5105,0.0,0.0,3.5238,3.5756,3.5378,3.521,3.5588,3.5462,0.0,3.7029,3.724,3.7205,3.7072,3.58,3.4952,3.5424,3.5746,3.6299,3.747,3.753,3.758,3.834,3.8154,3.8252,3.8969,3.9516,3.9892,4.0191,4.0347,4.0589,4.0663,3.8849,3.8586,3.8577,3.8823,3.9141,3.9267,3.9191,3.9136,3.8924,3.8555,3.8269,3.8425,3.8972,4.0009,0.0,0.0,0.0,4.1551,4.0881,4.1033,4.0816,4.0345,4.0415,4.0458,4.042,4.0427,3.9987,3.9164,3.9185,3.9583,4.0323,0.0,0.0,4.0769,4.0315,3.9952,3.9643,3.8786,3.7988,3.7243,3.656,3.5891,3.5237,3.4688,3.4451,3.4561,3.376,3.3621,3.4412,3.2891,3.2322,0.0,0.0,0.0,0.0,0.0,0.0,0.0,0.0,0.0,0.0,0.0,3.1785,3.219,0.0,0.0,0.0,3.3127,3.3812,3.4899,3.4791,0.0,0.0,0.0,0.0,0.0,0.0,0.0,3.4493,3.4237,3.406,3.4073,3.4278,3.4615,3.5061,3.4862,3.4874,3.5433,0.0,3.4293,3.4626,3.4278,3.446,3.5831,3.5939,3.587,3.587,3.5033,3.4437,3.4644,3.4777,3.5222,3.619,3.7017,3.7865,3.8679,3.8784,3.8682,3.8711,3.9081,3.9476,3.9873,4.0029,4.0418,4.1953,4.0827,4.0626,4.0449,4.0241,3.9879,3.9683,3.9626,3.9626,3.9433,3.9155,3.9155,3.9469,4.0076,4.1257,0.0,4.2373,4.2373,4.2118,4.1712,4.1373,4.1218,4.1181,4.0779,4.0607,4.0568,4.0958,4.0473,3.9242,3.9182,3.8964,3.8515,3.8492,3.8892,3.9512,3.89,3.9084,4.013,3.866,3.7899,3.7934,3.6327,3.5273,3.4907,3.405,3.375,3.4057,3.3694,3.3371,3.3039,3.2919,3.2301,3.1289,0.0,0.0,0.0,0.0,0.0,0.0,0.0,0.0,0.0,0.0,0.0,0.0,0.0,0.0,0.0,3.2687,0.0,3.4648,3.4345,0.0,0.0,0.0,3.3427,3.2982,3.3197,3.3395,3.3384,0.0,0.0,3.3411,3.375,3.4001,3.4002,3.3962,3.4187,3.4879,3.4215,3.3942,3.4608,3.4412,3.4487,3.5257,3.497,3.4514,3.4147,3.383,3.3965,3.4057,3.459,3.5243,3.5761,3.7242,3.8696,3.9448,4.0251,4.0584,3.8851,3.8959,3.9374,3.9739,4.0149,4.0772,4.2215,4.1923,4.1859,4.1216,4.0294,4.0884,4.0889,4.0572,4.0551,4.0516,4.0445,4.0445,4.0925,4.1739,4.2332,4.269,4.285,4.285,4.2797,4.2721,4.2285,4.2091,4.2091,4.1674,4.1297,4.0977,4.0712,4.0092,3.9142,3.9135,3.8599,3.762,3.7859,3.7975,3.7924,3.8006,3.7882,3.7509,3.7137,3.7095,3.7349,3.6357,3.5734,3.565,3.4426,3.3798,3.3877,3.3229,3.2916,3.3049,3.2026,3.1526,3.1768,3.1808,0.0,0.0,0.0,0.0,0.0,0.0,0.0,0.0,0.0,3.2016,3.241,0.0,3.2751,0.0,3.2778,3.2487,3.2407,3.2468,0.0,0.0,3.3323,3.3526,3.3079,3.3661,3.4018,3.3935,3.379,3.3665,3.3632,3.3359,3.3216,3.3354,3.3861,3.4216,3.4018,3.3487,3.3182,3.3348,3.3274,3.3244,3.378,3.4352,3.4721,3.4622,3.494,3.524,3.5225,3.5368,3.5824,3.6562,3.7098,3.7931,3.9237,3.9873,4.0222,4.0151,4.0637,4.1063,4.1149,4.1258,4.1625,4.3508,4.3487,4.3301,4.2725,4.2042,4.1917,4.1767,4.154,4.1519,4.154,4.156,4.1954,4.2188,4.2402,4.3151,4.3449,4.3344,4.3305,4.3216,4.3081,4.2823,4.2387,4.1819,4.1577,4.1133,4.0465,4.0425,3.9933,3.9112,3.9091,3.8571,3.756,3.7715,3.7532,3.702,3.7175,3.7118,3.6834,3.6622,3.649,3.6317,3.5814,3.5479,3.5268,3.4509,3.4276,3.4604,3.4218,3.3947,3.3948,3.3183,3.2647,3.2565,3.2596,3.251,0.0,0.0,0.0,0.0,0.0,0.0,0.0,0.0,0.0,0.0,0.0,3.2415,3.3135,3.2788,3.2422,3.227,3.2263,3.2323,3.2366,3.2692,3.2728,3.2352,3.3026,3.3441,3.3278,3.3511,3.3572,3.3325,3.3256,3.3145,3.2907,3.3478,3.383,3.3487,3.322,3.3032,3.2797,3.2713,3.2769,3.3139,3.3925,3.4593,3.4707,3.4992,3.5278,3.5652,3.5729,3.6002,3.693,3.7511,3.819,3.9415,4.0222,4.074,4.1307,4.169,4.1986,4.2073,4.2087,4.2427,4.5041,4.496,4.4546,4.4401,4.4298,4.3156,4.2575,4.2472,4.2534,4.2555,4.2596,4.3391,4.3303,4.2788,4.379,4.4117,4.3779,4.366,4.34,4.3078,4.2899,4.2274,4.1232,4.1153,4.0644,3.9878,4.0201,3.9951,3.917,3.9157,3.8779,3.8038,3.7936,3.7573,3.6803,3.6601,3.6643,3.6895,3.6711,3.6274,3.5522,3.5437,3.5209,3.4843,3.4673,3.4912,3.5553,3.5526,3.5328,3.4925,3.4791,3.4205,3.3056,3.3456,3.3311,0.0,3.2949,0.0,0.0,0.0,0.0,0.0,0.0,0.0,0.0,3.1086,3.1463,3.2372,3.2575,3.264,3.2674,3.2569,3.2354,3.2047,3.1981,3.1794,3.1595,3.2178,3.258,3.2431,3.3004,3.3285,3.3113,3.334,3.3305,3.2973,3.3209,3.3461,3.3377,3.333,3.3068,3.275,3.2741,3.304,3.3437,3.3906,3.436,3.4569,3.4751,3.4942,3.5692,3.5884,3.6155,3.6901,3.7795,3.8733,3.9706,4.0522,4.1301,4.1799,4.2014,4.2196,4.2438,4.2484,4.3011,4.5041,4.4981,4.4898,4.4857,4.4836,4.4588,4.4049,4.3387,4.376,4.3905,4.3908,4.4095,4.429,4.4478,4.4381,4.424,4.4132,4.3375,4.3013,4.2922,4.1871,4.1616,4.1928,4.1275,4.0824,4.0571,4.027,3.9896,3.9435,3.9417,3.9137,3.8632,3.8612,3.8366,3.7788,0.0,0.0,0.0,3.6915,3.7268,3.7047,3.6698,3.648,3.6349,3.562,0.0,3.5059,3.4694,3.4432,3.4329,3.372,0.0,0.0,0.0,0.0,0.0,0.0,0.0,0.0,0.0,0.0,0.0,3.1797,3.181,3.1562,3.1547,3.158,3.17,3.1409,3.1157,3.1089,3.0935,3.1089,3.155,3.1808,3.213,3.2673,3.3121,3.3476,3.3627,3.3644,3.3717,3.3849,3.367,3.3529,3.3598,3.3728,3.3779,3.3765,3.3399,3.3098,3.3227,3.34,3.3731,3.405,3.4517,3.4752,3.5023,3.5341,3.5646,3.5854,3.6274,3.6514,3.6882,3.7323,3.8072,3.8825,3.9347,4.0031,4.0885,4.1324,4.1656,4.2196,4.2377,4.2691,4.5588,4.5934,4.5281,4.5382,0.0,4.5519,4.5457,4.5581,4.4919,4.4512,4.4319,4.4534,4.4541,4.4361,4.409,4.3945,4.3852,4.3136,4.29,4.3075,4.2456,4.1996,4.1758,4.1342,4.0798,4.0158,3.9955,3.9691,3.9515,3.9515,3.9382,3.9144,3.9144,3.9028,3.8763,3.7768,3.6781,3.5784,3.6383,3.6604,3.632,3.6069,3.5846,3.5578,3.5146,0.0,0.0,0.0,0.0,0.0,0.0,0.0,0.0,3.2412,0.0,3.1797,3.1989,3.1946,3.151,3.1623,3.1532,3.1105,3.1422,3.169,3.1786,3.2027,3.1916,3.1313,3.145,3.1409,3.098,3.1095,3.1423,3.1955,3.2286,3.268,3.3173,3.3656,3.3863,3.3954,3.4082,3.42,3.4247,3.402,3.3921,3.4055,3.3975,3.3948,3.4042,3.3721,3.3467,3.339,3.3534,3.3694,3.3828,3.402,3.4436,3.4676,3.513,3.5716,3.6303,3.681,3.726,3.7532,3.784,3.8244,3.889,3.9169,3.9633,4.0599,4.103,4.1363,4.1932,4.2268,4.272,4.6332,4.6681,4.586,4.5963,4.6722,4.6265,4.6617,4.7464,0.0,0.0,0.0,4.4563,4.4295,4.385,4.3637,4.36,4.354,4.3012,4.2897,4.3152,4.29,4.2291,4.1362,4.1221,4.0673,3.972,3.9703,3.9755,3.9806,3.9806,3.984,3.9847,3.973,3.9418,3.9043,3.8235,3.7169,3.5836,3.5801,3.5618,3.5227,3.5227,3.5046,3.4637,3.4546,3.4336,3.4008,3.3903,3.3546,3.2924,3.3158,3.3302,3.3107,3.309,3.3028,3.2878,3.2603,3.2086,3.1367,3.1526,3.1386,3.0753,3.1156,3.1541,3.1786,3.2231,3.2139,3.1272,3.1966,3.2158,3.1557,3.2011,3.2452,3.2808,3.3049,3.3253,3.3571,3.3939,3.4148,3.4127,3.4385,3.4609,3.4481,3.4416,3.4402,3.4376,3.4229,3.4108,3.4295,3.4135,3.3855,3.3681,3.3748,3.3721,3.3681,3.3801,3.3935,3.4494,3.4909,3.5458,3.6392,3.712,3.7695,3.795,3.8321,3.8678,3.9166,3.9247,3.9631,4.061,4.0867,4.1052,4.1561,4.2141,4.267,4.6803,4.5958,4.6907,4.6741,4.5938,4.6989,4.7319,4.7004,4.603,4.571,4.5817,4.3653,4.3337,4.4452,4.376,4.3586,4.3811,4.3305,4.2884,4.2554,4.1493,4.1056,4.1206,4.0524,4.0262,4.0457,4.0429,4.0601,4.0937,4.0955,4.108,4.1244,4.0553,3.923,3.7537,3.7317,3.6748,3.5735,3.5761,3.5726,3.5624,3.5624,3.5578,3.5486,3.5059,3.465,3.4351,3.3883,3.3581,3.3492,3.3799,3.3591,3.276,3.2967,3.2733,3.1995,3.186,3.1752,3.1658,3.1699,3.1739,3.1851,3.2219,3.208,3.1376,3.1618,3.1867,3.1933,3.2356,3.2616,3.2719,3.3013,3.3334,3.3678,3.3734,3.3881,3.4148,3.424,3.4398,3.4628,3.4747,3.4906,3.5029,3.487,3.475,3.4775,3.4696,3.4708,3.4616,3.4456,3.4255,3.4242,3.4416,3.4601,3.4507,3.4776,3.4857,3.5057,3.5149,3.5333,3.5653,3.6575,3.7191,3.7187,3.8028,3.8603,3.8899,3.8905,3.9266,3.9912,4.0338,4.0727,4.1079,4.1589,4.2121,4.7153,4.6781,4.6672,4.6522,4.6476,4.7587,4.7543,4.6543,4.5652,4.5187,4.4935,4.331,4.284,4.3236,4.28,4.264,4.2793,4.2502,4.2215,4.2041,4.1453,4.1286,4.1423,4.1097,4.1029,4.1183,4.1183,4.1286,4.144,4.1457,4.1263,4.0855,4.0002,3.8878,3.7503,3.7526,3.7042,3.5943,3.5812,3.5733,3.5695,3.5412,3.5271,3.5271,3.4751,3.4215,3.3632,3.3493,3.3224,3.2821,3.3219,3.3277,3.2845,3.307,3.3087,3.2661,3.2612,3.2612,3.2612,3.2612,3.2679,3.2812,3.3093,3.3106,3.2706,3.2639,3.2692,3.2812,3.3093,3.337,3.3467,3.3734,3.4028,3.4336,3.4362,3.4482,3.4736,3.479,3.4857,3.499,3.5137,3.5284,3.5418,3.5458,3.5524,3.5524,3.5351,3.5137,3.483,3.4803,3.467,3.4416,3.4442,3.4509,3.4549,3.4763,3.499,3.5164,3.5602,3.591,3.6151,3.7044,3.7667,3.784,3.8475,3.9012,3.915,3.9218,3.9427,3.9882,4.0195,4.0547,4.1004,4.138,4.1746,4.7745,4.7769,4.7067,4.712,4.764,4.8053,4.7478,4.6229,4.5089,4.4247,4.3614,4.2616,4.2116,4.2064,4.1922,4.1923,4.1989,4.1924,4.1971,4.1953,4.1868,4.1834,4.1816,4.1748,4.165,4.151,4.151,4.1514,4.1489,4.1365,4.0788,3.9799,3.926,3.8481,3.7523,3.7806,3.7442,3.65,3.6104,3.5822,3.5618,3.5169,3.4955,3.4895,3.4422,3.3824,3.3263,3.3295,3.3016,3.2487,3.2906,3.3187,3.3236,3.3454,3.3614,3.3614,3.3614,3.3614,3.3614,3.3614,3.3614,3.3627,3.3908,3.4133,3.4068,3.4002,3.3777,3.3694,3.3895,3.4082,3.4135,3.4416,3.471,3.4937,3.5069,3.5217,3.5351,3.5391,3.5391,3.5418,3.5591,3.5725,3.5765,3.5872,3.5912,3.5859,3.5765,3.5458,3.5151,3.5257,3.5164,3.487,3.467,3.4683,3.4629,3.4897,3.5177,3.5378,3.5911,3.6328,3.6665,3.75,3.8197,3.8262,3.8825,3.9223,3.9441,3.948,3.9664,3.9976,4.0174,4.0498,4.1081,4.1281,4.1489,4.8989,4.8551,4.9404,4.9774,4.9316,4.823,4.7201,4.6143,4.4359,4.3006,4.2246,4.0837,4.0912,4.1637,4.1728,4.1935,4.2214,4.2553,4.2659,4.2608,4.2381,4.2227,4.2176,4.1868,4.1417,4.1076,4.1046,4.1043,4.0869,4.0361,3.9596,3.8521,3.8614,3.8237,3.7336,3.753,3.7576,3.7446,3.6897,3.6213,3.5376,3.527,3.5153,3.4877,3.4458,3.4145,3.3991,3.362,3.337,3.332,3.3627,3.3801,3.3841,3.4082,3.4229,3.4229,3.4242,3.4242,3.4242,3.4191,3.4242,3.4255,3.4523,3.4748,3.4775,3.5137,3.507,3.4523,3.4536,3.4748,3.4762,3.5164,3.5458,3.5498,3.5725,3.5965,3.5939,3.6046,3.5992,3.6046,3.5992,3.6086,3.6019,3.5912,3.5711,3.5819,3.5778,3.5805,3.5859,3.5939,3.5979,3.5845,3.5685,3.5511,3.5498,3.5752,3.5872,3.6019,3.606,3.6261,3.6477,3.6856,3.7219,3.8166,3.8551,3.9062,3.9422,3.9524,3.9568,3.9801,4.0092,4.0482,4.0998,4.1195,4.129,4.9926,4.9586,4.9573,4.9154,4.8422,4.7534,4.6809,4.605,4.4367,4.3251,4.2566,4.1493,4.1166,4.1405,4.1851,4.2022,4.1971,4.2347,4.2399,4.2176,4.2022,4.2056,4.2262,4.2142,4.1859,4.1605,4.1622,4.1376,4.0789,3.994,3.9176,3.8733,3.85,3.8123,3.7746,3.7987,3.7906,3.7395,3.6952,3.6295,3.5517,3.5235,3.5142,3.5,3.4521,3.4267,3.428,3.4211,3.4215,3.4229,3.4496,3.4656,3.4656,3.4776,3.4843,3.4843,3.4843,3.4843,3.4843,3.499,3.5044,3.5097,3.5364,3.5591,3.5591,3.5765,3.5725,3.5458,3.5471,3.5538,3.5605,3.5765,3.5899,3.5912,3.6006,3.6126,3.6126,3.6126,3.6126,3.6086,3.6219,3.6326,3.634,3.638,3.6272,3.6233,3.6259,3.638,3.6353,3.6473,3.658,3.6567,3.6473,3.6246,3.6019,3.6139,3.6299,3.6353,3.6473,3.658,3.6663,3.7401,3.8111,3.83,3.8938,3.9495,4.0055,4.0095,4.0095,4.0105,4.0134,4.0512,4.0728,4.0887,4.0959,5.0665,5.06,4.9632,4.8633,4.767,4.6741,4.6204,4.575,4.4288,4.3367,4.2876,4.2266,4.1991,4.1897,4.2159,4.2125,4.1936,4.2262,4.2296,4.1992,4.1881,4.2038,4.2332,4.2206,4.2073,4.1989,4.1731,4.1228,4.032,3.9443,3.8827,3.862,3.8308,3.8061,3.8156,3.8382,3.8158,3.748,3.7097,3.657,3.5935,3.5537,3.5335,3.5202,3.4891,3.471,3.4803,3.5004,3.5176,3.5176,3.5324,3.5431,3.5431,3.5431,3.5444,3.5431,3.5431,3.5431,3.5444,3.5631,3.5752,3.5765,3.5965,3.6126,3.6099,3.6219,3.6299,3.6299,3.6446,3.65,3.6206,3.6193,3.6219,3.6286,3.6299,3.6313,3.6326,3.6313,3.6326,3.6326,3.6513,3.662,3.6647,3.6712,3.6794,3.666,3.678,3.6887,3.67,3.6739,3.6859,3.6885,3.6872,3.6767,3.6406,3.6473,3.6607,3.666,3.6739,3.6819,3.6885,3.7756,3.8362,3.8086,3.9213,3.9735,3.958,3.9801,4.0118,4.0242,4.0351,4.0446,4.0565,4.0675,4.0788,5.1322,5.1486,5.0175,4.9046,4.8008,4.6212,4.5405,4.5388,4.3882,4.2957,4.2679,4.2865,4.3084,4.3221,4.269,4.2313,4.2364,4.2642,4.2731,4.2601,4.2265,4.2275,4.2515,4.2093,4.1768,4.1635,4.1123,4.014,3.8726,3.8504,3.8186,3.7723,3.8024,3.8104,3.8229,3.8404,3.8376,3.7948,3.7445,3.7097,3.6732,3.6275,3.5819,3.5618,3.5551,3.5645,3.5899,3.6046,3.6046,3.5992,3.6033,3.6006,3.6073,3.606,3.6046,3.606,3.606,3.6019,3.6006,3.6032,3.6046,3.6059,3.6193,3.6167,3.6233,3.6633,3.6887,3.6845,3.7315,3.7315,3.6714,3.6607,3.666,3.6779,3.6832,3.6887,3.6819,3.6752,3.6832,3.6805,3.6695,3.6653,3.679,3.6872,3.6817,3.679,3.6872,3.6859,3.6845,3.6859,3.6885,3.6885,3.6885,3.6872,3.6832,3.6821,3.6805,3.6819,3.6819,3.6885,3.6885,3.6996,3.7383,3.7715,3.8211,3.8596,3.8706,3.8967,3.9256,3.9585,4.0092,4.0311,4.049,4.049,4.062,5.199,5.1245,5.0762,4.9604,4.7996,4.6345,4.5453,4.508,4.3615,4.3171,4.3441,4.3597,4.3795,4.4094,4.3837,4.3521,4.3211,4.2857,4.2612,4.2504,4.2275,4.2309,4.236,4.2179,4.1932,4.1533,4.0985,3.9992,3.8768,3.8552,3.8516,3.8537,3.8617,3.8778,3.8915,3.8715,3.8354,3.7893,3.7166,3.6688,3.6423,3.5993,3.5899,3.6166,3.6006,3.5965,3.6126,3.6126,3.6126,3.6126,3.6126,3.6126,3.6126,3.6126,3.6126,3.6126,3.6126,3.6126,3.614,3.6246,3.6353,3.638,3.6714,3.6887,3.6967,3.7261,3.7502,3.7542,3.7649,3.7676,3.7662,3.7462,3.7301,3.7235,3.7221,3.7141,3.6981,3.6885,3.6775,3.6442,3.6109,3.5831,3.5887,3.5831,3.5943,3.6331,3.6387,3.6553,3.683,3.6885,3.6885,3.6885,3.6885,3.6885,3.6885,3.6872,3.6872,3.6872,3.6885,3.6885,3.6885,3.7217,3.7604,3.7659,3.7825,3.8101,3.8472,3.8596,3.8816,3.9256,3.9804,4.0037,4.0435,4.0202,4.0366,5.2415,5.1248,5.065,4.9652,4.8156,4.655,4.5813,4.5544,4.4531,4.4281,4.4579,4.4478,4.4536,4.4578,4.4342,4.406,4.3656,4.3088,4.2639,4.2311,4.2179,4.2145,4.2194,4.2044,4.1876,4.1587,4.0866,3.9923,3.8974,3.8744,3.8865,3.9158,3.9187,3.9131,3.916,3.88,3.8308,3.7637,3.7042,3.6693,3.6515,3.6299,3.642,3.6821,3.674,3.654,3.638,3.6446,3.6541,3.65,3.65,3.6446,3.6366,3.6353,3.6353,3.6366,3.646,3.6555,3.6527,3.6767,3.6941,3.6941,3.7275,3.7515,3.7542,3.7796,3.7929,3.7969,3.8076,3.821,3.8303,3.821,3.7983,3.7716,3.7582,3.7408,3.7128,3.7088,3.6757,3.6191,3.5665,3.5275,3.5164,3.522,3.5442,3.5776,3.5776,3.6054,3.6498,3.6664,3.6719,3.6885,3.6885,3.6885,3.6885,3.6885,3.6885,3.6885,3.6885,3.6885,3.6941,3.7328,3.7549,3.7604,3.777,3.7977,3.8197,3.8321,3.8596,3.8981,3.9201,3.9366,3.9654,3.9818,3.9928,5.264,5.1524,5.0022,4.9206,4.8393,4.6785,4.64,4.6579,4.6438,4.5898,4.5587,4.5359,4.5069,4.4836,4.4279,4.3786,4.3681,4.3338,4.2857,4.2293,4.1878,4.1907,4.2131,4.1775,4.163,4.168,4.0718,3.9799,3.9088,3.9026,3.9187,3.9465,3.947,3.9179,3.8669,3.8594,3.8154,3.7564,3.7278,3.7276,3.74,3.7288,3.7395,3.7689,3.7689,3.7435,3.6912,3.7195,3.7315,3.7328,3.7328,3.7221,3.6925,3.6885,3.6941,3.6925,3.7195,3.7342,3.7368,3.7569,3.7662,3.7689,3.7782,3.7823,3.7863,3.809,3.8263,3.829,3.842,3.862,3.862,3.8593,3.8446,3.8277,3.7956,3.7702,3.7419,3.7326,3.7009,3.6128,3.5451,3.5177,3.5164,3.4997,3.4997,3.5108,3.522,3.5442,3.5998,3.6165,3.6387,3.6719,3.6885,3.6885,3.6885,3.6885,3.6885,3.6885,3.6885,3.6885,3.6885,3.7107,3.7162,3.7217,3.7217,3.7439,3.748,3.7659,3.788,3.8225,3.8431,3.8816,3.9036,3.9256,3.9311,5.3434,5.1638,5.0969,4.959,4.7991,4.6646,4.6059,4.5844,4.5558,4.5528,4.5614,4.5192,4.5344,4.5708,4.5056,4.4433,4.4065,4.3676,4.3097,4.2461,4.224,4.2185,4.2278,4.2382,4.2037,4.1346,4.0626,3.9934,3.944,3.9295,3.9524,3.9734,3.9401,3.9315,3.9161,3.8481,3.7977,3.7962,3.7559,3.7469,3.7649,3.7676,3.7729,3.7796,3.7809,3.7716,3.7569,3.7635,3.7676,3.7676,3.7689,3.7635,3.7555,3.7542,3.7486,3.7555,3.7622,3.7689,3.7689,3.7769,3.7836,3.7863,3.801,3.8116,3.8157,3.841,3.8571,3.8513,3.8316,3.8195,3.8544,3.8311,3.8121,3.829,3.817,3.7839,3.7076,3.6387,3.5781,3.5409,3.4737,3.4299,3.4238,3.4152,3.4265,3.4532,3.4644,3.4855,3.5356,3.5841,3.6109,3.6331,3.6553,3.6799,3.6741,3.6767,3.6865,3.6854,3.687,3.6885,3.6885,3.6885,3.6885,3.6885,3.6885,3.6885,3.6941,3.7107,3.7383,3.7618,3.7991,3.8321,3.8582,3.8692,3.8651,5.4038,5.2604,5.1845,5.0615,4.8965,4.7821,4.6876,4.6223,4.6298,4.6366,4.6234,4.5868,4.5786,4.6009,4.5345,4.4581,4.3905,4.3712,4.3293,4.2807,4.2612,4.258,4.2544,4.2561,4.2093,4.1263,4.0612,4.0101,3.9685,3.9485,3.9537,3.969,3.923,3.895,3.9067,3.8404,3.8042,3.8077,3.7711,3.7689,3.7916,3.7983,3.8036,3.813,3.8157,3.8157,3.8157,3.8193,3.821,3.8036,3.7983,3.7929,3.7836,3.7796,3.7809,3.7836,3.7916,3.7983,3.7996,3.8103,3.8157,3.8197,3.833,3.8424,3.8491,3.8704,3.8735,3.8338,3.8126,3.7964,3.793,3.7671,3.7567,3.77,3.7976,3.7671,3.6805,3.5794,3.5216,3.4983,3.4485,3.407,3.3883,3.3867,3.3847,3.4174,3.423,3.4456,3.5032,3.5438,3.5694,3.5974,3.6276,3.6471,3.6531,3.666,3.6788,3.6807,3.6812,3.687,3.6885,3.6885,3.6885,3.6885,3.6885,3.6885,3.6941,3.6941,3.7107,3.7328,3.7494,3.7604,3.7756,3.7811,3.7935,5.4357,5.4037,5.2509,5.1543,5.082,4.9653,4.8436,4.7649,4.8206,4.8001,4.7294,4.6633,4.6286,4.5708,4.5086,4.4372,4.3619,4.365,4.365,4.347,4.3226,4.3015,4.283,4.2317,4.1696,4.1203,4.0632,4.0231,3.9932,3.9553,3.9273,3.9547,3.9038,3.8612,3.8472,3.8318,3.8118,3.7909,3.7836,3.7983,3.8263,3.8388,3.8437,3.8646,3.8758,3.8771,3.8798,3.89,3.8878,3.8437,3.841,3.829,3.7996,3.7889,3.7983,3.7969,3.8157,3.829,3.8428,3.8544,3.8731,3.8758,3.8744,3.8758,3.8838,3.8855,3.8687,3.8146,3.7996,3.7716,3.7133,3.6835,3.681,3.683,3.7199,3.7084,3.6474,3.5613,3.5148,3.4971,3.4578,3.4209,3.4197,3.4161,3.417,3.417,3.4215,3.4476,3.4819,3.5124,3.5395,3.5655,3.5964,3.6165,3.6315,3.671,3.6827,3.693,3.6939,3.703,3.6952,3.6912,3.6885,3.6885,3.6912,3.6899,3.6885,3.6885,3.6885,3.7051,3.7051,3.6941,3.6996,3.7217,3.7439,5.4121,5.2138,5.1771,5.1145,5.0323,4.9093,4.861,4.8505,4.7931,4.7505,4.6655,4.5745,4.5676,4.5682,4.4999,4.457,4.4525,4.4518,4.4566,4.4496,4.3996,4.3456,4.2897,4.1996,4.1457,4.1271,4.0907,4.0566,4.0034,3.9785,3.968,3.9546,3.8807,3.8485,3.8508,3.8154,3.8033,3.816,3.8143,3.829,3.8571,3.8798,3.8886,3.898,3.9239,3.9346,3.9372,3.9439,3.9439,3.9279,3.9252,3.9105,3.874,3.87,3.862,3.8531,3.8557,3.8704,3.8891,3.8985,3.9132,3.9319,3.9145,3.9073,3.9346,3.8755,3.8473,3.8171,3.772,3.7169,3.7034,3.6664,3.64,3.6179,3.6388,3.6338,3.5971,3.5455,3.5044,3.4973,3.4699,3.4545,3.4438,3.4399,3.4233,3.4233,3.4291,3.4303,3.4627,3.4902,3.5238,3.5368,3.5636,3.5876,3.6149,3.6617,3.6875,3.6949,3.7088,3.7296,3.7152,3.6952,3.6912,3.6885,3.6965,3.6979,3.6912,3.6885,3.6885,3.6885,3.6885,3.6885,3.6885,3.7051,3.7107,5.4604,5.2417,5.2626,5.1902,5.0599,4.9807,4.9,4.8193,4.7887,4.719,4.6423,4.5971,4.5827,4.5982,4.5271,4.4916,4.5034,4.5034,4.5018,4.4837,4.4049,4.3501,4.2964,4.2136,4.1751,4.1656,4.106,4.0578,4.0132,3.9756,3.942,3.911,3.8451,3.8237,3.8495,3.8237,3.8157,3.8397,3.8464,3.8597,3.8833,3.9006,3.9247,3.9367,3.9613,3.964,3.976,3.9893,3.9867,3.9666,3.9586,3.9519,3.9372,3.9273,3.9265,3.9092,3.9092,3.9172,3.9292,3.9346,3.9426,3.9533,3.9412,3.9439,3.9487,3.9164,3.8946,3.818,3.7604,3.7109,3.6599,3.6213,3.59,3.5706,3.563,3.5497,3.5556,3.5251,3.5016,3.498,3.4895,3.474,3.4799,3.4653,3.4593,3.4523,3.4559,3.4617,3.4675,3.4916,3.5053,3.5189,3.5259,3.5482,3.5738,3.6141,3.6557,3.6678,3.6992,3.7263,3.7486,3.7219,3.7139,3.7139,3.7155,3.7045,3.7005,3.6952,3.6885,3.6885,3.6885,3.6885,3.6885,3.6885,3.6941,5.5132,5.3731,5.3862,5.2856,5.1135,5.0872,4.9124,4.7404,4.7673,4.7315,4.6379,4.6537,4.6324,4.6283,4.5599,4.5313,4.5114,4.5209,4.4988,4.4616,4.3853,4.321,4.3047,4.233,4.1937,4.1743,4.0937,4.046,4.001,3.9221,3.881,3.8708,3.82,3.808,3.8365,3.8361,3.8477,3.8704,3.8771,3.8958,3.9167,3.93,3.9553,3.998,3.996,3.9987,4.0161,4.0321,4.0281,3.972,3.972,3.9813,3.9773,3.9746,3.9693,3.9666,3.964,3.9567,3.9561,3.9514,3.9442,3.9376,3.9349,3.9488,3.9342,3.9209,3.8742,3.7873,3.7879,3.7131,3.6259,3.5657,3.5583,3.5511,3.5317,3.5101,3.5065,3.504,3.5028,3.5028,3.5016,3.5028,3.5028,3.5028,3.5004,3.4811,3.4788,3.4835,3.4835,3.4939,3.501,3.5046,3.5083,3.5026,3.5319,3.5541,3.5988,3.6338,3.6762,3.7123,3.7812,3.7782,3.7622,3.7542,3.7462,3.7342,3.7179,3.7086,3.7032,3.6979,3.7101,3.7021,3.6954,3.6885,3.6941,5.3588,5.2439,5.1156,5.0399,4.985,4.8625,4.788,4.7598,4.7037,4.6598,4.5995,4.5869,4.5822,4.5758,4.5679,4.544,4.544,4.5519,4.5356,4.4285,4.3679,4.3147,4.2832,4.2121,4.1443,4.1109,4.0986,4.0392,3.961,3.9266,3.8934,3.8694,3.8516,3.833,3.8597,3.8704,3.8771,3.8953,3.902,3.93,3.9733,3.9767,4.002,4.0575,4.0601,4.0628,4.0695,4.0775,4.0642,4.0441,4.0481,4.0548,4.0481,4.0361,4.0267,4.0154,4.002,3.9827,3.9584,3.9325,3.9079,3.8825,3.8683,3.8537,3.8682,3.8178,3.7853,3.7417,3.7175,3.6846,3.6298,3.5863,3.5754,3.5694,3.5489,3.5308,3.5259,3.5161,3.504,3.5028,3.5028,3.5028,3.5028,3.5028,3.5028,3.5028,3.5028,3.5028,3.5028,3.5028,3.5028,3.5028,3.5028,3.5028,3.5146,3.5427,3.5787,3.6108,3.646,3.6904,3.7601,3.7928,3.7615,3.7596,3.7742,3.7609,3.7475,3.7515,3.7502,3.7395,3.7275,3.7221,3.7099,3.7019,3.7061,5.4307,5.2994,5.1596,5.0652,4.9949,4.8772,4.7953,4.7434,4.7099,4.6631,4.6238,4.6045,4.5996,4.6012,4.5996,4.5933,4.5741,4.5768,4.5316,4.4491,4.3967,4.3585,4.3123,4.2598,4.199,4.1446,4.0897,4.0262,3.9716,3.9437,3.921,3.8931,3.8878,3.8998,3.9145,3.9239,3.9426,3.9527,3.972,3.9947,4.0187,4.0254,4.0321,4.0682,4.0829,4.0909,4.0895,4.0981,4.1016,4.0962,4.1016,4.0962,4.0775,4.0695,4.056,4.0215,4.022,3.9901,3.9489,3.9164,3.8926,3.8687,3.8397,3.8432,3.8422,3.8004,3.7699,3.7531,3.7336,3.7139,3.6769,3.6503,3.6382,3.6177,3.5971,3.5718,3.5537,3.5223,3.5028,3.5028,3.5028,3.5028,3.5028,3.5028,3.5028,3.5028,3.5028,3.5028,3.5028,3.5028,3.5028,3.5028,3.5028,3.5028,3.5028,3.5322,3.5673,3.5975,3.6171,3.6599,3.7155,3.7359,3.7478,3.7602,3.7782,3.7889,3.7782,3.7836,3.7779,3.7676,3.7555,3.7475,3.7379,3.7435,3.7448,5.5344,5.4191,5.2757,5.1493,5.0441,4.9446,4.8205,4.7113,4.722,4.6928,4.6698,4.6616,4.6552,4.6552,4.652,4.6305,4.5926,4.5508,4.5034,4.4539,4.4141,4.3766,4.3416,4.305,4.2698,4.2296,4.1304,4.055,4.0011,3.9734,3.9405,3.9233,3.9439,3.9466,3.9613,3.98,3.988,3.9887,4.0201,4.0468,4.0615,4.0655,4.0708,4.0962,4.1029,4.1243,4.1296,4.1336,4.1274,4.1403,4.1363,4.0994,4.064,4.0552,4.062,4.0005,4.0073,3.9653,3.9144,3.8806,3.8555,3.8557,3.8293,3.8155,3.8081,3.7959,3.7702,3.7544,3.736,3.7518,3.7424,3.7106,3.6889,3.6757,3.6503,3.6262,3.5935,3.5477,3.5318,3.5054,3.5065,3.5028,3.5028,3.5028,3.5028,3.5028,3.5028,3.5028,3.5028,3.5028,3.5028,3.5028,3.5028,3.5028,3.5028,3.5087,3.5497,3.5732,3.5966,3.6258,3.6667,3.6786,3.6981,3.7577,3.7773,3.7769,3.7831,3.7813,3.7817,3.7829,3.7849,3.7796,3.7782,3.7809,3.7796,5.3914,5.4499,5.1416,5.0203,5.0089,4.8272,4.7314,4.6937,4.6887,4.6682,4.6705,4.6911,4.6838,4.6736,4.6641,4.6235,4.5778,4.5314,4.4834,4.4392,4.4031,4.3695,4.3722,4.3128,4.2657,4.241,4.1771,4.0939,4.0015,3.9632,3.968,3.9573,3.9613,3.9653,3.9706,3.968,3.9987,4.0241,4.0508,4.0829,4.1069,4.1176,4.1336,4.1644,4.1617,4.1817,4.2031,4.1697,4.1394,4.1657,4.1408,4.0881,4.0286,4.0137,4.0135,4.0157,3.9668,3.9071,3.8624,3.8064,3.7557,3.7102,3.7102,3.7017,3.7004,3.7004,3.7066,3.7028,3.7076,3.7206,3.7398,3.7299,3.7287,3.7217,3.7047,3.6854,3.6647,3.6273,3.5863,3.5537,3.5331,3.5052,3.5089,3.5077,3.5028,3.5028,3.5028,3.5028,3.5028,3.5028,3.5028,3.5028,3.5028,3.5028,3.5028,3.5028,3.5263,3.5497,3.5673,3.579,3.607,3.6129,3.6429,3.6806,3.7213,3.7303,3.745,3.7656,3.7866,3.7879,3.7998,3.8103,3.809,3.8063,3.7969,5.4102,5.4301,5.1663,5.0331,4.9858,4.8596,4.7649,4.7255,4.7144,4.7204,4.7315,4.7362,4.7267,4.7124,4.7108,4.6667,4.5907,4.541,4.5072,4.4682,4.4313,4.428,4.4468,4.3835,4.3416,4.3103,4.2552,4.1628,4.0388,4.0134,4.0134,4.0227,4.0147,4.012,4.0294,4.0481,4.0461,4.0762,4.1096,4.139,4.1563,4.1577,4.179,4.1897,4.2071,4.2258,4.2472,4.2352,4.2098,4.2101,4.1587,4.1061,4.0414,3.9709,3.9208,3.926,3.8923,3.8524,3.8147,3.769,3.7381,3.7279,3.7011,3.6842,3.6732,3.6745,3.6709,3.678,3.6853,3.7082,3.7335,3.736,3.736,3.741,3.7251,3.7191,3.7156,3.6792,3.6442,3.6056,3.5669,3.532,3.5175,3.5114,3.5065,3.5028,3.504,3.5052,3.5065,3.5065,3.5077,3.5028,3.5028,3.5028,3.5028,3.5028,3.5028,3.5263,3.538,3.5556,3.5556,3.5602,3.5615,3.5753,3.6129,3.6726,3.6992,3.7135,3.7573,3.7882,3.7945,3.7994,3.8242,3.829,3.8223,5.4644,5.4154,5.2185,5.0781,4.9862,4.9039,4.8296,4.7781,4.768,4.7823,4.8046,4.7839,4.7664,4.7527,4.7241,4.675,4.6029,4.571,4.5306,4.504,4.493,4.5026,4.5201,4.4875,4.4234,4.3416,4.2647,4.2264,4.1119,4.0748,4.0802,4.0815,4.0722,4.0748,4.0962,4.1069,4.1248,4.1434,4.1831,4.2004,4.1991,4.2018,4.2084,4.2111,4.2312,4.2579,4.298,4.2686,4.2686,4.2544,4.2079,4.1396,4.09,3.9591,3.8511,3.8014,3.81,3.7983,3.7853,3.7555,3.7449,3.7422,3.7277,3.707,3.6961,3.6877,3.6927,3.7058,3.7094,3.7253,3.7483,3.7471,3.7372,3.736,3.736,3.7348,3.7326,3.7094,3.6913,3.6478,3.5959,3.5706,3.5597,3.5513,3.5452,3.5235,3.5235,3.5199,3.5211,3.5139,3.5114,3.5065,3.5028,3.5028,3.5028,3.5028,3.5028,3.5087,3.5146,3.5204,3.5146,3.5146,3.5158,3.5287,3.5615,3.6141,3.6434,3.6667,3.6966,3.7245,3.7587,3.7852,3.8024,3.8357,3.8517,5.4694,5.4284,5.2109,5.0829,5.0061,4.8833,4.8174,4.8046,4.8062,4.8077,4.8173,4.8093,4.7934,4.7563,4.6766,4.6184,4.5771,4.5515,4.5264,4.5063,4.516,4.5289,4.5135,4.3988,4.4045,4.36,4.2428,4.1535,4.1296,4.1181,4.1181,4.1221,4.1181,4.1256,4.1283,4.1416,4.1274,4.1354,4.1724,4.2111,4.2499,4.2766,4.2993,4.3113,4.3127,4.3207,4.3527,4.318,4.298,4.33,4.2771,4.1865,4.0916,4.0582,3.9334,3.834,3.7655,3.7606,3.7749,3.7616,3.7384,3.7446,3.7326,3.7179,3.7106,3.7166,3.7287,3.7625,3.7444,3.741,3.7519,3.7495,3.7384,3.7335,3.7311,3.7335,3.7323,3.7313,3.7094,3.6949,3.6454,3.6298,3.6153,3.6008,3.5911,3.567,3.5477,3.5452,3.5416,3.5356,3.5308,3.5223,3.5246,3.5246,3.5151,3.5126,3.5125,3.5101,3.5101,3.5101,3.5137,3.5161,3.503,3.5218,3.5488,3.5627,3.5836,3.6141,3.6317,3.6667,3.7018,3.7438,3.7833,3.8195,3.8544,5.4931,5.3445,5.2246,5.1064,4.9845,4.8981,4.8548,4.8395,4.8368,4.8368,4.8399,4.8634,4.8522,4.7996,4.7307,4.6747,4.6294,4.5908,4.5648,4.5411,4.5494,4.567,4.5769,4.5273,4.4891,4.3817,4.3289,4.2636,4.2077,4.1488,4.1394,4.1688,4.1474,4.1368,4.163,4.1701,4.1831,4.1991,4.2285,4.2646,4.2913,4.318,4.3407,4.3527,4.3554,4.3741,4.3781,4.3728,4.3514,4.3518,4.2782,4.1909,4.1114,4.0336,3.9207,3.8906,3.8422,3.8144,3.7818,3.7725,3.7676,3.7664,3.7652,3.7468,3.7299,3.7311,3.742,3.7504,3.7362,3.7326,3.7362,3.712,3.7132,3.7082,3.7179,3.7263,3.7287,3.7299,3.7203,3.7094,3.6961,3.6745,3.6455,3.6152,3.6008,3.5827,3.5694,3.5682,3.5658,3.5681,3.5573,3.5513,3.556,3.556,3.544,3.5392,3.5283,3.5247,3.5247,3.5259,3.5283,3.5271,3.5247,3.5223,3.5412,3.5517,3.55,3.5544,3.5732,3.6083,3.6492,3.6959,3.738,3.7846,3.8195,5.4991,5.269,5.2372,5.1379,4.9967,4.9407,4.897,4.8761,4.8717,4.8717,4.8748,4.8935,4.8828,4.8358,4.771,4.6929,4.6571,4.6236,4.6015,4.5852,4.5889,4.6021,4.5936,4.5837,4.5129,4.4271,4.3626,4.3099,4.2525,4.2044,4.1937,4.2205,4.1951,4.1857,4.2031,4.2271,4.2445,4.2485,4.2899,4.314,4.326,4.3501,4.3607,4.3701,4.3781,4.3888,4.3875,4.3741,4.3714,4.3584,4.2652,4.1944,4.1584,4.0451,3.9443,3.9079,3.8784,3.8434,3.8132,3.8063,3.8136,3.8111,3.8027,3.7773,3.7821,3.7625,3.7698,3.7891,3.7628,3.7408,3.7215,3.7108,3.7072,3.7096,3.7047,3.7156,3.7241,3.7205,3.712,3.6951,3.6878,3.6939,3.6636,3.6261,3.6056,3.5935,3.5899,3.5923,3.5899,3.5935,3.585,3.573,3.5694,3.5682,3.5658,3.5597,3.5513,3.5477,3.5477,3.5489,3.5513,3.5549,3.5621,3.5597,3.5489,3.5559,3.5605,3.534,3.5146,3.5556,3.5966,3.6434,3.6901,3.7367,3.7846,5.4547,5.244,5.2406,5.1896,5.1038,4.9806,4.9138,4.9186,4.9186,4.9186,4.9094,4.8844,4.8607,4.8113,4.7401,4.6738,4.6236,4.5966,4.5881,4.5966,4.6127,4.6211,4.6063,4.5466,4.4719,4.4452,4.3971,4.3406,4.2937,4.2605,4.2392,4.2195,4.2135,4.2435,4.2646,4.2806,4.2993,4.3073,4.3367,4.3487,4.3581,4.3768,4.3941,4.3888,4.3728,4.3567,4.3554,4.3382,4.329,4.3425,4.2639,4.1994,4.1566,4.0729,3.9884,3.9151,3.8917,3.8579,3.8337,3.8386,3.8506,3.8305,3.8099,3.806,3.8341,3.8244,3.8325,3.8555,3.8156,3.8063,3.7918,3.7725,3.7398,3.7289,3.7205,3.7108,3.7132,3.7011,3.6914,3.6745,3.6757,3.6878,3.6842,3.6515,3.6346,3.6225,3.6274,3.6298,3.6177,3.6189,3.6008,3.5923,3.5851,3.5827,3.5815,3.5766,3.5754,3.5754,3.5802,3.5754,3.5754,3.5802,3.5983,3.5863,3.5754,3.573,3.5658,3.5476,3.5317,3.5265,3.5497,3.5966,3.6551,3.7192,3.7497,5.5037,5.3154,5.2847,5.1811,5.0261,4.9267,4.9094,4.9444,4.9491,4.9491,4.9476,4.9288,4.8891,4.8194,4.7635,4.698,4.6548,4.6243,4.616,4.6109,4.6211,4.6372,4.6146,4.5947,4.5571,4.505,4.4352,4.366,4.3097,4.298,4.2527,4.2292,4.2111,4.2458,4.2746,4.3142,4.342,4.3621,4.3728,4.3808,4.3888,4.4075,4.4182,4.3995,4.4155,4.3848,4.3555,4.3176,4.3006,4.2809,4.2389,4.1871,4.1364,4.0775,4.006,3.9248,3.9013,3.8832,3.8567,3.8567,3.841,3.8518,3.8458,3.8555,3.8724,3.8651,3.8712,3.876,3.8615,3.8438,3.8377,3.7991,3.764,3.7567,3.7434,3.7229,3.7144,3.7072,3.6975,3.6939,3.6914,3.6951,3.6854,3.6709,3.6588,3.6491,3.6552,3.6588,3.6491,3.6419,3.631,3.6189,3.6128,3.614,3.614,3.6153,3.608,3.608,3.608,3.608,3.6044,3.6237,3.6346,3.6152,3.5996,3.5959,3.5839,3.5621,3.55,3.5402,3.5338,3.5439,3.6141,3.6906,3.7178,5.5333,5.3973,5.3092,5.1707,5.0065,4.9358,4.938,4.9777,4.9841,4.9857,4.9841,4.9563,4.8965,4.8216,4.7559,4.7065,4.6614,4.6387,4.6288,4.6299,4.6387,4.6533,4.6568,4.649,4.6077,4.5615,4.5042,4.436,4.3811,4.3209,4.2767,4.2208,4.1663,4.1818,4.239,4.3122,4.3519,4.3876,4.4008,4.4008,4.4035,4.4249,4.4275,4.4088,4.4235,4.3864,4.3334,4.2849,4.2547,4.2127,4.1731,4.1288,4.0862,4.0402,3.9887,3.9435,3.9141,3.9044,3.882,3.8651,3.847,3.8663,3.8663,3.8748,3.8832,3.8796,3.8663,3.8972,3.8784,3.8631,3.8644,3.8269,3.7966,3.787,3.7468,3.7275,3.7348,3.7323,3.7277,3.718,3.7168,3.7156,3.712,3.7011,3.6818,3.6685,3.6588,3.6612,3.6576,3.654,3.654,3.6515,3.6503,3.654,3.6588,3.6443,3.6322,3.6346,3.6346,3.6346,3.6407,3.6564,3.66,3.6443,3.631,3.6177,3.608,3.5947,3.5754,3.5549,3.557,3.5543,3.5841,3.6566,3.687,5.524,5.4587,5.3075,5.1864,5.091,5.0377,5.0143,5.0081,5.0097,5.0081,4.9941,4.923,4.8587,4.8079,4.7386,4.6857,4.6538,4.6361,4.6328,4.6387,4.6548,4.6631,4.6709,4.658,4.6471,4.6198,4.5427,4.4758,4.4531,4.3124,4.2639,4.2256,4.1391,4.1093,4.1537,4.2505,4.3309,4.3942,4.4048,4.4102,4.4182,4.4409,4.4396,4.4289,4.4236,4.385,4.3019,4.2506,4.2033,4.1497,4.1021,4.0762,4.0567,3.9838,3.938,3.9122,3.9008,3.8917,3.8651,3.882,3.8827,3.8905,3.8868,3.8832,3.8615,3.8506,3.8591,3.902,3.8856,3.8736,3.8639,3.8482,3.8305,3.8099,3.7761,3.7541,3.7625,3.7649,3.7604,3.7459,3.7434,3.7422,3.741,3.7338,3.7096,3.6902,3.6635,3.6587,3.6709,3.6769,3.683,3.6806,3.6806,3.6745,3.6745,3.6648,3.6576,3.66,3.6576,3.6528,3.6515,3.6588,3.66,3.6576,3.6528,3.637,3.6407,3.6382,3.6177,3.5911,3.5754,3.5765,3.6005,3.622,3.6599,5.5349,5.4397,5.3472,5.2463,5.1337,5.0294,5.0,5.0068,4.976,4.965,4.963,4.8817,4.834,4.803,4.7636,4.7009,4.6611,4.6592,4.6577,4.6606,4.6738,4.6982,4.7152,4.7149,4.6865,4.6185,4.529,4.4308,4.3493,4.2557,4.1909,4.1364,4.1344,4.1306,4.1986,4.2989,4.409,4.4276,4.4463,4.4596,4.4623,4.481,4.485,4.4583,4.442,4.3739,4.2741,4.2197,4.1509,4.0927,4.0477,4.0451,4.0337,3.9646,3.9857,3.9514,3.9394,3.9382,3.9303,3.9237,3.9056,3.9032,3.9134,3.9134,3.9074,3.9013,3.9008,3.8948,3.8868,3.8808,3.8832,3.8615,3.8474,3.8414,3.8196,3.8051,3.8051,3.8027,3.7954,3.7785,3.7625,3.7529,3.748,3.764,3.7471,3.735,3.718,3.7034,3.707,3.7118,3.7154,3.7144,3.7096,3.6913,3.6828,3.6842,3.6769,3.6745,3.6685,3.6588,3.66,3.6709,3.6697,3.6721,3.6673,3.6612,3.6648,3.6648,3.6515,3.6297,3.6177,3.5971,3.5995,3.6175,3.6449,5.5533,5.4433,5.3748,5.2834,5.1666,5.0422,5.0016,5.0068,4.9529,4.9326,4.9248,4.8494,4.8025,4.7959,4.7668,4.739,4.6914,4.685,4.685,4.6865,4.6996,4.7338,4.7601,4.7756,4.7304,4.6397,4.5459,4.4525,4.3625,4.2285,4.1365,4.096,4.1347,4.1829,4.2541,4.3354,4.4249,4.4502,4.4743,4.481,4.4903,4.505,4.5131,4.4834,4.4455,4.382,4.2764,4.1875,4.1053,4.0549,4.0288,4.029,4.0053,4.0016,4.015,3.9804,3.9834,3.9815,3.9852,3.9762,3.949,3.9249,3.9454,3.9382,3.9243,3.9001,3.8977,3.8917,3.882,3.8796,3.8772,3.8619,3.8559,3.8498,3.8511,3.8365,3.8386,3.8374,3.8349,3.8168,3.8039,3.783,3.7686,3.7833,3.787,3.7785,3.77,3.7604,3.7444,3.7432,3.7444,3.7434,3.735,3.7229,3.7144,3.7096,3.7011,3.6853,3.6804,3.6818,3.6865,3.6997,3.6963,3.6902,3.6951,3.6925,3.6889,3.6841,3.6804,3.6756,3.6684,3.643,3.6116,3.6274,3.6491,5.5732,5.4787,5.3869,5.3046,5.2101,5.0805,5.0177,5.0161,4.9436,4.9128,4.919,4.8129,4.7731,4.7709,4.7422,4.7235,4.7235,4.725,4.7235,4.7294,4.744,4.766,4.7806,4.7996,4.7384,4.6729,4.5767,4.4501,4.3983,4.2164,4.0821,4.0803,4.1768,4.2371,4.3018,4.3623,4.4378,4.4741,4.501,4.5077,4.5157,4.5237,4.5251,4.4979,4.4528,4.3665,4.2735,4.1873,4.0969,4.0412,3.9967,3.9919,3.9846,3.9762,3.9762,3.9858,4.0076,4.0213,4.0334,4.022,4.0027,3.9695,3.9581,3.9249,3.902,3.8965,3.8953,3.8856,3.8736,3.8639,3.8607,3.8547,3.8498,3.8559,3.8656,3.8663,3.882,3.8779,3.8779,3.8712,3.8506,3.8402,3.8184,3.8196,3.8124,3.8051,3.7954,3.7858,3.7761,3.7664,3.7664,3.764,3.7555,3.7471,3.7398,3.7338,3.7241,3.7082,3.7154,3.7154,3.7263,3.7275,3.7166,3.7205,3.7275,3.7275,3.7154,3.7179,3.7251,3.7191,3.7046,3.6937,3.6623,3.6564,3.6662,5.6619,5.5803,5.4507,5.3525,5.2671,5.1201,5.0461,5.0022,4.8818,4.8603,4.947,4.7749,4.7557,4.8291,4.7849,4.7622,4.7572,4.7572,4.7572,4.7631,4.7704,4.785,4.7996,4.8048,4.7181,4.5985,4.4964,4.3996,4.2362,4.0981,4.1116,4.1344,4.1974,4.2755,4.347,4.4145,4.4693,4.5061,4.5344,4.5384,4.5356,4.5463,4.5491,4.5245,4.4301,4.3428,4.2646,4.1498,4.0636,4.0203,4.0076,4.0051,4.0039,4.0196,4.0285,4.0502,4.0611,4.0683,4.0695,4.0502,4.0273,4.0196,4.0003,3.9653,3.9309,3.9068,3.9037,3.8917,3.8731,3.8736,3.8724,3.8675,3.8675,3.876,3.8832,3.8917,3.8996,3.9032,3.902,3.8912,3.8796,3.8716,3.8523,3.8301,3.8229,3.8244,3.8196,3.8124,3.8015,3.7918,3.7858,3.7833,3.7785,3.7725,3.7628,3.7492,3.7408,3.7348,3.7432,3.7468,3.7444,3.7432,3.7384,3.742,3.7517,3.7456,3.7335,3.7408,3.7529,3.7408,3.7338,3.7239,3.7166,3.706,3.6927,5.6538,5.521,5.4422,5.3391,5.2026,5.0682,5.0238,5.0261,4.8973,4.8847,4.9247,4.7836,4.753,4.8095,4.8,4.7894,4.7894,4.7894,4.7894,4.7894,4.7879,4.7996,4.8113,4.8056,4.7216,4.5899,4.4755,4.3885,4.2021,4.1157,4.111,4.1262,4.1987,4.3047,4.3877,4.4572,4.5133,4.538,4.5625,4.5663,4.569,4.5677,4.5623,4.5296,4.4173,4.3223,4.249,4.1245,4.0433,4.0088,4.0039,4.0051,4.0051,4.0153,4.0418,4.0575,4.0635,4.0635,4.0635,4.0551,4.0498,4.0377,4.022,3.9919,3.9617,3.9363,3.9177,3.9056,3.896,3.8876,3.8876,3.89,3.896,3.9032,3.9056,3.9092,3.9153,3.9201,3.9153,3.9056,3.8989,3.8856,3.8699,3.8543,3.8422,3.8474,3.8498,3.8446,3.8277,3.8172,3.8099,3.8063,3.8027,3.7978,3.7842,3.7818,3.7782,3.7758,3.7833,3.7833,3.7686,3.7698,3.7782,3.7758,3.7797,3.7698,3.771,3.771,3.7821,3.7712,3.7676,3.7712,3.7616,3.7323,3.7277,5.5911,5.3691,5.3846,5.2555,5.0678,4.9809,5.0143,5.1019,4.9744,4.9284,4.9091,4.8135,4.7689,4.7965,4.8061,4.8099,4.8099,4.8084,4.8084,4.8157,4.8099,4.8143,4.8157,4.8086,4.7148,4.6295,4.5118,4.3713,4.2783,4.1835,4.1158,4.1118,4.2404,4.3399,4.3963,4.4745,4.5294,4.5568,4.5772,4.5852,4.5757,4.5758,4.561,4.5285,4.421,4.3074,4.2354,4.1405,4.0322,4.0124,4.0015,4.0112,4.0063,3.9972,4.0305,4.0474,4.0526,4.0539,4.0539,4.0502,4.0438,4.0293,4.0056,3.9924,3.9719,3.949,3.9358,3.9309,3.9225,3.9177,3.9165,3.9177,3.9225,3.9285,3.9321,3.9358,3.9418,3.9442,3.9406,3.9297,3.9219,3.9098,3.8977,3.882,3.8675,3.8651,3.8663,3.8712,3.8639,3.8486,3.8438,3.839,3.8313,3.8301,3.8289,3.8265,3.8253,3.8293,3.8257,3.8217,3.8217,3.8217,3.8205,3.8217,3.8217,3.8168,3.8156,3.8184,3.8124,3.8051,3.8051,3.8148,3.8015,3.7673,3.7529,5.5827,5.4397,5.2853,5.1318,5.0093,5.054,5.064,5.0421,5.0123,4.9769,4.9361,4.8332,4.785,4.804,4.8099,4.8172,4.8172,4.8172,4.8172,4.8157,4.8157,4.8151,4.8115,4.7883,4.7069,4.5822,4.4608,4.3466,4.2116,4.1548,4.1584,4.1983,4.276,4.3243,4.4083,4.4853,4.5265,4.569,4.5892,4.6012,4.6079,4.6119,4.6023,4.5688,4.4925,4.3772,4.2967,4.2003,4.1236,4.0719,4.0727,4.0607,4.0322,4.0153,4.0281,4.0474,4.0466,4.0466,4.0454,4.0466,4.043,4.0389,4.0201,4.0081,3.9912,3.9695,3.9574,3.9605,3.9569,3.9532,3.9508,3.9442,3.9454,3.9581,3.9617,3.9677,3.9738,3.9647,3.9623,3.9514,3.9382,3.9273,3.9177,3.9056,3.8965,3.8893,3.8881,3.8839,3.8851,3.8808,3.8832,3.8796,3.876,3.8748,3.8699,3.8639,3.8579,3.8627,3.8627,3.8675,3.8659,3.8651,3.8579,3.8712,3.8748,3.8603,3.8482,3.8511,3.845,3.8341,3.8269,3.8293,3.8232,3.8003,3.7894,5.5583,5.4443,5.2125,5.0885,5.0552,5.0858,5.0894,5.0637,5.0197,4.9808,4.9392,4.844,4.8011,4.8157,4.8157,4.8172,4.8172,4.8172,4.8172,4.8172,4.8151,4.8028,4.7897,4.7625,4.6983,4.5857,4.4397,4.3036,4.1515,4.1331,4.1596,4.2081,4.2427,4.3243,4.4221,4.4647,4.5265,4.569,4.5945,4.6133,4.6306,4.64,4.6333,4.6062,4.5107,4.4097,4.3099,4.2113,4.1296,4.0731,4.0595,4.0595,4.0401,4.0269,4.0293,4.0382,4.0466,4.043,4.0406,4.0466,4.0502,4.037,4.0478,4.0406,4.0112,3.9907,3.9798,3.9762,3.9677,3.9641,3.9641,3.9641,3.9641,3.9677,3.9677,3.9713,3.9738,3.9725,3.9647,3.9677,3.9593,3.9502,3.943,3.9418,3.9327,3.9194,3.9104,3.9104,3.9104,3.9092,3.9141,3.9141,3.9068,3.8936,3.8803,3.8779,3.8856,3.8851,3.8948,3.8863,3.8815,3.8851,3.8876,3.8924,3.8912,3.8791,3.876,3.8724,3.8656,3.8498,3.8426,3.8377,3.8317,3.8269,3.8136,5.504,5.3811,5.1732,5.0963,5.1159,5.0876,5.0815,5.0851,5.0053,4.9438,4.9111,4.8491,4.8281,4.8172,4.8172,4.8172,4.8172,4.8172,4.8172,4.8187,4.8115,4.7934,4.7611,4.7282,4.6246,4.5224,4.3903,4.2629,4.1319,4.1331,4.147,4.1735,4.2565,4.3588,4.4014,4.484,4.5677,4.5703,4.585,4.609,4.6317,4.657,4.642,4.58,4.4916,4.3824,4.2999,4.2066,4.1155,4.0611,4.0486,4.0389,4.0353,4.0245,4.0281,4.0322,4.0454,4.0358,4.0389,4.0526,4.043,4.0382,4.0659,4.0563,4.0245,4.0051,3.9943,3.9846,3.9774,3.9738,3.9738,3.9738,3.9738,3.975,3.975,3.9738,3.9738,3.9738,3.9738,3.9738,3.9725,3.9647,3.9647,3.9647,3.9641,3.9508,3.9406,3.9418,3.9418,3.9406,3.9418,3.9382,3.9309,3.9165,3.9044,3.9044,3.9092,3.9141,3.9201,3.9068,3.902,3.9129,3.9165,3.9092,3.9056,3.9044,3.8984,3.9001,3.8832,3.8651,3.8603,3.8555,3.847,3.841,3.8341,5.3899,5.2121,5.1875,5.1461,5.0906,5.0815,5.0509,4.9977,4.9562,4.9105,4.8842,4.8705,4.8501,4.8172,4.8172,4.8201,4.8318,4.826,4.8187,4.8187,4.789,4.7685,4.7216,4.6406,4.4815,4.3736,4.3005,4.2219,4.1449,4.1355,4.1665,4.215,4.2898,4.3795,4.444,4.5196,4.569,4.5661,4.593,4.6183,4.6201,4.637,4.6525,4.5969,4.5183,4.4472,4.3796,4.2846,4.1988,4.1213,4.0671,4.0406,4.0389,4.0341,4.0389,4.0558,4.0667,4.0679,4.0739,4.0776,4.0679,4.0514,4.0647,4.043,4.0208,4.0063,3.9943,3.9779,3.9707,3.975,3.975,3.9774,3.9774,3.9719,3.9719,3.9695,3.9671,3.9738,3.9738,3.9738,3.9725,3.9725,3.9725,3.9725,3.9725,3.9629,3.9629,3.9641,3.9629,3.9689,3.9738,3.9665,3.9581,3.9629,3.9593,3.9496,3.952,3.9544,3.9532,3.9436,3.937,3.9502,3.9502,3.937,3.9382,3.9406,3.9333,3.9201,3.911,3.8953,3.8905,3.8832,3.8736,3.8615,3.8547]},{"header":{"parameterUnit":"m.s-1","parameterCategory":1,"la1":31.0,"la2":29.5877,"lo1":-88.7671,"lo2":-86.6584,"dy":0.0162,"dx":0.0185,"nx":115,"ny":88,"refTime":"2023-11-15T00:00:00:Z","depth":0,"parameterNumber":3,"parameterNumberName":"V-component_of_WINDS"},"data":[0.0,0.0,0.0,0.0,0.0,0.0,0.0,0.0,0.0,0.0,0.0,0.0,0.0,0.0,0.0,0.0,0.0,0.0,0.0,0.0,0.0,0.0,0.0,0.0,0.0,0.0,0.0,0.0,0.0,0.0,0.0,0.0,0.0,0.0,0.0,0.0,0.0,0.0,0.0,0.0,0.0,0.0,0.0,0.0,0.0,0.0,0.0,0.0,0.0,0.0,0.0,0.0,0.0,0.0,0.0,0.0,0.0,0.0,0.0,0.0,0.0,0.0,0.0,0.0,0.0,0.0,0.0,0.0,0.0,0.0,0.0,0.0,0.0,0.0,0.0,0.0,0.0,0.0,0.0,0.0,0.0,0.0,0.0,0.0,0.0,0.0,0.0,0.0,0.0,0.0,0.0,0.0,0.0,0.0,0.0,0.0,0.0,0.0,0.0,0.0,0.0,0.0,0.0,0.0,0.0,0.0,0.0,0.0,0.0,0.0,0.0,0.0,0.0,0.0,0.0,0.0,0.0,0.0,0.0,0.0,0.0,0.0,0.0,0.0,0.0,0.0,0.0,0.0,0.0,0.0,0.0,0.0,0.0,0.0,0.0,0.0,0.0,0.0,0.0,0.0,0.0,0.0,0.0,0.0,0.0,0.0,0.0,0.0,0.0,0.0,0.0,0.0,0.0,0.0,0.0,0.0,0.0,0.0,0.0,0.0,0.0,0.0,0.0,0.0,0.0,0.0,0.0,0.0,0.0,0.0,0.0,0.0,0.0,0.0,0.0,0.0,0.0,0.0,0.0,0.0,0.0,0.0,0.0,0.0,0.0,0.0,0.0,0.0,0.0,0.0,0.0,0.0,0.0,0.0,0.0,0.0,0.0,0.0,0.0,0.0,0.0,0.0,0.0,0.0,0.0,0.0,0.0,0.0,0.0,0.0,0.0,0.0,0.0,0.0,0.0,0.0,0.0,0.0,0.0,0.0,0.0,0.0,0.0,0.0,0.0,0.0,0.0,0.0,0.0,0.0,0.0,0.0,0.0,0.0,0.0,0.0,0.0,0.0,0.0,0.0,0.0,0.0,0.0,0.0,0.0,0.0,0.0,0.0,0.0,0.0,0.0,0.0,0.0,0.0,0.0,0.0,0.0,0.0,0.0,0.0,0.0,0.0,0.0,0.0,0.0,0.0,0.0,0.0,0.0,0.0,0.0,0.0,0.0,0.0,0.0,0.0,0.0,0.0,0.0,0.0,0.0,0.0,0.0,0.0,0.0,0.0,0.0,0.0,0.0,0.0,0.0,0.0,0.0,0.0,0.0,0.0,0.0,0.0,0.0,0.0,0.0,0.0,0.0,0.0,0.0,0.0,0.0,0.0,0.0,0.0,0.0,0.0,0.0,0.0,0.0,0.0,0.0,0.0,0.0,0.0,0.0,0.0,0.0,0.0,0.0,0.0,0.0,0.0,0.0,0.0,0.0,0.0,0.0,0.0,0.0,0.0,0.0,0.0,0.0,0.0,0.0,0.0,0.0,0.0,0.0,0.0,0.0,0.0,0.0,0.0,0.0,0.0,0.0,0.0,0.0,0.0,0.0,0.0,0.0,0.0,0.0,0.0,0.0,0.0,0.0,0.0,0.0,0.0,0.0,0.0,0.0,0.0,0.0,0.0,0.0,0.0,0.0,0.0,0.0,0.0,0.0,0.0,0.0,0.0,0.0,0.0,0.0,0.0,0.0,0.0,0.0,0.0,0.0,0.0,0.0,0.0,0.0,0.0,0.0,0.0,0.0,0.0,0.0,0.0,0.0,0.0,0.0,0.0,0.0,0.0,0.0,0.0,0.0,0.0,0.0,0.0,0.0,0.0,0.0,0.0,0.0,0.0,0.0,0.0,0.0,0.0,0.0,0.0,0.0,0.0,0.0,0.0,0.0,0.0,0.0,0.0,0.0,0.0,0.0,0.0,0.0,0.0,0.0,0.0,0.0,0.0,0.0,0.0,0.0,0.0,0.0,0.0,0.0,0.0,0.0,0.0,0.0,0.0,0.0,0.0,0.0,0.0,0.0,0.0,0.0,0.0,0.0,0.0,0.0,0.0,0.0,0.0,0.0,0.0,0.0,0.0,0.0,0.0,0.0,0.0,0.0,0.0,0.0,0.0,0.0,0.0,0.0,0.0,0.0,0.0,0.0,0.0,0.0,0.0,0.0,0.0,0.0,0.0,0.0,0.0,0.0,0.0,0.0,0.0,0.0,0.0,0.0,0.0,0.0,0.0,0.0,0.0,0.0,0.0,0.0,0.0,0.0,0.0,0.0,0.0,0.0,0.0,0.0,0.0,0.0,0.0,0.0,0.0,0.0,0.0,0.0,0.0,0.0,0.0,0.0,0.0,0.0,0.0,0.0,0.0,0.0,0.0,0.0,0.0,0.0,0.0,0.0,0.0,0.0,0.0,0.0,0.0,0.0,0.0,0.0,0.0,0.0,0.0,0.0,0.0,0.0,0.0,0.0,0.0,0.0,0.0,0.0,0.0,0.0,0.0,0.0,0.0,0.0,0.0,0.0,0.0,0.0,0.0,0.0,0.0,0.0,0.0,0.0,0.0,0.0,0.0,0.0,0.0,0.0,0.0,0.0,0.0,0.0,0.0,0.0,0.0,0.0,0.0,0.0,0.0,0.0,0.0,0.0,0.0,0.0,0.0,0.0,0.0,0.0,0.0,0.0,0.0,0.0,0.0,0.0,0.0,0.0,0.0,0.0,0.0,0.0,0.0,0.0,0.0,0.0,0.0,0.0,0.0,0.0,0.0,0.0,0.0,0.0,0.0,0.0,0.0,0.0,0.0,0.0,0.0,0.0,0.0,0.0,0.0,0.0,0.0,0.0,0.0,0.0,0.0,0.0,0.0,0.0,0.0,0.0,0.0,0.0,0.0,0.0,0.0,0.0,0.0,0.0,0.0,0.0,0.0,0.0,0.0,0.0,0.0,0.0,0.0,0.0,0.0,0.0,0.0,0.0,0.0,0.0,0.0,0.0,0.0,0.0,0.0,0.0,0.0,0.0,0.0,0.0,0.0,0.0,0.0,0.0,0.0,0.0,0.0,0.0,0.0,0.0,0.0,0.0,0.0,0.0,0.0,0.0,0.0,0.0,0.0,0.0,0.0,0.0,0.0,0.0,0.0,0.0,0.0,0.0,0.0,0.0,0.0,0.0,0.0,0.0,0.0,0.0,0.0,0.0,0.0,0.0,0.0,0.0,0.0,0.0,0.0,0.0,0.0,0.0,0.0,0.0,0.0,0.0,0.0,0.0,0.0,0.0,0.0,0.0,0.0,0.0,0.0,0.0,0.0,0.0,0.0,0.0,0.0,0.0,0.0,0.0,0.0,0.0,0.0,0.0,0.0,0.0,0.0,0.0,0.0,0.0,0.0,0.0,0.0,0.0,0.0,0.0,0.0,0.0,0.0,0.0,0.0,0.0,0.0,0.0,0.0,0.0,0.0,0.0,0.0,0.0,0.0,0.0,0.0,0.0,0.0,0.0,0.0,0.0,0.0,0.0,0.0,0.0,0.0,0.0,0.0,0.0,0.0,0.0,0.0,0.0,0.0,0.0,0.0,0.0,0.0,0.0,0.0,0.0,0.0,0.0,0.0,0.0,0.0,0.0,0.0,0.0,0.0,0.0,0.0,0.0,0.0,0.0,0.0,0.0,0.0,0.0,0.0,0.0,0.0,0.0,0.0,0.0,0.0,0.0,0.0,0.0,0.0,0.0,0.0,0.0,0.0,0.0,0.0,0.0,0.0,0.0,0.0,0.0,0.0,0.0,0.0,0.0,0.0,0.0,0.0,0.0,0.0,0.0,0.0,0.0,0.0,0.0,0.0,0.0,0.0,0.0,0.0,0.0,0.0,0.0,0.0,0.0,0.0,0.0,0.0,0.0,0.0,0.0,0.0,0.0,0.0,0.0,0.0,0.0,0.0,0.0,0.0,0.0,0.0,0.0,0.0,0.0,0.0,0.0,0.0,0.0,0.0,0.0,0.0,0.0,0.0,0.0,0.0,0.0,0.0,0.0,0.0,0.0,0.0,0.0,0.0,0.0,0.0,0.0,0.0,0.0,0.0,0.0,0.0,0.0,0.0,0.0,0.0,0.0,0.0,0.0,0.0,0.0,0.0,0.0,0.0,0.0,0.0,0.0,0.0,0.0,0.0,0.0,0.0,0.0,0.0,0.0,0.0,0.0,0.0,0.0,0.0,0.0,0.0,0.0,0.0,0.0,0.0,0.0,0.0,0.0,0.0,5.0334,0.0,0.0,0.0,0.0,0.0,0.0,0.0,0.0,0.0,0.0,0.0,0.0,0.0,0.0,0.0,0.0,0.0,0.0,0.0,0.0,0.0,0.0,0.0,0.0,0.0,0.0,0.0,0.0,0.0,0.0,0.0,0.0,0.0,0.0,0.0,0.0,0.0,0.0,0.0,0.0,0.0,0.0,0.0,0.0,0.0,0.0,0.0,0.0,0.0,0.0,0.0,0.0,0.0,0.0,0.0,0.0,0.0,0.0,0.0,0.0,0.0,0.0,0.0,0.0,0.0,0.0,0.0,0.0,0.0,0.0,0.0,0.0,0.0,0.0,0.0,0.0,0.0,0.0,0.0,0.0,0.0,0.0,0.0,0.0,0.0,0.0,0.0,0.0,0.0,0.0,0.0,0.0,0.0,0.0,0.0,0.0,0.0,0.0,0.0,0.0,0.0,0.0,0.0,0.0,0.0,0.0,0.0,0.0,0.0,0.0,5.094,5.1067,5.135,5.1141,5.0446,0.0,0.0,0.0,0.0,0.0,0.0,0.0,0.0,0.0,0.0,0.0,0.0,0.0,0.0,0.0,0.0,0.0,0.0,0.0,0.0,0.0,0.0,0.0,0.0,0.0,0.0,0.0,0.0,0.0,0.0,0.0,0.0,0.0,0.0,0.0,0.0,0.0,0.0,0.0,0.0,0.0,0.0,0.0,0.0,0.0,0.0,0.0,0.0,0.0,0.0,0.0,0.0,0.0,0.0,0.0,0.0,0.0,0.0,0.0,0.0,0.0,0.0,0.0,0.0,0.0,0.0,0.0,0.0,0.0,0.0,0.0,0.0,0.0,0.0,0.0,0.0,0.0,0.0,0.0,0.0,0.0,0.0,0.0,0.0,0.0,0.0,0.0,0.0,0.0,0.0,0.0,0.0,0.0,0.0,0.0,0.0,0.0,0.0,0.0,0.0,0.0,0.0,0.0,0.0,0.0,0.0,0.0,0.0,0.0,0.0,0.0,0.0,5.1092,5.1048,5.0663,0.0,0.0,0.0,0.0,0.0,0.0,0.0,0.0,0.0,0.0,0.0,0.0,0.0,0.0,0.0,0.0,0.0,0.0,0.0,0.0,0.0,0.0,0.0,0.0,0.0,0.0,0.0,0.0,0.0,0.0,0.0,0.0,0.0,0.0,0.0,0.0,0.0,0.0,0.0,0.0,0.0,0.0,0.0,0.0,0.0,0.0,0.0,0.0,0.0,0.0,0.0,0.0,0.0,0.0,0.0,0.0,0.0,0.0,0.0,0.0,0.0,0.0,0.0,0.0,0.0,0.0,0.0,0.0,0.0,0.0,0.0,0.0,0.0,0.0,0.0,0.0,0.0,0.0,0.0,0.0,0.0,0.0,0.0,0.0,0.0,0.0,0.0,0.0,0.0,0.0,0.0,0.0,0.0,0.0,0.0,0.0,0.0,0.0,0.0,0.0,0.0,0.0,0.0,0.0,0.0,0.0,0.0,0.0,0.0,0.0,5.003,5.003,5.0266,0.0,5.1265,0.0,0.0,0.0,0.0,0.0,0.0,0.0,0.0,0.0,0.0,0.0,0.0,0.0,0.0,0.0,0.0,0.0,0.0,0.0,0.0,0.0,0.0,0.0,0.0,0.0,0.0,0.0,0.0,0.0,0.0,0.0,0.0,0.0,0.0,0.0,0.0,0.0,0.0,0.0,0.0,0.0,0.0,0.0,0.0,0.0,0.0,0.0,0.0,0.0,0.0,0.0,0.0,0.0,0.0,0.0,0.0,0.0,0.0,0.0,0.0,0.0,0.0,0.0,0.0,0.0,0.0,0.0,0.0,0.0,0.0,0.0,0.0,0.0,0.0,0.0,0.0,0.0,0.0,0.0,0.0,0.0,0.0,0.0,0.0,0.0,0.0,0.0,0.0,0.0,0.0,0.0,0.0,0.0,0.0,0.0,0.0,0.0,0.0,0.0,0.0,0.0,0.0,0.0,0.0,0.0,0.0,0.0,0.0,0.0,0.0,5.0182,4.9892,5.0266,5.0678,0.0,0.0,0.0,0.0,0.0,0.0,0.0,0.0,0.0,0.0,0.0,0.0,0.0,0.0,0.0,0.0,0.0,0.0,0.0,0.0,0.0,0.0,0.0,0.0,0.0,0.0,0.0,0.0,0.0,0.0,0.0,0.0,0.0,0.0,0.0,0.0,0.0,0.0,0.0,0.0,0.0,0.0,0.0,0.0,0.0,0.0,0.0,0.0,0.0,0.0,0.0,0.0,0.0,0.0,0.0,0.0,0.0,0.0,0.0,0.0,0.0,0.0,0.0,0.0,0.0,0.0,0.0,0.0,0.0,0.0,0.0,0.0,0.0,0.0,0.0,0.0,0.0,0.0,0.0,0.0,0.0,0.0,0.0,0.0,0.0,0.0,0.0,0.0,0.0,0.0,0.0,0.0,0.0,0.0,0.0,0.0,0.0,0.0,0.0,0.0,0.0,0.0,0.0,0.0,0.0,0.0,0.0,0.0,0.0,0.0,5.0084,5.0196,4.9943,5.0227,5.0596,5.1016,0.0,0.0,0.0,0.0,0.0,0.0,0.0,0.0,0.0,0.0,0.0,0.0,0.0,0.0,0.0,0.0,0.0,0.0,0.0,0.0,0.0,0.0,0.0,0.0,0.0,0.0,0.0,0.0,0.0,0.0,0.0,0.0,0.0,0.0,0.0,0.0,0.0,0.0,0.0,0.0,0.0,0.0,0.0,0.0,0.0,0.0,0.0,0.0,0.0,0.0,0.0,0.0,0.0,0.0,0.0,0.0,0.0,0.0,0.0,0.0,0.0,0.0,0.0,0.0,0.0,0.0,0.0,0.0,0.0,0.0,0.0,0.0,0.0,0.0,0.0,0.0,0.0,0.0,0.0,0.0,0.0,0.0,0.0,0.0,0.0,0.0,0.0,0.0,0.0,0.0,0.0,0.0,0.0,0.0,0.0,0.0,0.0,0.0,0.0,0.0,0.0,0.0,0.0,0.0,0.0,0.0,0.0,0.0,4.9624,4.9624,4.9724,4.9892,4.9931,5.0389,0.0,0.0,0.0,0.0,0.0,0.0,0.0,0.0,0.0,0.0,0.0,0.0,0.0,0.0,0.0,0.0,0.0,0.0,0.0,0.0,0.0,0.0,0.0,0.0,0.0,0.0,0.0,0.0,0.0,0.0,0.0,0.0,0.0,0.0,0.0,0.0,0.0,0.0,0.0,0.0,0.0,0.0,0.0,0.0,0.0,0.0,0.0,0.0,0.0,0.0,0.0,0.0,0.0,0.0,0.0,0.0,0.0,0.0,0.0,0.0,0.0,0.0,0.0,0.0,0.0,0.0,0.0,0.0,0.0,0.0,0.0,0.0,0.0,0.0,0.0,0.0,0.0,0.0,0.0,0.0,0.0,0.0,0.0,0.0,0.0,0.0,0.0,0.0,0.0,0.0,0.0,0.0,0.0,0.0,0.0,0.0,0.0,0.0,0.0,0.0,0.0,0.0,0.0,0.0,0.0,0.0,0.0,0.0,0.0,4.9843,4.9438,4.9509,5.0108,4.9752,4.988,0.0,0.0,0.0,0.0,0.0,0.0,0.0,0.0,0.0,0.0,0.0,0.0,0.0,0.0,0.0,0.0,0.0,0.0,0.0,0.0,0.0,0.0,0.0,0.0,0.0,0.0,0.0,0.0,0.0,0.0,0.0,0.0,0.0,0.0,0.0,0.0,0.0,0.0,0.0,0.0,0.0,0.0,0.0,0.0,0.0,0.0,0.0,0.0,0.0,0.0,0.0,0.0,0.0,0.0,0.0,0.0,0.0,0.0,0.0,0.0,0.0,0.0,0.0,0.0,0.0,0.0,0.0,0.0,0.0,0.0,0.0,0.0,0.0,0.0,0.0,0.0,0.0,0.0,0.0,0.0,0.0,0.0,0.0,0.0,0.0,0.0,0.0,0.0,0.0,0.0,0.0,0.0,0.0,0.0,0.0,0.0,0.0,0.0,0.0,0.0,0.0,0.0,0.0,0.0,0.0,0.0,0.0,0.0,0.0,4.9552,0.0,4.9315,0.0,4.9622,4.9673,0.0,0.0,0.0,0.0,0.0,0.0,0.0,0.0,0.0,0.0,0.0,0.0,0.0,0.0,0.0,0.0,0.0,0.0,0.0,0.0,0.0,0.0,0.0,0.0,0.0,0.0,0.0,0.0,0.0,0.0,0.0,0.0,0.0,0.0,0.0,0.0,0.0,0.0,0.0,0.0,0.0,0.0,0.0,0.0,0.0,0.0,0.0,0.0,0.0,0.0,0.0,0.0,0.0,0.0,0.0,0.0,0.0,0.0,0.0,0.0,0.0,0.0,0.0,0.0,0.0,0.0,0.0,0.0,0.0,0.0,0.0,0.0,0.0,0.0,0.0,0.0,0.0,0.0,0.0,0.0,0.0,0.0,0.0,0.0,0.0,0.0,0.0,0.0,0.0,0.0,0.0,0.0,0.0,0.0,0.0,0.0,0.0,0.0,0.0,0.0,0.0,0.0,0.0,0.0,0.0,0.0,0.0,0.0,4.9754,4.8676,4.8872,4.9098,4.9311,4.9472,4.9761,0.0,0.0,0.0,0.0,0.0,0.0,0.0,0.0,0.0,0.0,0.0,0.0,0.0,0.0,0.0,0.0,0.0,0.0,0.0,0.0,0.0,0.0,0.0,0.0,0.0,0.0,0.0,0.0,0.0,0.0,0.0,0.0,0.0,0.0,0.0,0.0,0.0,0.0,0.0,0.0,0.0,0.0,0.0,0.0,0.0,0.0,0.0,0.0,0.0,0.0,0.0,0.0,0.0,0.0,0.0,0.0,0.0,0.0,0.0,0.0,0.0,0.0,0.0,0.0,0.0,0.0,0.0,0.0,0.0,0.0,0.0,0.0,0.0,0.0,0.0,0.0,0.0,0.0,0.0,0.0,0.0,0.0,0.0,0.0,0.0,0.0,0.0,0.0,0.0,0.0,0.0,0.0,0.0,0.0,0.0,0.0,0.0,0.0,0.0,0.0,0.0,0.0,0.0,0.0,0.0,0.0,0.0,0.0,0.0,4.8437,4.8614,4.8841,4.9067,4.9159,4.9403,0.0,0.0,0.0,0.0,0.0,0.0,0.0,0.0,0.0,0.0,0.0,0.0,0.0,0.0,0.0,0.0,0.0,0.0,0.0,0.0,0.0,0.0,0.0,0.0,0.0,0.0,0.0,0.0,0.0,0.0,0.0,0.0,0.0,0.0,0.0,0.0,0.0,0.0,0.0,0.0,0.0,0.0,0.0,0.0,0.0,0.0,0.0,0.0,0.0,0.0,0.0,0.0,0.0,0.0,0.0,0.0,0.0,0.0,0.0,0.0,0.0,0.0,0.0,0.0,0.0,0.0,0.0,0.0,0.0,0.0,0.0,0.0,0.0,0.0,0.0,0.0,0.0,0.0,0.0,0.0,0.0,0.0,0.0,0.0,0.0,0.0,0.0,0.0,0.0,0.0,0.0,0.0,0.0,0.0,0.0,0.0,0.0,0.0,0.0,0.0,0.0,0.0,0.0,0.0,0.0,0.0,0.0,0.0,0.0,4.9468,4.9202,4.9117,4.9241,4.9372,4.9493,4.9613,0.0,0.0,0.0,0.0,0.0,0.0,0.0,0.0,0.0,0.0,0.0,0.0,0.0,0.0,0.0,0.0,0.0,0.0,0.0,0.0,0.0,0.0,0.0,0.0,0.0,0.0,0.0,0.0,0.0,0.0,0.0,0.0,0.0,0.0,0.0,0.0,0.0,0.0,0.0,0.0,0.0,0.0,0.0,0.0,0.0,0.0,0.0,0.0,0.0,0.0,0.0,0.0,0.0,0.0,0.0,0.0,0.0,0.0,0.0,0.0,0.0,0.0,0.0,0.0,0.0,0.0,0.0,0.0,0.0,0.0,0.0,0.0,0.0,0.0,0.0,0.0,0.0,0.0,0.0,0.0,0.0,0.0,0.0,0.0,0.0,0.0,0.0,0.0,0.0,0.0,0.0,0.0,0.0,0.0,0.0,0.0,0.0,0.0,0.0,0.0,0.0,0.0,0.0,0.0,0.0,0.0,0.0,0.0,5.1434,5.0558,5.0066,4.9839,5.0113,5.0089,0.0,0.0,0.0,0.0,0.0,0.0,0.0,0.0,0.0,0.0,0.0,0.0,0.0,0.0,0.0,0.0,0.0,0.0,0.0,0.0,0.0,0.0,0.0,0.0,0.0,0.0,0.0,0.0,0.0,0.0,0.0,0.0,0.0,0.0,0.0,0.0,0.0,0.0,0.0,0.0,0.0,0.0,0.0,0.0,0.0,0.0,0.0,0.0,0.0,0.0,0.0,0.0,0.0,0.0,0.0,0.0,0.0,0.0,0.0,0.0,0.0,0.0,0.0,0.0,0.0,0.0,0.0,0.0,0.0,0.0,0.0,0.0,0.0,0.0,0.0,0.0,0.0,0.0,0.0,0.0,0.0,0.0,0.0,0.0,0.0,0.0,0.0,0.0,0.0,0.0,0.0,0.0,0.0,0.0,0.0,0.0,0.0,0.0,0.0,0.0,0.0,0.0,0.0,0.0,0.0,0.0,0.0,0.0,0.0,5.2827,5.2993,5.2773,5.2128,5.1379,5.1025,0.0,0.0,0.0,0.0,0.0,0.0,0.0,0.0,0.0,0.0,0.0,0.0,0.0,0.0,0.0,0.0,0.0,0.0,0.0,0.0,0.0,0.0,0.0,0.0,0.0,0.0,0.0,0.0,0.0,0.0,0.0,0.0,0.0,0.0,0.0,0.0,0.0,0.0,0.0,0.0,0.0,0.0,0.0,0.0,0.0,0.0,0.0,0.0,0.0,0.0,0.0,0.0,0.0,0.0,0.0,0.0,0.0,0.0,0.0,0.0,0.0,0.0,0.0,0.0,0.0,0.0,0.0,0.0,0.0,0.0,0.0,0.0,0.0,0.0,0.0,0.0,0.0,0.0,0.0,0.0,0.0,0.0,0.0,0.0,0.0,0.0,0.0,0.0,0.0,0.0,0.0,0.0,0.0,0.0,0.0,0.0,0.0,0.0,0.0,0.0,0.0,0.0,0.0,0.0,0.0,0.0,0.0,0.0,5.351,5.3964,5.5287,5.5591,5.482,5.3227,5.2158,0.0,0.0,0.0,0.0,0.0,0.0,0.0,0.0,0.0,0.0,0.0,0.0,0.0,0.0,0.0,0.0,0.0,0.0,0.0,0.0,0.0,0.0,0.0,0.0,0.0,0.0,0.0,0.0,0.0,0.0,0.0,0.0,0.0,0.0,0.0,0.0,0.0,0.0,0.0,0.0,0.0,0.0,0.0,0.0,0.0,0.0,0.0,0.0,0.0,0.0,0.0,0.0,0.0,0.0,0.0,0.0,0.0,0.0,0.0,0.0,0.0,0.0,0.0,0.0,0.0,0.0,0.0,0.0,0.0,0.0,0.0,0.0,0.0,0.0,0.0,0.0,0.0,0.0,0.0,0.0,0.0,0.0,0.0,0.0,0.0,0.0,0.0,0.0,0.0,0.0,0.0,0.0,0.0,0.0,0.0,0.0,0.0,0.0,0.0,0.0,0.0,0.0,0.0,0.0,0.0,0.0,0.0,0.0,5.4963,5.4821,5.708,5.7993,5.7371,5.5203,5.3432,0.0,0.0,0.0,0.0,0.0,0.0,0.0,0.0,0.0,0.0,0.0,0.0,0.0,0.0,0.0,0.0,0.0,0.0,0.0,0.0,0.0,0.0,0.0,0.0,0.0,0.0,0.0,0.0,0.0,0.0,0.0,0.0,0.0,0.0,0.0,0.0,0.0,0.0,0.0,0.0,0.0,0.0,0.0,0.0,0.0,0.0,0.0,0.0,0.0,0.0,0.0,0.0,0.0,0.0,0.0,0.0,0.0,0.0,0.0,0.0,0.0,0.0,0.0,0.0,0.0,0.0,0.0,0.0,0.0,0.0,0.0,0.0,0.0,0.0,0.0,0.0,0.0,0.0,0.0,0.0,0.0,0.0,0.0,0.0,0.0,0.0,0.0,0.0,0.0,0.0,0.0,0.0,0.0,0.0,0.0,0.0,0.0,0.0,0.0,0.0,0.0,0.0,0.0,0.0,0.0,0.0,0.0,0.0,5.4824,5.5479,5.6832,5.7725,5.816,5.5762,5.4482,0.0,0.0,0.0,0.0,0.0,0.0,0.0,0.0,0.0,0.0,0.0,0.0,0.0,0.0,0.0,0.0,0.0,0.0,0.0,0.0,0.0,0.0,0.0,0.0,0.0,0.0,0.0,0.0,0.0,0.0,0.0,0.0,0.0,0.0,0.0,0.0,0.0,0.0,0.0,0.0,0.0,0.0,0.0,0.0,0.0,0.0,0.0,0.0,6.5173,0.0,0.0,0.0,0.0,0.0,0.0,0.0,0.0,0.0,0.0,0.0,0.0,0.0,0.0,0.0,0.0,0.0,0.0,0.0,0.0,0.0,0.0,0.0,0.0,0.0,0.0,0.0,0.0,0.0,0.0,0.0,0.0,0.0,0.0,0.0,0.0,0.0,0.0,0.0,0.0,0.0,0.0,0.0,0.0,0.0,0.0,0.0,0.0,0.0,0.0,0.0,0.0,0.0,0.0,0.0,0.0,0.0,0.0,0.0,5.5109,5.5713,5.6992,5.773,5.784,5.6371,5.5539,0.0,0.0,0.0,0.0,0.0,0.0,0.0,0.0,0.0,0.0,0.0,0.0,0.0,0.0,0.0,0.0,0.0,0.0,0.0,0.0,0.0,0.0,0.0,0.0,0.0,0.0,0.0,0.0,0.0,0.0,0.0,0.0,0.0,0.0,0.0,0.0,0.0,0.0,0.0,0.0,0.0,0.0,0.0,0.0,0.0,0.0,0.0,0.0,0.0,0.0,0.0,0.0,0.0,0.0,0.0,0.0,0.0,0.0,0.0,0.0,0.0,0.0,0.0,0.0,0.0,0.0,0.0,0.0,0.0,0.0,0.0,0.0,0.0,0.0,0.0,0.0,0.0,0.0,0.0,0.0,0.0,0.0,0.0,0.0,0.0,0.0,0.0,0.0,0.0,0.0,0.0,0.0,0.0,0.0,0.0,0.0,0.0,0.0,0.0,0.0,0.0,0.0,0.0,0.0,0.0,0.0,0.0,5.4643,5.5407,5.5723,5.7132,5.7716,5.7289,5.693,5.6439,5.5805,0.0,0.0,0.0,0.0,0.0,0.0,0.0,0.0,0.0,0.0,0.0,0.0,0.0,0.0,0.0,0.0,0.0,0.0,0.0,0.0,0.0,0.0,0.0,0.0,0.0,0.0,0.0,0.0,0.0,0.0,0.0,0.0,0.0,0.0,0.0,0.0,0.0,0.0,6.0319,6.1193,0.0,0.0,0.0,0.0,0.0,0.0,0.0,0.0,6.3563,0.0,0.0,0.0,0.0,0.0,0.0,0.0,0.0,0.0,0.0,0.0,0.0,0.0,0.0,0.0,0.0,0.0,0.0,0.0,0.0,0.0,0.0,0.0,0.0,0.0,0.0,0.0,0.0,0.0,0.0,0.0,0.0,0.0,0.0,0.0,0.0,0.0,0.0,0.0,0.0,0.0,0.0,0.0,0.0,0.0,0.0,0.0,0.0,0.0,0.0,0.0,0.0,0.0,0.0,0.0,0.0,5.3552,5.4388,5.5093,5.5608,5.6635,5.7201,5.7289,5.7082,5.6806,5.6514,0.0,0.0,0.0,0.0,0.0,0.0,0.0,0.0,0.0,0.0,0.0,0.0,0.0,0.0,0.0,0.0,0.0,0.0,0.0,0.0,0.0,0.0,0.0,0.0,0.0,0.0,0.0,0.0,0.0,0.0,0.0,0.0,0.0,0.0,0.0,0.0,0.0,0.0,0.0,6.2561,6.2845,0.0,0.0,0.0,0.0,0.0,0.0,0.0,0.0,6.2849,0.0,0.0,0.0,0.0,0.0,0.0,0.0,0.0,0.0,0.0,0.0,0.0,0.0,0.0,0.0,0.0,0.0,0.0,0.0,0.0,0.0,0.0,0.0,0.0,0.0,0.0,0.0,0.0,0.0,0.0,0.0,0.0,0.0,0.0,0.0,0.0,0.0,0.0,0.0,0.0,0.0,0.0,0.0,0.0,0.0,0.0,0.0,0.0,0.0,0.0,0.0,0.0,0.0,0.0,0.0,5.4665,5.5403,5.6124,5.6741,5.7637,5.8216,5.8442,5.8236,5.8055,0.0,0.0,0.0,0.0,0.0,0.0,0.0,0.0,0.0,0.0,0.0,0.0,0.0,0.0,0.0,0.0,0.0,0.0,0.0,0.0,0.0,0.0,0.0,0.0,0.0,0.0,0.0,0.0,0.0,0.0,0.0,0.0,0.0,0.0,0.0,0.0,0.0,0.0,0.0,0.0,6.2485,6.2865,6.3856,0.0,0.0,0.0,0.0,0.0,0.0,6.3069,6.2978,0.0,0.0,0.0,0.0,0.0,0.0,0.0,0.0,0.0,0.0,0.0,0.0,0.0,0.0,0.0,0.0,0.0,0.0,0.0,0.0,0.0,0.0,0.0,0.0,0.0,0.0,0.0,0.0,0.0,0.0,0.0,0.0,0.0,0.0,0.0,0.0,0.0,0.0,0.0,0.0,0.0,0.0,0.0,0.0,0.0,0.0,0.0,0.0,0.0,0.0,0.0,0.0,0.0,0.0,0.0,5.5986,5.6672,5.7364,5.8018,5.88,5.9317,5.946,5.9278,5.9099,0.0,0.0,0.0,0.0,0.0,0.0,0.0,0.0,0.0,0.0,0.0,0.0,0.0,0.0,0.0,0.0,0.0,0.0,0.0,0.0,0.0,0.0,0.0,0.0,0.0,0.0,0.0,0.0,0.0,0.0,0.0,0.0,0.0,0.0,0.0,0.0,0.0,0.0,0.0,0.0,0.0,6.3139,6.39,6.4633,0.0,0.0,0.0,0.0,6.4024,6.3797,0.0,0.0,0.0,0.0,0.0,0.0,0.0,0.0,0.0,0.0,0.0,0.0,0.0,0.0,0.0,0.0,0.0,0.0,0.0,0.0,0.0,0.0,0.0,0.0,0.0,0.0,0.0,0.0,0.0,0.0,0.0,0.0,0.0,0.0,0.0,0.0,0.0,0.0,0.0,0.0,0.0,0.0,0.0,0.0,0.0,0.0,0.0,0.0,0.0,0.0,0.0,0.0,0.0,0.0,0.0,0.0,5.7002,5.7511,5.8105,5.8747,5.9066,5.9317,5.9494,5.9139,5.902,0.0,0.0,0.0,0.0,0.0,0.0,0.0,0.0,0.0,0.0,0.0,0.0,0.0,0.0,0.0,0.0,0.0,0.0,0.0,0.0,0.0,0.0,0.0,0.0,0.0,0.0,0.0,0.0,0.0,0.0,0.0,0.0,0.0,0.0,0.0,0.0,0.0,0.0,0.0,0.0,0.0,6.4186,6.4707,6.4396,6.4132,0.0,0.0,6.5021,6.4579,6.5718,0.0,0.0,0.0,0.0,0.0,0.0,0.0,0.0,0.0,0.0,0.0,0.0,0.0,0.0,0.0,0.0,0.0,0.0,0.0,0.0,0.0,0.0,0.0,0.0,0.0,0.0,0.0,0.0,0.0,0.0,0.0,0.0,0.0,0.0,0.0,0.0,0.0,0.0,0.0,0.0,0.0,0.0,0.0,0.0,0.0,0.0,0.0,0.0,0.0,0.0,0.0,0.0,0.0,0.0,0.0,5.748,5.7817,5.9063,5.9721,5.9711,6.0731,6.1167,6.0917,6.0518,6.037,0.0,0.0,0.0,0.0,0.0,0.0,0.0,0.0,0.0,0.0,0.0,0.0,0.0,0.0,0.0,0.0,0.0,0.0,0.0,0.0,0.0,0.0,0.0,0.0,0.0,0.0,0.0,0.0,0.0,0.0,0.0,0.0,0.0,0.0,0.0,0.0,0.0,0.0,0.0,0.0,0.0,0.0,6.4729,6.5546,0.0,0.0,0.0,6.6243,6.6482,0.0,0.0,0.0,0.0,0.0,0.0,0.0,0.0,0.0,0.0,0.0,0.0,0.0,0.0,0.0,0.0,0.0,0.0,0.0,0.0,0.0,0.0,0.0,0.0,0.0,0.0,0.0,0.0,0.0,0.0,0.0,0.0,0.0,0.0,0.0,0.0,0.0,0.0,0.0,0.0,0.0,0.0,0.0,0.0,0.0,0.0,0.0,0.0,0.0,0.0,0.0,0.0,0.0,0.0,0.0,0.0,0.0,5.8871,6.0506,6.1289,6.1171,6.2222,6.2628,6.23,6.1997,0.0,0.0,0.0,0.0,0.0,0.0,0.0,0.0,0.0,0.0,0.0,0.0,0.0,0.0,0.0,0.0,0.0,0.0,0.0,0.0,0.0,0.0,0.0,0.0,0.0,0.0,0.0,5.7689,0.0,0.0,0.0,0.0,0.0,0.0,0.0,0.0,0.0,0.0,0.0,0.0,0.0,0.0,6.6643,6.5637,6.7032,6.8048,0.0,0.0,6.7757,6.8471,6.8638,6.8426,0.0,0.0,0.0,0.0,0.0,0.0,0.0,0.0,0.0,0.0,0.0,0.0,0.0,0.0,0.0,0.0,0.0,0.0,0.0,0.0,0.0,0.0,0.0,0.0,0.0,0.0,0.0,0.0,0.0,0.0,0.0,0.0,0.0,0.0,0.0,0.0,0.0,0.0,0.0,0.0,0.0,0.0,0.0,0.0,0.0,0.0,0.0,0.0,0.0,0.0,0.0,0.0,0.0,0.0,0.0,6.0658,6.1598,6.2538,6.3348,6.3004,6.2917,6.3107,6.3087,6.265,0.0,0.0,0.0,0.0,0.0,0.0,0.0,0.0,0.0,0.0,0.0,0.0,0.0,0.0,0.0,0.0,0.0,0.0,0.0,0.0,0.0,0.0,0.0,0.0,0.0,0.0,0.0,0.0,0.0,0.0,0.0,0.0,0.0,0.0,0.0,0.0,0.0,0.0,0.0,0.0,0.0,6.9121,6.8432,6.8634,6.9229,0.0,0.0,6.9686,7.0161,7.1143,7.1128,6.8877,0.0,0.0,0.0,0.0,0.0,0.0,0.0,0.0,0.0,0.0,0.0,0.0,0.0,0.0,0.0,0.0,0.0,0.0,0.0,0.0,0.0,0.0,0.0,0.0,0.0,0.0,0.0,0.0,0.0,0.0,0.0,0.0,0.0,0.0,0.0,0.0,0.0,0.0,0.0,0.0,0.0,0.0,0.0,0.0,0.0,0.0,0.0,0.0,0.0,0.0,0.0,0.0,0.0,6.09,6.167,6.3023,6.3748,6.3826,6.417,6.4298,6.4052,6.3964,6.3693,0.0,0.0,0.0,0.0,0.0,0.0,0.0,0.0,0.0,0.0,0.0,0.0,0.0,0.0,0.0,0.0,0.0,0.0,0.0,0.0,0.0,0.0,0.0,0.0,0.0,0.0,0.0,0.0,5.9352,6.0022,6.1306,0.0,0.0,0.0,0.0,0.0,0.0,0.0,0.0,0.0,0.0,6.88,6.8775,6.9769,0.0,0.0,7.1049,7.093,7.1263,7.1077,7.0409,6.891,6.7793,0.0,0.0,0.0,0.0,0.0,0.0,0.0,0.0,0.0,0.0,0.0,0.0,0.0,0.0,0.0,0.0,0.0,0.0,0.0,0.0,0.0,0.0,0.0,0.0,0.0,0.0,0.0,0.0,0.0,0.0,0.0,0.0,0.0,0.0,0.0,0.0,0.0,0.0,0.0,0.0,0.0,0.0,0.0,0.0,0.0,0.0,0.0,0.0,0.0,0.0,0.0,0.0,6.1893,6.2611,6.4067,6.4762,6.4673,6.5144,6.5273,6.5033,6.4877,6.4694,0.0,0.0,0.0,0.0,0.0,0.0,0.0,0.0,0.0,0.0,0.0,0.0,0.0,0.0,0.0,0.0,0.0,0.0,0.0,0.0,0.0,0.0,0.0,0.0,0.0,0.0,0.0,0.0,6.0913,6.2037,6.3436,0.0,0.0,0.0,0.0,0.0,0.0,0.0,0.0,0.0,0.0,6.9454,6.9802,7.0864,7.1787,7.2194,7.1787,7.158,7.2065,7.1198,7.0235,6.9347,0.0,0.0,0.0,0.0,0.0,0.0,0.0,0.0,0.0,0.0,0.0,0.0,0.0,0.0,0.0,0.0,0.0,0.0,0.0,0.0,0.0,0.0,0.0,0.0,0.0,0.0,0.0,0.0,0.0,0.0,6.1997,0.0,0.0,0.0,0.0,0.0,0.0,0.0,0.0,0.0,0.0,0.0,0.0,0.0,0.0,0.0,0.0,0.0,0.0,0.0,0.0,0.0,0.0,6.2835,6.3568,6.4551,6.5478,6.6385,6.5766,6.5605,6.5984,6.597,6.563,6.4916,0.0,0.0,0.0,0.0,0.0,0.0,0.0,0.0,0.0,0.0,0.0,0.0,0.0,0.0,0.0,0.0,0.0,0.0,0.0,0.0,0.0,0.0,0.0,0.0,0.0,0.0,6.1341,6.245,6.3677,0.0,0.0,0.0,0.0,0.0,0.0,0.0,0.0,0.0,0.0,7.0237,7.1784,7.1956,7.1973,7.2279,7.3142,7.2142,7.1554,7.2454,7.1973,7.1215,0.0,0.0,0.0,0.0,0.0,0.0,0.0,0.0,0.0,0.0,0.0,0.0,0.0,0.0,0.0,0.0,0.0,0.0,0.0,0.0,0.0,0.0,0.0,0.0,0.0,0.0,0.0,6.333,6.2096,0.0,0.0,0.0,0.0,0.0,0.0,0.0,0.0,0.0,0.0,0.0,6.2058,6.246,0.0,0.0,0.0,0.0,0.0,0.0,0.0,0.0,0.0,0.0,0.0,0.0,6.4351,6.4626,6.6011,6.6709,6.672,6.6651,6.6724,6.6977,6.6998,6.6636,6.594,0.0,0.0,0.0,0.0,0.0,0.0,0.0,0.0,0.0,0.0,0.0,0.0,0.0,0.0,0.0,0.0,0.0,0.0,0.0,0.0,0.0,0.0,0.0,0.0,0.0,6.4194,0.0,0.0,0.0,0.0,0.0,0.0,0.0,0.0,0.0,0.0,0.0,7.0047,6.9721,7.1169,7.229,7.2355,7.3018,7.3587,0.0,0.0,0.0,0.0,0.0,0.0,0.0,0.0,0.0,0.0,0.0,0.0,0.0,0.0,6.8082,6.6116,6.5679,6.5703,6.6067,0.0,0.0,0.0,0.0,0.0,0.0,0.0,0.0,0.0,0.0,0.0,0.0,0.0,0.0,6.3101,0.0,6.1273,0.0,0.0,0.0,0.0,0.0,0.0,0.0,0.0,6.3339,6.346,6.3303,6.3833,6.4045,0.0,6.4333,6.3733,0.0,0.0,0.0,0.0,0.0,0.0,0.0,0.0,6.5922,6.6165,6.7488,6.8076,6.7752,6.8012,6.8323,6.8595,6.8575,6.8315,6.7832,6.773,6.7331,0.0,0.0,0.0,0.0,0.0,0.0,0.0,0.0,0.0,0.0,0.0,0.0,0.0,0.0,0.0,0.0,0.0,0.0,0.0,0.0,0.0,0.0,0.0,6.5868,0.0,0.0,0.0,0.0,0.0,0.0,0.0,0.0,0.0,6.971,7.0843,7.1824,7.1753,7.2921,7.3811,7.4014,0.0,0.0,0.0,0.0,0.0,0.0,0.0,7.3291,7.2867,7.2427,7.2209,7.2492,7.2921,7.3004,7.2309,0.0,0.0,6.7992,6.7374,6.7423,6.7764,6.7646,6.7603,6.8127,6.816,6.8282,0.0,0.0,0.0,0.0,0.0,0.0,0.0,0.0,6.2848,6.2568,0.0,6.177,0.0,0.0,0.0,0.0,0.0,6.3514,0.0,0.0,6.3729,6.4136,6.4779,6.5115,6.5222,6.5255,6.5959,6.5796,6.4845,6.3952,0.0,0.0,0.0,0.0,0.0,0.0,6.7547,6.8047,6.8946,6.9433,6.9442,6.9864,7.0298,7.0674,7.06,7.0499,7.0483,6.9559,6.9229,6.9614,6.9064,0.0,0.0,0.0,0.0,0.0,0.0,0.0,0.0,0.0,0.0,0.0,0.0,0.0,0.0,0.0,0.0,0.0,0.0,0.0,0.0,6.6699,0.0,0.0,0.0,0.0,0.0,0.0,0.0,0.0,0.0,0.0,7.173,7.2372,7.3287,7.4236,0.0,0.0,0.0,0.0,7.6403,7.577,7.5512,7.5308,7.5107,7.5427,7.5616,7.5324,0.0,0.0,7.5481,7.5396,7.5294,7.5003,7.4612,7.3267,7.029,6.9548,6.9317,6.9397,6.9359,6.9039,6.9051,6.9356,6.9446,6.6014,0.0,0.0,0.0,0.0,6.623,6.5404,6.3366,6.3354,6.2995,6.2336,6.174,0.0,0.0,0.0,0.0,0.0,0.0,6.6479,6.6133,6.67,6.6877,6.6805,6.7374,6.7653,6.7687,6.8075,6.8171,6.8043,6.7763,6.704,6.5901,0.0,0.0,0.0,0.0,6.903,6.9067,7.0102,7.058,7.0305,7.0461,7.0744,7.1159,7.1313,7.138,7.138,7.0811,7.0598,7.081,7.0288,0.0,0.0,0.0,0.0,0.0,0.0,0.0,0.0,0.0,0.0,0.0,0.0,0.0,0.0,0.0,0.0,0.0,0.0,0.0,6.9459,6.9793,7.0145,0.0,0.0,0.0,0.0,0.0,0.0,0.0,0.0,0.0,7.5688,7.538,7.5391,0.0,0.0,7.6879,7.6898,7.7073,7.715,7.6976,7.7034,0.0,7.807,7.8185,7.8332,7.8827,7.8898,7.885,7.8639,7.8665,7.8627,7.8119,7.7917,7.7372,7.6168,7.4379,7.358,7.4264,7.4417,7.4437,7.4897,7.4991,7.495,6.547,6.4337,6.6082,6.6314,6.5581,6.6119,6.527,6.3487,6.3475,6.3285,6.2915,6.2449,6.2857,6.3988,6.5369,0.0,0.0,0.0,6.7722,6.7536,6.8037,6.835,6.8493,6.9041,6.9287,6.9309,6.9757,6.9785,6.9399,6.9791,6.9431,6.837,0.0,0.0,6.9558,7.0092,7.0524,7.0878,7.1528,7.1822,7.1639,7.1947,7.2283,7.2647,7.2521,7.2635,7.2971,7.2398,7.2204,7.235,7.2068,7.2068,0.0,0.0,0.0,0.0,0.0,0.0,0.0,0.0,0.0,0.0,0.0,7.0253,7.0026,0.0,0.0,0.0,7.0538,7.0689,7.0769,7.1431,0.0,0.0,0.0,0.0,0.0,0.0,0.0,7.6017,7.656,7.7408,7.8596,7.8251,7.7974,7.8289,7.8762,7.9141,7.9235,0.0,7.982,7.9634,7.9784,8.0088,8.0597,8.072,8.0922,8.152,8.1543,8.1499,8.1369,8.1312,8.1248,8.1164,8.0876,8.0742,8.1091,7.974,7.8224,7.7642,7.7325,7.7476,7.815,7.8246,7.8266,6.5302,6.463,6.8372,6.884,6.7055,6.6452,6.5155,6.3493,6.3493,6.3567,6.3739,6.3739,6.4645,6.6288,6.749,0.0,6.7811,6.7811,6.8061,6.8402,6.8517,6.911,7.0086,7.0365,7.051,7.0532,7.121,7.0992,6.9983,7.0777,7.1298,7.1586,7.071,7.0891,7.2022,7.1644,7.2077,7.3242,7.319,7.3192,7.3261,7.4071,7.4579,7.4751,7.4287,7.438,7.5056,7.4363,7.408,7.4315,7.4154,7.3957,7.3712,0.0,0.0,0.0,0.0,0.0,0.0,0.0,0.0,0.0,0.0,0.0,0.0,0.0,0.0,0.0,7.2246,0.0,7.1934,7.2209,0.0,0.0,0.0,7.4098,7.4297,7.5782,7.6804,7.6893,0.0,0.0,8.0785,8.0856,8.0835,8.0962,8.1614,8.2282,8.2797,8.3116,8.3354,8.2784,8.3077,8.313,8.2934,8.3267,8.3711,8.3988,8.3863,8.3935,8.3898,8.3637,8.3661,8.412,8.3646,8.3458,8.496,8.4626,8.3556,8.0098,7.9219,7.9189,7.9923,7.998,8.0235,6.6987,6.6848,6.7808,6.7011,6.5193,6.6068,6.5835,6.4929,6.4895,6.4918,6.4962,6.4962,6.5813,6.7285,6.8158,6.8902,6.9583,6.9583,7.044,7.1807,7.1339,7.1635,7.263,7.2915,7.3085,7.3264,7.3635,7.3841,7.3907,7.4088,7.4545,7.5043,7.4704,7.4031,7.3046,7.34,7.3947,7.4618,7.4586,7.4912,7.5528,7.601,7.6305,7.6344,7.6647,7.6926,7.7105,7.6535,7.65,7.7038,7.5563,7.5181,7.6223,7.4935,0.0,0.0,0.0,0.0,0.0,0.0,0.0,0.0,0.0,7.2333,7.2157,0.0,7.2389,0.0,7.3191,7.3833,7.3868,7.5119,0.0,0.0,7.6409,7.6875,7.711,7.788,7.8705,7.9463,8.0458,8.1526,8.2721,8.2958,8.352,8.481,8.3809,8.2989,8.3281,8.3538,8.3702,8.372,8.4337,8.4937,8.5481,8.6515,8.7167,8.7333,8.7164,8.7085,8.7049,8.6991,8.6889,8.6793,8.6608,8.646,8.6347,8.6614,8.6625,8.5494,8.4485,8.3844,8.4019,8.4009,8.4176,6.9543,6.9509,6.9211,6.8374,6.7281,6.7082,6.6761,6.6397,6.6363,6.6397,6.643,6.7059,6.7926,6.8941,6.9902,7.0728,7.1341,7.1365,7.2012,7.3047,7.27,7.2955,7.3821,7.3958,7.4206,7.4528,7.5038,7.5301,7.5335,7.5697,7.6007,7.6164,7.6479,7.6003,7.4862,7.5178,7.5685,7.6258,7.5926,7.6076,7.6678,7.6914,7.7069,7.7166,7.7508,7.7783,7.8065,7.7766,7.7841,7.8309,7.7236,7.6912,7.7541,7.6212,7.5442,0.0,0.0,0.0,0.0,0.0,0.0,0.0,0.0,0.0,0.0,0.0,7.3779,7.4314,7.5747,7.6499,7.6139,7.7413,7.8276,7.8259,7.8927,7.9503,7.9699,8.0226,8.0984,8.198,8.2812,8.3883,8.5282,8.5519,8.6065,8.7576,8.6648,8.5882,8.5974,8.6119,8.6192,8.6281,8.6773,8.721,8.7614,8.8234,8.8813,8.9104,8.9118,8.9131,8.9361,8.9415,8.9389,8.9433,8.9318,8.9157,8.905,8.916,8.9268,8.8964,8.8396,8.778,8.7348,8.7255,8.7351,7.1993,7.1951,7.1289,7.1057,7.0891,6.898,6.8052,6.7887,6.7986,6.8019,6.8085,6.9524,7.0405,7.0948,7.2076,7.2792,7.3132,7.3203,7.3403,7.3683,7.3652,7.4057,7.4865,7.4819,7.5053,7.5595,7.6308,7.6439,7.6052,7.6849,7.704,7.6712,7.7459,7.7679,7.7269,7.7278,7.7475,7.7787,7.7183,7.713,7.7608,7.7647,7.7708,7.7915,7.7991,7.8184,7.8581,7.8636,7.8768,7.8905,7.8836,7.8666,7.8351,7.7288,7.684,0.0,7.6231,0.0,0.0,0.0,0.0,0.0,0.0,0.0,0.0,7.5279,7.5842,7.7198,7.8764,7.9413,7.8638,7.9485,8.0204,8.0454,8.132,8.2022,8.2308,8.2879,8.3644,8.4623,8.5282,8.6429,8.8125,8.829,8.8637,8.9677,8.9715,8.9496,8.9569,8.9295,8.9184,8.9675,8.9803,8.986,8.988,8.9788,8.995,9.0497,9.0678,9.0731,9.1193,9.1244,9.1347,9.1765,9.1527,9.1388,9.1864,9.155,9.1287,9.0931,9.0875,9.0618,8.9728,8.9447,8.9671,7.1993,7.1985,7.1852,7.1786,7.1753,7.1355,7.0494,6.9434,7.003,7.0262,7.0352,7.1431,7.2274,7.2938,7.3408,7.4085,7.4921,7.5317,7.5929,7.6742,7.6519,7.7147,7.8443,7.8038,7.8319,7.9197,7.957,7.9801,7.9856,8.0039,8.0133,8.0204,8.0387,8.0548,8.0692,0.0,0.0,0.0,7.8383,7.8907,7.9787,7.9948,8.0048,8.0108,8.0477,0.0,7.9913,8.003,8.0143,8.0144,7.9682,0.0,0.0,0.0,0.0,0.0,0.0,0.0,0.0,0.0,0.0,0.0,7.8576,7.8486,7.7996,7.796,7.841,7.9457,7.9992,8.0509,8.1122,8.2058,8.2876,8.3412,8.4233,8.4947,8.5534,8.6283,8.7067,8.7888,8.8801,8.9734,9.0685,9.096,9.1345,9.2152,9.2354,9.2336,9.2299,9.1143,9.0629,9.1289,9.1767,9.2519,9.3235,9.2938,9.2641,9.3207,9.3129,9.3013,9.31,9.2979,9.2843,9.3034,9.2816,9.2342,9.1604,9.1721,9.2064,9.156,9.2005,9.207,9.0877,9.062,9.0775,7.3401,7.36,7.2994,7.3069,0.0,7.2846,7.2746,7.2945,7.1885,7.1494,7.1706,7.2583,7.3311,7.3921,7.5037,7.6115,7.7114,7.7919,7.8806,7.9645,7.9534,7.9822,8.0431,8.0162,8.0178,8.0544,8.0688,8.0818,8.0905,8.0905,8.0969,8.1041,8.1041,8.114,8.1268,8.1692,8.1413,8.049,8.065,8.1021,8.1577,8.1731,8.1829,8.1946,8.2174,0.0,0.0,0.0,0.0,0.0,0.0,0.0,0.0,8.0728,0.0,8.0721,8.0182,7.9947,8.012,8.0537,8.0824,8.1032,8.2124,8.202,8.0179,8.1176,8.1807,8.1705,8.274,8.359,8.3834,8.4999,8.6043,8.6763,8.7515,8.8286,8.902,8.9423,8.9971,9.0813,9.1307,9.193,9.2829,9.2996,9.3198,9.3565,9.3345,9.3272,9.3529,9.2648,9.195,9.1895,9.2134,9.2574,9.2941,9.2996,9.3342,9.3837,9.396,9.4115,9.4727,9.4657,9.4439,9.4373,9.425,9.3918,9.3314,9.3409,9.351,9.3094,9.3247,9.3313,9.2545,9.2349,9.227,7.5146,7.5343,7.4381,7.4547,7.5318,7.413,7.4693,7.6236,0.0,0.0,0.0,7.4074,7.4825,7.5855,7.7326,7.8555,7.9569,8.0787,8.1643,8.2127,8.2082,8.2002,8.195,8.1671,8.1466,8.1326,8.1291,8.1396,8.1502,8.1502,8.1572,8.1699,8.1799,8.195,8.2086,8.2465,8.2994,8.3536,8.2956,8.2779,8.3116,8.3116,8.3193,8.3364,8.3402,8.3023,8.2229,8.223,8.1997,8.1491,8.2197,8.2686,8.2722,8.294,8.3048,8.3066,8.2503,8.2244,8.2521,8.3212,8.3808,8.4208,8.56,8.5209,8.2402,8.424,8.511,8.4059,8.5926,8.7022,8.6701,8.7949,8.916,8.9987,9.0647,9.1363,9.2079,9.2152,9.2408,9.3289,9.3361,9.3653,9.4574,9.4556,9.452,9.4446,9.4042,9.3712,9.4226,9.3786,9.3015,9.2537,9.2721,9.2648,9.2537,9.2868,9.3235,9.4611,9.4625,9.4838,9.5738,9.5919,9.5695,9.5426,9.5446,9.5133,9.4848,9.4604,9.4655,9.4239,9.4128,9.4133,9.4037,9.3822,9.3496,7.6003,7.5923,7.5893,7.5903,7.589,7.5842,7.6188,7.6704,7.6701,7.7119,7.7782,7.7451,7.879,8.1341,8.1228,8.1543,8.2397,8.3633,8.3937,8.3404,8.3108,8.3368,8.3904,8.2629,8.2322,8.2835,8.2892,8.3244,8.3818,8.3853,8.4227,8.4798,8.5261,8.5835,8.6588,8.6726,8.6969,8.7348,8.4248,8.303,8.3924,8.3924,8.3943,8.3982,8.4119,8.3781,8.3059,8.3209,8.3247,8.3157,8.3918,8.4464,8.479,8.5463,8.5971,8.629,8.6215,8.6213,8.6248,8.6358,8.6759,8.7509,8.8372,8.7841,8.5478,8.6138,8.6962,8.7437,8.8447,8.9308,8.9895,9.0702,9.1583,9.2372,9.2684,9.3088,9.3822,9.3914,9.4189,9.4978,9.5143,9.5417,9.6079,9.5804,9.5474,9.5382,9.5327,9.5198,9.5107,9.4666,9.4116,9.4079,9.4556,9.4905,9.4648,9.5547,9.5768,9.6318,9.6243,9.6259,9.6641,9.6379,9.6101,9.5935,9.5773,9.5248,9.4494,9.4069,9.4215,9.4028,9.3889,9.3806,9.4334,9.4239,9.3916,7.6384,7.6246,7.6724,7.7044,7.7253,7.8133,7.8252,7.7942,7.8873,7.8961,7.852,7.8537,7.9416,8.0889,8.1782,8.2349,8.2754,8.4437,8.5018,8.4668,8.4523,8.4648,8.4929,8.4262,8.4121,8.4437,8.4437,8.4648,8.4964,8.4999,8.531,8.5896,8.677,8.7578,8.8218,8.8675,8.8879,8.8823,8.6725,8.5869,8.6308,8.6425,8.6482,8.6482,8.6692,8.6444,8.5791,8.6265,8.6411,8.6063,8.7249,8.7979,8.8141,8.8892,8.9385,8.9583,8.9601,8.9601,8.9601,8.9601,8.9784,9.0152,9.0922,9.0959,8.9858,8.9674,8.9821,9.0152,9.0922,9.1528,9.195,9.2684,9.3492,9.4336,9.441,9.474,9.5437,9.5584,9.5768,9.6135,9.6539,9.6942,9.7309,9.7419,9.7437,9.7437,9.7126,9.6539,9.5694,9.5621,9.5254,9.4556,9.463,9.4813,9.4923,9.5511,9.6135,9.6612,9.6992,9.7337,9.7664,9.7455,9.7174,9.7148,9.6899,9.6557,9.5995,9.601,9.5924,9.5693,9.5562,9.5668,9.5728,9.5311,9.4596,7.7533,7.7288,7.7946,7.8325,7.8604,7.9678,7.9704,7.9171,8.0408,8.034,7.9395,7.9625,8.0156,8.102,8.2498,8.3286,8.3646,8.5248,8.6052,8.6017,8.5842,8.5771,8.5736,8.5596,8.5513,8.5581,8.5581,8.5709,8.5895,8.5998,8.636,8.7078,8.8178,8.9032,8.9482,9.0295,9.0532,9.0199,8.9643,8.9083,8.8575,8.8713,8.8881,8.9156,8.9382,8.9276,8.8819,8.9349,8.9494,8.9106,9.0408,9.1179,9.1161,9.1913,9.2354,9.2354,9.2354,9.2354,9.2354,9.2354,9.2354,9.2391,9.3161,9.362,9.3602,9.3418,9.296,9.2574,9.3125,9.3639,9.3786,9.4556,9.5364,9.5988,9.6189,9.6593,9.7126,9.7236,9.7236,9.7309,9.7787,9.8154,9.8264,9.8557,9.8668,9.8521,9.8264,9.7419,9.6575,9.6869,9.6612,9.5804,9.5254,9.529,9.5144,9.5878,9.6649,9.7199,9.767,9.814,9.8557,9.8493,9.8225,9.8074,9.7936,9.7693,9.7774,9.7716,9.7558,9.7261,9.7137,9.7172,9.6927,9.6374,9.5561,8.0435,8.0108,8.0227,8.0044,7.95,7.948,7.9732,8.0124,8.117,8.185,8.2026,8.1907,8.2961,8.478,8.5084,8.5505,8.6194,8.7246,8.7585,8.748,8.6895,8.6579,8.6474,8.5842,8.5627,8.5877,8.5935,8.6412,8.7271,8.755,8.8285,8.9525,9.042,9.1046,9.1546,9.2311,9.2713,9.2682,9.2776,9.1786,8.9807,8.9681,9.0104,9.1006,9.125,9.1325,9.1216,9.1437,9.1528,9.1546,9.2391,9.2868,9.2978,9.3639,9.4042,9.4042,9.4079,9.4079,9.4079,9.4098,9.4079,9.4116,9.485,9.5308,9.5382,9.6539,9.6355,9.485,9.4887,9.5308,9.5345,9.6612,9.7419,9.753,9.8154,9.8814,9.8741,9.8868,9.8888,9.8868,9.8888,9.8978,9.8961,9.8668,9.8283,9.8411,9.8467,9.8374,9.8521,9.8741,9.8851,9.8484,9.8043,9.7566,9.753,9.8227,9.8557,9.8795,9.8905,9.9122,9.9209,9.9069,9.8725,9.8781,9.8338,9.8221,9.8034,9.7825,9.7934,9.805,9.7847,9.7432,9.7174,9.7048,9.6541,8.0777,8.062,8.0994,8.1203,8.1188,8.1304,8.1588,8.2019,8.2897,8.3529,8.388,8.4024,8.4402,8.4894,8.5807,8.6158,8.6052,8.6825,8.693,8.6474,8.6158,8.6228,8.6649,8.6403,8.6541,8.7226,8.7261,8.7853,8.8988,8.9971,9.0774,9.1388,9.2376,9.3039,9.3277,9.4022,9.4265,9.3881,9.351,9.3181,9.2978,9.2543,9.2452,9.284,9.3103,9.3197,9.3233,9.3675,9.4006,9.4042,9.4777,9.5217,9.5217,9.5547,9.5731,9.5731,9.5731,9.5731,9.5731,9.6135,9.6448,9.6428,9.7163,9.762,9.762,9.8264,9.8154,9.7419,9.7456,9.764,9.7657,9.8264,9.8631,9.8668,9.8924,9.9088,9.9088,9.9088,9.9088,9.9145,9.9512,9.9805,9.9842,9.9952,9.9825,9.9548,9.9622,9.9952,9.9879,10.0209,10.0503,10.0466,10.0209,9.9585,9.8961,9.9292,9.9732,9.9879,10.0209,10.0503,10.0389,10.02,9.9932,9.9776,9.9487,9.9309,9.9295,9.9237,9.9237,9.9107,9.9179,9.9025,9.8937,9.8406,9.7826,8.1376,8.1371,8.169,8.2153,8.267,8.293,8.3141,8.3392,8.4177,8.4655,8.4949,8.5472,8.5738,8.5784,8.6439,8.6368,8.5982,8.6649,8.6719,8.6216,8.6226,8.6671,8.7397,8.7501,8.8085,8.8903,8.9111,8.9688,9.0827,9.1807,9.2451,9.2665,9.3638,9.4203,9.4291,9.5,9.5343,9.515,9.4629,9.4959,9.5953,9.5684,9.53,9.51,9.5215,9.5364,9.5621,9.6171,9.6483,9.6483,9.7052,9.7346,9.7346,9.7346,9.7383,9.7346,9.7346,9.7346,9.7383,9.7897,9.8227,9.8264,9.8814,9.9088,9.9181,9.9512,9.9732,9.9732,10.0136,10.0283,9.9475,9.9438,9.9512,9.9695,9.9732,9.9769,9.9805,9.9769,9.9805,9.9805,10.0319,10.0613,10.0686,10.1037,10.109,10.0723,10.1053,10.1347,10.0833,10.111,10.1441,10.1514,10.1477,10.1017,10.0026,10.0209,10.0576,10.0723,10.111,10.133,10.1514,10.1152,10.0923,10.0527,10.0512,10.0391,10.0158,10.0239,10.0238,10.0231,10.0187,10.0107,9.9932,9.9423,9.9081,8.3037,8.2797,8.2686,8.2952,8.3467,8.3583,8.3625,8.3812,8.4522,8.4995,8.5485,8.6091,8.7246,8.8615,8.7527,8.6754,8.686,8.755,8.7854,8.7831,8.7993,8.8508,8.9259,8.9502,9.0085,9.0834,9.1024,9.1632,9.2493,9.2671,9.276,9.3075,9.3965,9.4312,9.4472,9.5202,9.5887,9.6645,9.6757,9.7434,9.8407,9.8659,9.8244,9.7694,9.7676,9.7933,9.8631,9.8868,9.8868,9.8888,9.8831,9.8924,9.8941,9.8905,9.8868,9.8905,9.8905,9.8961,9.8924,9.8998,9.9035,9.9071,9.9272,9.9198,9.9548,10.065,10.1347,10.1404,10.2522,10.2522,10.087,10.0576,10.0723,10.122,10.1367,10.1347,10.133,10.1147,10.1367,10.1294,10.1334,10.1391,10.1424,10.1477,10.1497,10.1424,10.1477,10.1441,10.1404,10.1441,10.1514,10.1514,10.1514,10.1477,10.1367,10.1164,10.1294,10.133,10.133,10.1514,10.1514,10.1474,10.1332,10.1209,10.1023,10.0876,10.0834,10.0691,10.0621,10.0492,10.0333,10.0245,10.0215,10.0215,9.991,8.4323,8.4138,8.4066,8.4211,8.4509,8.5025,8.5373,8.557,8.6414,8.7421,8.8333,8.8649,8.9421,9.0406,8.9879,8.9729,8.9835,8.9225,8.9213,8.974,8.9891,9.0091,9.0326,9.0454,9.0697,9.1267,9.1515,9.2251,9.3449,9.4087,9.4735,9.5232,9.5579,9.5978,9.647,9.6887,9.7367,9.7756,9.7617,9.7964,9.8896,9.8555,9.8631,9.9365,9.8924,9.8814,9.9088,9.9088,9.9088,9.9088,9.9088,9.9088,9.9088,9.9088,9.9088,9.9088,9.9088,9.9088,9.9125,9.9585,9.9879,9.9952,10.087,10.1347,10.1567,10.2375,10.3036,10.3146,10.3439,10.3513,10.3476,10.2925,10.2485,10.2301,10.2265,10.2045,10.1604,10.1514,10.1554,10.1674,10.1793,10.1891,10.1871,10.1891,10.1852,10.1714,10.1694,10.1634,10.1534,10.1514,10.1514,10.1514,10.1514,10.1514,10.1514,10.1477,10.1477,10.1477,10.1514,10.1514,10.1514,10.1393,10.125,10.1229,10.1168,10.1064,10.0881,10.0876,10.0791,10.0621,10.0406,10.0355,10.0237,10.0289,10.0223,8.5116,8.5186,8.5453,8.5675,8.5988,8.709,8.7656,8.784,8.8708,8.9792,9.0647,9.0566,9.1059,9.1908,9.1675,9.2114,9.2695,9.0846,9.0152,9.0866,9.0971,9.1158,9.1394,9.1463,9.1755,9.2186,9.2465,9.3344,9.4674,9.5444,9.6195,9.6919,9.6992,9.731,9.7845,9.803,9.8349,9.8692,9.8583,9.8963,9.9986,9.9732,10.0062,10.1164,10.0943,10.0393,9.9952,10.0136,10.0226,10.0283,10.0283,10.0136,9.9916,9.9879,9.9879,9.9916,10.0172,10.0263,10.0356,10.1017,10.1494,10.1494,10.2412,10.3072,10.3146,10.3843,10.421,10.432,10.4614,10.4981,10.5238,10.4981,10.4357,10.3623,10.3256,10.2779,10.2008,10.1898,10.1851,10.1847,10.1949,10.2085,10.2123,10.2104,10.2027,10.191,10.191,10.1812,10.1654,10.1594,10.1574,10.1514,10.1514,10.1514,10.1514,10.1514,10.1514,10.1514,10.1514,10.1514,10.1494,10.1352,10.127,10.125,10.1188,10.1069,10.0986,10.0981,10.0876,10.0728,10.0643,10.0578,10.0507,10.0442,10.0398,8.5482,8.6069,8.686,8.7415,8.7867,8.9396,9.0212,9.0076,9.0895,9.1431,9.1935,9.135,9.2277,9.3475,9.2832,9.3367,9.4752,9.2413,9.1128,9.1348,9.1496,9.1956,9.2583,9.2873,9.3366,9.4028,9.449,9.5347,9.6442,9.6593,9.6992,9.768,9.7846,9.8048,9.8166,9.8447,9.8912,9.9805,10.0038,10.0872,10.2408,10.2448,10.2742,10.3549,10.3549,10.2852,10.1587,10.2191,10.2522,10.2558,10.2558,10.2265,10.1624,10.1514,10.1494,10.1624,10.2191,10.2595,10.2669,10.3219,10.3476,10.3549,10.3806,10.3917,10.4027,10.4651,10.5128,10.5201,10.5736,10.6287,10.6287,10.6213,10.581,10.5165,10.4284,10.3586,10.2983,10.2726,10.255,10.22,10.2231,10.216,10.2123,10.2181,10.2181,10.2142,10.2104,10.2027,10.1832,10.1773,10.1694,10.1574,10.1514,10.1514,10.1514,10.1514,10.1514,10.1514,10.1514,10.1514,10.1514,10.1433,10.1413,10.1393,10.1393,10.1311,10.1254,10.1229,10.1147,10.1059,10.0939,10.0791,10.0707,10.0621,10.06,8.7196,8.7228,8.8839,8.9348,8.9198,9.0085,9.0518,9.0583,9.0509,9.1441,9.288,9.3043,9.4271,9.5829,9.5533,9.5695,9.6553,9.5012,9.416,9.3849,9.3906,9.4059,9.4403,9.4912,9.5535,9.6091,9.644,9.6856,9.7311,9.7412,9.7825,9.8499,9.8758,9.9171,9.9735,10.0083,10.0735,10.1534,10.1808,10.2424,10.3439,10.3513,10.366,10.3843,10.388,10.3623,10.3219,10.3403,10.3513,10.3513,10.3549,10.3403,10.3182,10.3146,10.3166,10.3182,10.3366,10.3549,10.3549,10.377,10.3953,10.4027,10.443,10.4724,10.4834,10.5532,10.5972,10.5993,10.6355,10.6565,10.6439,10.6523,10.6176,10.5201,10.4871,10.4492,10.3978,10.4014,10.41,10.3939,10.363,10.3446,10.3261,10.3001,10.2593,10.2462,10.2424,10.2312,10.2139,10.2095,10.1793,10.1714,10.1634,10.1795,10.1982,10.2055,10.1978,10.1775,10.1644,10.1514,10.1514,10.1514,10.1514,10.1514,10.1514,10.1514,10.1494,10.1433,10.1332,10.1287,10.1106,10.0981,10.0839,10.0797,10.0855,8.8291,8.8199,9.0138,9.0611,9.0182,9.1014,9.1504,9.1705,9.2104,9.3249,9.4794,9.5493,9.6398,9.7416,9.7382,9.7261,9.7183,9.6756,9.6388,9.6006,9.5708,9.5637,9.5695,9.6158,9.6662,9.7062,9.7294,9.7716,9.8223,9.8346,9.8788,9.9484,9.975,10.0321,10.1113,10.1534,10.2087,10.2866,10.3084,10.3549,10.4173,10.4357,10.4504,10.4761,10.4834,10.4834,10.4834,10.5112,10.4981,10.4504,10.4357,10.421,10.3953,10.3843,10.388,10.3953,10.4173,10.4357,10.4394,10.4687,10.4834,10.4944,10.5311,10.5568,10.5752,10.6339,10.6785,10.6596,10.6921,10.702,10.6742,10.6751,10.6456,10.5912,10.5772,10.5466,10.5026,10.488,10.487,10.4742,10.4578,10.4467,10.4282,10.404,10.3595,10.3446,10.3428,10.3353,10.32,10.3103,10.2932,10.2834,10.2977,10.2991,10.2804,10.2633,10.2463,10.2166,10.1831,10.1644,10.1514,10.1514,10.1514,10.1514,10.1514,10.1514,10.1494,10.1494,10.1433,10.1352,10.1291,10.125,10.1152,10.1131,10.1126,8.892,8.9161,9.1063,9.1568,9.1212,9.2651,9.3293,9.339,9.5123,9.6275,9.7102,9.7768,9.8279,9.8161,9.8362,9.8215,9.7825,9.7897,9.7897,9.7635,9.723,9.6897,9.6765,9.7033,9.7344,9.7511,9.7793,9.8338,9.9303,9.9455,9.9859,10.0717,10.0874,10.1413,10.2218,10.2485,10.2976,10.3802,10.3953,10.4357,10.5128,10.529,10.5605,10.636,10.6486,10.6523,10.6596,10.7058,10.6816,10.5605,10.5532,10.5201,10.4394,10.41,10.4357,10.432,10.4834,10.5201,10.5401,10.5899,10.6413,10.6486,10.6449,10.6486,10.6706,10.7116,10.7384,10.7163,10.7672,10.7812,10.727,10.7166,10.7092,10.6962,10.6709,10.6378,10.5927,10.5478,10.5428,10.5281,10.5246,10.5285,10.5248,10.5136,10.4969,10.4969,10.4913,10.4745,10.4632,10.4406,10.4645,10.4474,10.4078,10.3926,10.3626,10.3486,10.3279,10.3035,10.2533,10.2085,10.1698,10.1587,10.1514,10.1514,10.1587,10.1551,10.1514,10.1514,10.1514,10.1454,10.1454,10.1494,10.1474,10.1393,10.1311,9.0296,9.042,9.2918,9.3709,9.3533,9.5064,9.5531,9.5453,9.6397,9.713,9.7541,9.8101,9.908,9.9808,9.9603,9.9668,9.9859,9.999,10.0097,10.0086,10.0136,9.9349,9.8655,9.8787,9.9015,9.9177,9.9835,10.0563,10.0987,10.1001,10.1546,10.252,10.2092,10.2422,10.3164,10.3421,10.3965,10.4667,10.4798,10.5201,10.5972,10.6596,10.7021,10.7278,10.7807,10.8101,10.8175,10.8358,10.8358,10.7918,10.7844,10.744,10.6617,10.6507,10.6287,10.5862,10.5935,10.6339,10.6853,10.711,10.7514,10.8028,10.7551,10.7535,10.8101,10.7941,10.8083,10.8356,10.8968,10.891,10.813,10.8009,10.781,10.7348,10.7195,10.7047,10.6924,10.6931,10.6861,10.6843,10.6399,10.612,10.5991,10.5675,10.5359,10.5359,10.534,10.5377,10.5395,10.5263,10.5316,10.4942,10.4604,10.4563,10.4428,10.4306,10.4132,10.3981,10.3476,10.2819,10.2248,10.1698,10.1587,10.1514,10.1734,10.1771,10.1587,10.1514,10.1514,10.1514,10.1514,10.1514,10.1514,10.1454,10.1433,9.2009,9.206,9.4453,9.5343,9.5289,9.619,9.6428,9.6397,9.7508,9.8108,9.843,9.9718,10.0558,10.1045,10.0938,10.0882,10.1001,10.1001,10.0965,10.1003,10.1306,10.0948,10.0455,10.0636,10.0796,10.0878,10.1628,10.2032,10.2208,10.2397,10.2861,10.323,10.3185,10.3473,10.4169,10.4347,10.4834,10.5495,10.5678,10.6046,10.6874,10.7352,10.8012,10.8343,10.8835,10.8909,10.9239,10.9606,10.9533,10.8982,10.8762,10.8578,10.8175,10.8086,10.7881,10.7404,10.7404,10.7624,10.7954,10.8101,10.8321,10.8615,10.8285,10.8358,10.8673,10.8707,10.9034,10.9139,10.9793,10.9714,10.9185,10.882,10.8471,10.8083,10.7655,10.7452,10.7433,10.7492,10.7569,10.7458,10.7198,10.6919,10.69,10.6455,10.6269,10.6251,10.6362,10.6343,10.6324,10.6081,10.5912,10.5744,10.5762,10.5852,10.5848,10.5711,10.5237,10.503,10.4464,10.3786,10.3166,10.2432,10.2212,10.2212,10.2081,10.1955,10.1844,10.1698,10.1514,10.1514,10.1514,10.1514,10.1514,10.1514,10.1494,9.3829,9.4009,9.5687,9.6469,9.6552,9.6692,9.6672,9.6657,9.8699,9.9477,9.9744,10.1822,10.2091,10.1852,10.1818,10.1774,10.1179,10.1393,10.1491,10.1698,10.2072,10.2261,10.2499,10.2037,10.203,10.2194,10.2772,10.3044,10.322,10.3522,10.3802,10.4048,10.407,10.4446,10.5049,10.5217,10.5715,10.6339,10.6523,10.7037,10.7792,10.8159,10.8857,11.0032,10.979,10.9863,11.034,11.0781,11.0671,10.9129,10.9129,10.9386,10.9276,10.9202,10.9055,10.8982,10.8909,10.8894,10.9062,10.912,10.9105,10.9295,10.9222,10.9047,10.939,10.977,10.9977,10.999,11.0401,11.0572,11.0162,10.9538,10.911,10.8887,10.8293,10.7829,10.7718,10.7643,10.7606,10.7606,10.7569,10.7606,10.7606,10.7606,10.7532,10.6937,10.7068,10.7012,10.7012,10.6937,10.6955,10.7066,10.7177,10.7401,10.7305,10.7191,10.6588,10.6098,10.5455,10.4832,10.4419,10.3806,10.3366,10.3146,10.2925,10.2595,10.2322,10.2065,10.1918,10.1771,10.1934,10.1714,10.1531,10.1514,10.1494,9.5079,9.5584,9.6718,9.7203,9.731,9.7928,9.8034,9.7997,10.0299,10.0934,10.0781,10.1825,10.2317,10.2174,10.2296,10.206,10.206,10.2538,10.308,10.3544,10.3844,10.4489,10.4534,10.3601,10.2737,10.304,10.3551,10.4035,10.4377,10.4674,10.5006,10.5594,10.5285,10.5311,10.6046,10.6339,10.6523,10.7205,10.7388,10.8159,10.9166,10.9444,11.0142,11.1478,11.1552,11.1625,11.1808,11.2029,11.1662,11.1111,11.1221,11.1405,11.1221,11.0891,11.0634,11.0509,11.0142,11.017,11.0631,11.0475,11.0355,11.0983,11.0577,11.0546,11.1157,11.0877,11.1112,11.1424,11.1917,11.1738,11.1301,11.0374,11.004,10.9854,10.9223,10.8665,10.8517,10.8015,10.7643,10.7606,10.7606,10.7606,10.7606,10.7606,10.7606,10.7606,10.7606,10.7606,10.7606,10.7606,10.7606,10.7606,10.7606,10.7606,10.7568,10.7434,10.715,10.6754,10.6263,10.5861,10.545,10.4917,10.4407,10.3999,10.3696,10.3329,10.2962,10.3072,10.3036,10.2742,10.2412,10.2265,10.2101,10.1881,10.1824,9.6601,9.6972,9.7679,9.8479,9.9231,9.9859,10.0254,10.0717,10.2166,10.2767,10.2644,10.3116,10.3309,10.3345,10.3309,10.3166,10.3038,10.3709,10.4376,10.4815,10.5332,10.604,10.6398,10.5599,10.4917,10.5217,10.585,10.6094,10.6049,10.6361,10.682,10.6963,10.6816,10.7147,10.7551,10.7807,10.8321,10.8783,10.9129,10.9753,11.0414,11.0597,11.0781,11.1772,11.2176,11.2396,11.2359,11.2785,11.2689,11.2543,11.2689,11.2543,11.2029,11.1808,11.1816,11.1816,11.2022,11.2094,11.2488,11.2147,11.1858,11.2354,11.171,11.1615,11.1784,11.1556,11.1659,11.2169,11.2604,11.2834,11.2955,11.2343,11.1766,11.1135,11.0503,10.9929,10.9371,10.8405,10.7606,10.7606,10.7606,10.7606,10.7606,10.7606,10.7606,10.7606,10.7606,10.7606,10.7606,10.7606,10.7606,10.7606,10.7606,10.7606,10.7606,10.751,10.7394,10.7129,10.6939,10.6669,10.6394,10.5867,10.5286,10.491,10.4513,10.41,10.3806,10.3953,10.3974,10.3513,10.3182,10.2962,10.2872,10.2852,10.2889,9.7945,9.8142,9.8831,9.9979,10.1169,10.166,10.221,10.2933,10.3915,10.4176,10.4578,10.4701,10.4558,10.4558,10.4487,10.4155,10.4066,10.4505,10.5136,10.5728,10.6402,10.6979,10.729,10.7396,10.7704,10.824,10.7954,10.7739,10.7731,10.825,10.808,10.7976,10.8358,10.8431,10.8835,10.9349,10.9569,10.9775,11.045,11.1184,11.1588,11.1698,11.1845,11.2543,11.2726,11.3313,11.346,11.357,11.3593,11.3754,11.3644,11.2822,11.2036,11.1985,11.275,11.2969,11.336,11.3549,11.3684,11.3304,11.2771,11.2977,11.2406,11.1999,11.1983,11.2025,11.207,11.2411,11.2884,11.3778,11.4754,11.4201,11.3532,11.2918,11.2138,11.1395,11.0597,10.9185,10.8498,10.7885,10.7718,10.7606,10.7606,10.7606,10.7606,10.7606,10.7606,10.7606,10.7606,10.7606,10.7606,10.7606,10.7606,10.7606,10.7606,10.7587,10.7452,10.7375,10.7296,10.7198,10.7059,10.6646,10.6082,10.5748,10.5388,10.5016,10.4828,10.4959,10.4791,10.4288,10.399,10.3843,10.3806,10.388,10.3843,9.7893,9.8953,10.0502,10.1244,10.1431,10.2352,10.2927,10.3142,10.4237,10.4543,10.4747,10.521,10.52,10.4818,10.4604,10.4613,10.4814,10.5313,10.5943,10.6679,10.7293,10.781,10.8557,10.8963,10.9693,11.0123,10.9532,10.8594,10.8647,10.8704,10.9019,10.8725,10.8835,10.8945,10.9092,10.9019,10.9863,11.056,11.1295,11.2176,11.2836,11.313,11.357,11.4415,11.4341,11.4892,11.5479,11.4561,11.3923,11.4451,11.396,11.3279,11.2786,11.2757,11.3338,11.3993,11.3791,11.3874,11.4398,11.335,11.2654,11.2517,11.2517,11.2463,11.2426,11.2426,11.2406,11.2706,11.3266,11.4086,11.4886,11.4795,11.4758,11.4329,11.3809,11.3215,11.2789,11.1637,11.0169,10.9371,10.8535,10.768,10.7792,10.7755,10.7606,10.7606,10.7606,10.7606,10.7606,10.7606,10.7606,10.7606,10.7606,10.7606,10.7606,10.7606,10.7529,10.7452,10.7394,10.7355,10.722,10.72,10.6934,10.6515,10.6374,10.626,10.6125,10.5969,10.5645,10.5142,10.4933,10.4687,10.4651,10.4577,10.432,9.9127,10.0663,10.1121,10.1922,10.2936,10.3624,10.4406,10.5056,10.5577,10.6021,10.6271,10.6378,10.6164,10.5843,10.5807,10.5746,10.5737,10.6334,10.7157,10.8039,10.8823,10.9596,11.0236,11.0573,11.1284,11.174,11.1032,11.0421,11.059,11.0267,11.0267,11.0524,11.0304,11.023,11.0707,11.1221,11.1353,11.1992,11.291,11.3717,11.4194,11.4231,11.4818,11.5112,11.5589,11.6103,11.669,11.636,11.5663,11.5869,11.5432,11.4957,11.4523,11.4108,11.3868,11.4222,11.4049,11.4308,11.5051,11.4298,11.3988,11.4309,11.3698,11.3178,11.3049,11.2881,11.2769,11.3198,11.3421,11.4127,11.4907,11.4981,11.4981,11.4923,11.4647,11.4461,11.4143,11.3235,11.2158,11.0969,10.9575,10.8703,10.8257,10.8071,10.7718,10.7606,10.7643,10.768,10.7718,10.7718,10.7755,10.7606,10.7606,10.7606,10.7606,10.7606,10.7606,10.7529,10.7491,10.7433,10.7433,10.7376,10.7413,10.7244,10.72,10.7039,10.6864,10.6525,10.6288,10.6054,10.5866,10.5641,10.5427,10.5201,10.5018,10.0121,10.1849,10.1732,10.2832,10.4537,10.5314,10.6129,10.7004,10.7092,10.7413,10.7912,10.7448,10.7056,10.6903,10.6731,10.6563,10.6494,10.7523,10.8541,10.9581,11.0512,11.1443,11.1878,11.2303,11.2474,11.2917,11.2751,11.2853,11.2402,11.1955,11.2102,11.2139,11.1882,11.1955,11.2543,11.2836,11.3519,11.4033,11.4929,11.5406,11.5369,11.5442,11.5626,11.5699,11.625,11.6984,11.8085,11.7278,11.7278,11.7288,11.6999,11.6496,11.6506,11.5802,11.4889,11.4231,11.4491,11.5188,11.5642,11.5369,11.4829,11.4961,11.4515,11.4089,11.3755,11.3495,11.3438,11.4052,11.4164,11.4441,11.5146,11.5109,11.5018,11.4981,11.4981,11.4944,11.4663,11.4164,11.3606,11.2269,11.0672,10.9891,10.9557,10.9297,10.9111,10.8442,10.8442,10.8331,10.8368,10.8145,10.8071,10.7718,10.7606,10.7606,10.7606,10.7606,10.7606,10.7587,10.7568,10.7549,10.7568,10.7568,10.7605,10.7604,10.7413,10.7237,10.7138,10.7059,10.679,10.6652,10.6698,10.6521,10.6087,10.5925,10.5825,9.9693,10.1027,10.3523,10.494,10.5697,10.7,10.7727,10.7912,10.7948,10.7984,10.8198,10.8019,10.7663,10.7143,10.6599,10.6852,10.7667,10.8707,10.9785,11.0838,11.1599,11.2095,11.2241,11.257,11.3261,11.3767,11.3668,11.3539,11.346,11.3336,11.3336,11.3446,11.3336,11.335,11.3424,11.3791,11.3593,11.3813,11.4635,11.5699,11.6764,11.7498,11.8122,11.8452,11.8489,11.8709,11.959,11.8636,11.8085,11.8966,11.7912,11.7407,11.7576,11.765,11.692,11.6057,11.546,11.5312,11.5963,11.5555,11.5055,11.5035,11.4663,11.4424,11.4201,11.4387,11.4758,11.5798,11.5241,11.4923,11.5258,11.5183,11.5055,11.4907,11.4832,11.4907,11.487,11.4626,11.4164,11.3718,11.2195,11.1506,11.106,11.082,11.0523,10.978,10.9185,10.9111,10.9,10.8814,10.8665,10.8405,10.8275,10.8275,10.8182,10.8108,10.7903,10.7829,10.7829,10.7829,10.794,10.8015,10.7811,10.7791,10.762,10.7451,10.7298,10.7237,10.7178,10.7059,10.6938,10.6833,10.6652,10.6565,10.6439,10.1965,10.3631,10.4503,10.5867,10.7351,10.7791,10.8244,10.8697,10.8795,10.8795,10.8867,10.9233,10.8983,10.8276,10.8153,10.8481,10.9227,11.0152,11.1232,11.2045,11.2602,11.3036,11.346,11.3658,11.4146,11.4521,11.4638,11.4799,11.4631,11.418,11.3923,11.4731,11.4144,11.385,11.4378,11.4768,11.4929,11.5369,11.6177,11.7168,11.7902,11.8636,11.926,11.959,11.9664,12.0178,12.0288,12.0141,11.9554,12.0176,11.9361,11.9381,11.9615,11.9468,11.8898,11.9078,11.825,11.7396,11.6393,11.5889,11.5741,11.5703,11.5666,11.5315,11.4795,11.4832,11.5167,11.5427,11.4775,11.4663,11.4775,11.4032,11.4069,11.4127,11.4424,11.4684,11.4758,11.4795,11.4498,11.4164,11.3755,11.2881,11.1989,11.1266,11.082,11.0263,10.9854,10.9817,10.9743,10.9612,10.9483,10.9297,10.924,10.924,10.9074,10.8925,10.8591,10.848,10.848,10.8517,10.8591,10.8554,10.848,10.8405,10.8385,10.8104,10.7657,10.7396,10.7375,10.7257,10.7118,10.6958,10.6853,10.6689,10.6565,10.397,10.6115,10.5619,10.6669,10.8543,10.8413,10.8868,10.9518,10.958,10.958,10.9652,10.9911,10.983,10.9739,10.9725,10.9891,11.0552,11.1623,11.2475,11.3131,11.358,11.3906,11.4235,11.4527,11.4934,11.5518,11.5721,11.6044,11.6047,11.5516,11.5222,11.5956,11.5259,11.5002,11.5479,11.614,11.6617,11.6727,11.7865,11.8526,11.8856,11.9517,11.9811,12.0067,12.0288,12.0581,12.0545,12.0178,12.0104,12.0359,12.0237,12.032,12.0982,12.0459,12.0054,12.0049,11.9365,11.8287,11.7359,11.6929,11.7152,11.7078,11.6818,11.6038,11.6186,11.5798,11.6021,11.6616,11.5592,11.513,11.4535,11.3995,11.3883,11.3958,11.3809,11.4143,11.4403,11.4292,11.4032,11.3512,11.3289,11.3475,11.2546,11.16,11.0969,11.0597,11.0486,11.056,11.0486,11.0392,11.0132,10.9966,10.9854,10.9817,10.9743,10.9557,10.9297,10.9185,10.9185,10.9223,10.9297,10.9408,10.9426,10.9352,10.9223,10.9035,10.8774,10.8162,10.7568,10.7433,10.7296,10.7138,10.6978,10.6816,10.6689,10.4644,10.737,10.73,10.7591,10.8216,10.9605,11.0205,11.0312,11.0312,11.0312,11.0268,10.9866,11.0142,11.0486,11.0496,11.0778,11.1623,11.2706,11.3204,11.3591,11.3989,11.4377,11.4731,11.5053,11.5555,11.6369,11.6635,11.7263,11.7768,11.7058,11.647,11.6126,11.6356,11.6787,11.7168,11.7608,11.8122,11.8342,11.915,11.948,11.9737,12.0251,12.0728,12.0581,12.0141,11.97,11.9664,11.9394,11.9344,11.9918,12.02,12.0675,12.136,12.1067,12.0731,12.0272,11.9773,11.8733,11.799,11.8139,11.851,11.7672,11.7041,11.7136,11.7784,11.7486,11.7953,11.8659,11.7433,11.6929,11.6483,11.5889,11.4886,11.4552,11.4292,11.3995,11.4069,11.3698,11.3401,11.2881,11.2918,11.3289,11.3178,11.2175,11.1655,11.1283,11.1432,11.1506,11.134,11.1172,11.082,11.056,11.0337,11.0263,11.0226,11.0077,11.004,11.004,10.9983,11.004,11.004,11.0189,11.054,11.0169,11.004,10.9966,10.9743,10.898,10.8293,10.7734,10.7452,10.7296,10.7099,10.6877,10.6812,10.4608,10.632,10.7606,10.8931,11.0127,10.9848,11.0268,11.1053,11.116,11.116,11.1124,11.0865,11.0785,11.1005,11.1543,11.1863,11.2551,11.3563,11.3892,11.4123,11.4377,11.4775,11.5119,11.5534,11.6061,11.6976,11.7451,11.7752,11.8209,11.8085,11.8042,11.7794,11.7693,11.7651,11.8045,11.8733,11.9297,11.9847,12.0141,12.0361,12.0581,12.1095,12.1389,12.0875,12.1316,12.0471,11.9871,12.005,11.9986,12.0057,12.0537,12.1173,12.1636,12.1422,12.1043,12.0569,12.0071,11.9513,11.8696,11.8696,11.8213,11.8547,11.8362,11.8659,11.9179,11.8956,11.9142,11.929,11.8845,11.8081,11.7895,11.6706,11.5629,11.5406,11.4998,11.4366,11.4106,11.3883,11.3586,11.3475,11.3401,11.3512,11.3215,11.2769,11.2398,11.2101,11.2286,11.2398,11.2101,11.1878,11.1543,11.1377,11.1192,11.1229,11.1229,11.106,11.0838,11.0838,11.0838,11.0838,11.0932,11.1526,11.1655,11.1266,11.0783,11.0672,11.03,10.9631,10.9055,10.8553,10.7957,10.7472,10.7237,10.7183,10.7213,10.4893,10.6214,10.766,10.9326,11.0817,11.0535,11.091,11.1802,11.1945,11.198,11.1945,11.1812,11.1777,11.1889,11.2212,11.2928,11.3411,11.4095,11.4388,11.4594,11.4811,11.5173,11.5623,11.6159,11.6786,11.7679,11.8109,11.845,11.9154,11.8916,11.9117,11.9192,11.8887,11.8916,11.9086,11.9695,12.0383,12.0752,12.0912,12.0912,12.0985,12.1572,12.1646,12.1132,12.1536,12.113,12.0283,12.0167,12.0357,12.0422,12.0766,12.1414,12.1681,12.1629,12.1182,12.0919,12.0686,12.0389,11.9476,11.8956,11.8399,11.8993,11.8993,11.9253,11.9513,11.9402,11.8993,12.0166,11.9365,11.8675,11.8712,11.7561,11.6632,11.6335,11.5315,11.4721,11.4944,11.487,11.4515,11.4218,11.4181,11.4143,11.4032,11.3698,11.3103,11.2695,11.2398,11.2472,11.2361,11.2249,11.2249,11.2175,11.2138,11.2249,11.2398,11.1952,11.158,11.1655,11.1655,11.1655,11.184,11.2323,11.2435,11.1952,11.1543,11.134,11.1043,11.0634,11.004,10.9408,10.8867,10.8383,10.8491,10.8496,10.8228,10.5692,10.7567,10.7624,10.843,10.9958,11.1833,11.2623,11.265,11.2686,11.265,11.2499,11.2215,11.258,11.3095,11.3175,11.3649,11.4286,11.4569,11.4666,11.4811,11.521,11.5597,11.6155,11.6754,11.7596,11.8416,11.8923,11.9511,12.0304,12.011,12.0407,12.0791,12.0635,12.0407,12.042,12.0869,12.104,12.0936,12.1022,12.1169,12.1389,12.2013,12.1976,12.1683,12.2159,12.1924,12.0645,12.0661,12.0786,12.0516,12.0844,12.1385,12.1904,12.1034,12.0526,12.0405,12.0278,11.9773,11.8956,11.9476,11.972,11.9736,11.9625,11.9513,11.8845,11.851,11.877,12.0315,11.9588,11.9216,11.8919,11.8436,11.7672,11.7041,11.6001,11.5538,11.5798,11.5873,11.5518,11.5072,11.4998,11.4961,11.4923,11.4701,11.3958,11.3363,11.2752,11.2603,11.2769,11.2955,11.3141,11.3066,11.3066,11.2881,11.2881,11.2583,11.2361,11.2435,11.2361,11.2212,11.2175,11.2398,11.2435,11.2361,11.2212,11.1935,11.184,11.1766,11.1135,11.0523,11.004,10.9667,10.9794,10.9641,10.9185,10.59,10.705,10.843,10.9529,11.0406,11.1485,11.2302,11.2785,11.2921,11.267,11.2295,11.2608,11.3196,11.3667,11.4298,11.4727,11.5184,11.5318,11.5282,11.5354,11.568,11.6467,11.7072,11.762,11.8406,11.9343,11.9936,12.0303,12.0932,12.1016,12.1283,12.1636,12.2014,12.1903,12.1505,12.1609,12.1755,12.1854,12.216,12.2527,12.26,12.3114,12.3224,12.249,12.3297,12.2877,12.1117,12.1473,12.1627,12.1,12.1192,12.1777,12.2103,12.1343,12.1315,12.1386,12.1467,12.143,12.0962,12.0984,12.0426,12.0352,12.0442,12.0442,12.0256,12.0071,12.0278,12.0092,11.9625,11.9439,11.9513,11.8845,11.8192,11.8006,11.7338,11.6892,11.6892,11.6818,11.6595,11.6075,11.5798,11.5501,11.5352,11.5629,11.5109,11.4738,11.4218,11.3978,11.4089,11.4238,11.4349,11.4106,11.3958,11.3606,11.3346,11.3178,11.2955,11.2881,11.2695,11.2398,11.2435,11.2769,11.2732,11.2806,11.2658,11.2472,11.2583,11.2583,11.2175,11.1712,11.134,11.0709,11.0372,11.0108,10.9729,10.6112,10.7119,10.8991,11.0304,11.1114,11.177,11.2337,11.2785,11.3065,11.277,11.2591,11.3555,11.4178,11.4545,11.5258,11.5837,11.6115,11.6141,11.6141,11.6177,11.6503,11.7165,11.7817,11.8387,11.8946,11.989,12.0583,12.1097,12.1507,12.1939,12.2295,12.2637,12.3126,12.3004,12.2677,12.264,12.2611,12.2686,12.2931,12.3114,12.3371,12.3775,12.3995,12.3812,12.4031,12.4174,12.2889,12.2699,12.3141,12.2074,12.1955,12.2407,12.2361,12.225,12.2206,12.2278,12.2597,12.2767,12.2879,12.2374,12.1764,12.1021,12.1652,12.143,12.0776,12.0033,11.9959,11.9773,11.9476,11.9402,11.9328,11.8638,11.8452,11.8266,11.8304,11.7858,11.8139,11.8102,11.8027,11.747,11.6855,11.643,11.5984,11.6223,11.6335,11.6075,11.5815,11.5518,11.5241,11.5204,11.5241,11.4998,11.4738,11.4366,11.4106,11.3958,11.3698,11.3421,11.3272,11.3103,11.3458,11.3866,11.3549,11.3363,11.3512,11.3644,11.3532,11.3384,11.3272,11.3123,11.2901,11.212,11.1154,11.0816,11.0662,10.6493,10.7816,10.9236,11.0592,11.1731,11.2454,11.2864,11.2829,11.302,11.3155,11.3298,11.46,11.5232,11.5537,11.6457,11.6912,11.6912,11.6948,11.6912,11.7057,11.7419,11.7962,11.8324,11.8795,11.9335,11.997,12.08,12.1647,12.2084,12.2889,12.3342,12.3513,12.3932,12.3933,12.3834,12.383,12.3603,12.3555,12.3665,12.3848,12.4068,12.4289,12.4325,12.4424,12.4877,12.4601,12.3891,12.402,12.3787,12.323,12.3005,12.2857,12.2634,12.2374,12.2374,12.2671,12.334,12.3993,12.4365,12.3786,12.3191,12.2396,12.1817,12.1021,12.0315,11.9922,11.9885,11.9588,11.9216,11.8919,11.8601,11.8415,11.8266,11.8452,11.8749,11.8993,11.9476,11.9572,11.9572,11.9142,11.851,11.7969,11.7301,11.7338,11.7115,11.6892,11.6595,11.6298,11.6001,11.5703,11.5703,11.5629,11.5369,11.5109,11.4886,11.4701,11.4403,11.4127,11.4349,11.4349,11.4684,11.4721,11.4387,11.4292,11.4721,11.4721,11.4349,11.4424,11.4647,11.4461,11.4015,11.3681,11.2715,11.2323,11.2209,10.7616,10.8349,10.9923,11.0969,11.1679,11.3004,11.3336,11.2848,11.2778,11.3126,11.4113,11.5098,11.6064,11.6945,11.7506,11.7683,11.7745,11.7745,11.7745,11.789,11.8071,11.8433,11.8795,11.9111,11.9584,12.0383,12.1268,12.2329,12.3028,12.3824,12.4232,12.4239,12.4769,12.4834,12.4918,12.5095,12.4693,12.4436,12.4582,12.4693,12.4827,12.5121,12.4986,12.5159,12.5537,12.5015,12.4293,12.4475,12.4143,12.3504,12.334,12.3266,12.3228,12.3711,12.4216,12.4885,12.522,12.5442,12.548,12.4885,12.4179,12.3711,12.3117,12.204,12.1207,12.0463,12.0145,11.9773,11.9423,11.9216,11.9179,11.903,11.903,11.929,11.9513,11.9773,12.024,12.0352,12.0315,11.998,11.9402,11.8935,11.8341,11.7879,11.7656,11.7486,11.7338,11.7115,11.6781,11.6483,11.6298,11.6223,11.6075,11.5889,11.5592,11.539,11.513,11.4944,11.5204,11.5315,11.5241,11.5204,11.5055,11.5167,11.5464,11.5278,11.4907,11.513,11.5501,11.513,11.4701,11.4609,11.4387,11.3846,11.3438,10.832,10.909,11.0357,11.1466,11.2368,11.251,11.2837,11.3553,11.3817,11.4381,11.5145,11.6203,11.7088,11.7743,11.8246,11.8542,11.8542,11.8542,11.8542,11.8542,11.8505,11.8795,11.9085,11.9318,11.9864,12.075,12.1928,12.3074,12.4011,12.5041,12.5591,12.513,12.5713,12.5684,12.5645,12.5649,12.549,12.5318,12.5353,12.5672,12.5745,12.5709,12.5562,12.5514,12.5831,12.5086,12.4058,12.4395,12.4209,12.3377,12.3228,12.3266,12.3266,12.3808,12.4625,12.5108,12.5294,12.5294,12.5294,12.5034,12.464,12.4269,12.3786,12.2857,12.1928,12.1148,12.0798,12.0426,12.0129,11.9869,11.9869,11.9943,12.0129,12.0352,12.0426,12.0538,12.0724,12.0872,12.0724,12.0426,11.9996,11.9588,11.9105,11.8622,11.825,11.8192,11.8266,11.8325,11.7804,11.7264,11.7041,11.6929,11.6818,11.6669,11.6467,11.6393,11.6281,11.6207,11.6223,11.6223,11.5984,11.6021,11.6281,11.6207,11.6112,11.6021,11.6058,11.6058,11.6186,11.5852,11.5741,11.5852,11.5555,11.487,11.4515,10.8557,10.9628,11.0553,11.1906,11.3325,11.1873,11.2623,11.5097,11.5782,11.6106,11.6357,11.7474,11.8035,11.8345,11.8769,11.9049,11.9049,11.9012,11.9012,11.9194,11.9049,11.9157,11.9194,11.9391,12.0268,12.1394,12.271,12.4088,12.5361,12.6175,12.6438,12.6081,12.6273,12.6265,12.6111,12.5919,12.5722,12.5623,12.5757,12.5977,12.5929,12.572,12.5525,12.5269,12.5279,12.5096,12.4104,12.3971,12.4328,12.3488,12.3154,12.3451,12.3303,12.325,12.4046,12.4566,12.4959,12.4997,12.4997,12.4885,12.4454,12.4009,12.351,12.3102,12.247,12.1764,12.1355,12.1207,12.0946,12.0798,12.0761,12.0798,12.0946,12.1132,12.1244,12.1355,12.1541,12.1615,12.1504,12.1169,12.0702,12.0331,11.9959,11.9476,11.903,11.8956,11.8993,11.9142,11.8919,11.8229,11.8081,11.7932,11.7916,11.7879,11.7842,11.7767,11.773,11.7635,11.7524,11.7619,11.7619,11.7619,11.7582,11.7619,11.7619,11.747,11.7433,11.7301,11.7115,11.6892,11.6892,11.7189,11.6781,11.5947,11.5501,10.8249,10.8363,11.0035,11.1318,11.2346,11.3515,11.4411,11.5616,11.7192,11.7427,11.7176,11.7773,11.8433,11.8904,11.9049,11.923,11.923,11.923,11.923,11.9194,11.9194,11.9365,11.9463,12.0019,12.0844,12.1948,12.3395,12.5126,12.6328,12.6927,12.7039,12.662,12.6648,12.6484,12.6235,12.6005,12.5857,12.5745,12.6087,12.6418,12.6601,12.6711,12.6663,12.7034,12.7305,12.6674,12.6124,12.6448,12.6207,12.5554,12.5346,12.4974,12.4328,12.3808,12.3971,12.4566,12.4774,12.4774,12.4737,12.4774,12.4662,12.4306,12.3956,12.3585,12.3064,12.2396,12.2024,12.1891,12.178,12.1668,12.1594,12.1615,12.1652,12.1817,12.1928,12.2114,12.23,12.2247,12.2173,12.1838,12.143,12.1095,12.0798,12.0426,11.9922,11.9699,11.9662,11.9757,11.9795,11.9439,11.9513,11.9402,11.929,11.9253,11.9105,11.8919,11.8733,11.8882,11.8882,11.903,11.92,11.8956,11.8733,11.9142,11.9253,11.8807,11.8436,11.8304,11.8118,11.7784,11.7561,11.7635,11.7449,11.6743,11.6409,10.8066,10.8602,11.0209,11.1818,11.321,11.4229,11.5324,11.663,11.7543,11.7877,11.7968,11.8404,11.8831,11.9194,11.9194,11.923,11.923,11.923,11.923,11.923,11.9365,11.9625,12.0056,12.071,12.1799,12.2853,12.4509,12.6101,12.7061,12.7204,12.7076,12.6916,12.6801,12.6484,12.6187,12.6078,12.5857,12.5745,12.6234,12.6748,12.7225,12.7482,12.7299,12.7854,12.7821,12.7388,12.6739,12.6782,12.6393,12.5591,12.4937,12.4937,12.4343,12.3934,12.4009,12.4514,12.4774,12.4662,12.4588,12.4774,12.4885,12.4476,12.4811,12.4588,12.3451,12.282,12.2485,12.2374,12.2114,12.2002,12.2002,12.2002,12.2002,12.2114,12.2114,12.2225,12.23,12.2262,12.2247,12.2114,12.1854,12.1801,12.1578,12.1541,12.1037,12.0628,12.0575,12.0575,12.0575,12.0538,12.0686,12.0686,12.0463,12.0055,11.9646,11.9572,11.9588,11.9795,12.0092,11.9832,11.9683,11.9795,11.9869,12.0018,11.998,11.9609,11.929,11.9179,11.8749,11.8266,11.8044,11.7895,11.7709,11.7561,11.7152,10.8169,10.9569,11.0782,11.264,11.4736,11.4605,11.5657,11.7474,11.7561,11.8076,11.8931,11.9269,11.9312,11.923,11.923,11.923,11.923,11.923,11.923,11.9266,11.9463,11.9957,12.0674,12.139,12.2874,12.4252,12.5718,12.6486,12.7166,12.7204,12.7158,12.703,12.6755,12.6365,12.6259,12.5968,12.5709,12.5782,12.6186,12.6847,12.7471,12.8168,12.7973,12.7782,12.7723,12.7275,12.6443,12.618,12.6193,12.522,12.4603,12.4306,12.4194,12.386,12.3971,12.4328,12.4737,12.4439,12.4306,12.4959,12.4662,12.4514,12.5368,12.5071,12.386,12.3266,12.2931,12.2634,12.2411,12.23,12.23,12.23,12.23,12.2337,12.2337,12.23,12.23,12.23,12.23,12.23,12.2262,12.2247,12.2247,12.2247,12.2002,12.1594,12.1504,12.1541,12.1541,12.1504,12.1541,12.143,12.1207,12.0761,12.0389,12.0389,12.0538,12.0686,12.0872,12.0463,12.0315,12.0649,12.0761,12.0538,12.0426,12.0389,12.0203,12.0033,11.9513,11.8956,11.8807,11.8659,11.8399,11.8213,11.7784,10.8698,11.0513,11.1405,11.2757,11.4336,11.5657,11.6685,11.7382,11.8193,11.9102,11.9759,11.9983,11.9855,11.923,11.923,11.9302,11.9592,11.9447,11.9266,11.9266,11.9848,12.0476,12.1416,12.2688,12.4608,12.5901,12.6689,12.687,12.733,12.7278,12.7053,12.6893,12.6601,12.6294,12.6151,12.5882,12.5745,12.588,12.6406,12.7104,12.7804,12.849,12.914,12.9588,13.0526,12.9614,12.9019,12.9461,12.851,12.7077,12.5405,12.4588,12.4306,12.4157,12.4306,12.4826,12.516,12.5197,12.5383,12.5495,12.5197,12.4922,12.5331,12.4662,12.3749,12.3303,12.2931,12.2656,12.2433,12.2337,12.2337,12.2411,12.2411,12.247,12.247,12.2396,12.2321,12.23,12.23,12.23,12.2262,12.2262,12.2262,12.2262,12.2262,12.1965,12.1965,12.2002,12.1965,12.2151,12.23,12.2077,12.1817,12.1965,12.1854,12.1557,12.1631,12.1705,12.1668,12.1371,12.1392,12.1801,12.1801,12.1392,12.143,12.1504,12.1281,12.0872,12.0368,11.9885,11.9736,11.9513,11.9216,11.8845,11.8415]}]]